GEFSSGP_500_meanwind_000.txt.gz
Wind_Speed
8 9 11 13 14 16 17 17 17 17 18 19 21 23 23 23 22 22 22 21 21 20 21 22 22 23 23 22 22 23 24 24 24 24 23 22 21 19 18 18 19 20 21 21 20 19 19 19 19
8 8 10 13 13 15 16 16 14 16 16 17 20 22 21 21 23 23 22 21 21 21 22 23 24 24 24 23 23 24 25 25 24 24 22 22 22 21 20 21 21 22 22 23 23 22 22 21 21
5 7 8 10 11 14 14 10 11 14 14 13 16 19 19 19 20 22 23 22 23 25 25 26 26 26 26 25 25 26 26 25 25 24 23 23 23 23 23 23 24 24 24 24 25 24 24 24 23
2 3 5 7 8 11 8 8 11 9 8 9 13 15 17 18 19 22 24 23 23 25 26 26 27 27 27 27 27 27 27 27 27 26 26 26 27 26 26 25 25 25 25 24 25 25 24 24 23
3 2 3 3 5 8 5 8 7 5 6 8 13 14 17 19 19 20 22 22 22 24 26 28 27 27 27 28 28 28 28 28 29 29 29 29 29 29 28 27 26 26 25 25 24 25 24 24 24
2 2 3 4 5 6 4 6 7 8 9 10 16 19 20 21 20 20 22 24 25 26 26 28 28 29 30 31 31 31 31 32 32 32 33 33 32 31 30 29 28 28 27 27 26 26 26 26 26
3 4 6 7 7 6 5 8 10 13 14 16 19 22 24 24 23 22 25 28 30 31 30 31 31 33 34 34 35 36 36 36 36 35 35 34 34 33 31 30 30 29 30 29 29 29 29 30 30
7 8 9 10 10 10 12 13 14 16 19 21 22 24 26 29 28 28 30 33 35 35 34 34 34 34 34 34 35 36 36 36 36 36 35 35 33 32 30 29 29 29 29 30 30 30 30 30 30
8 9 9 10 11 13 15 18 18 20 23 25 25 26 27 29 30 30 31 33 35 35 34 33 33 30 30 30 32 33 34 35 36 36 35 34 33 31 29 29 28 29 29 29 29 30 30 30 30
6 7 7 9 11 13 15 17 16 18 19 20 22 22 24 25 26 26 27 28 31 32 31 30 31 28 27 28 30 32 33 34 35 36 35 35 34 33 31 30 30 30 30 30 30 30 31 31 31
6 6 8 8 10 14 17 16 15 15 14 16 18 21 23 25 26 27 28 27 27 29 30 30 31 32 31 30 31 31 33 35 37 37 37 38 38 37 36 34 34 33 33 32 32 31 31 31 31
10 11 11 11 13 16 18 18 18 18 18 17 19 22 26 28 30 31 33 33 32 32 32 33 35 36 37 36 35 35 35 36 38 39 40 41 42 41 39 37 37 37 37 37 36 36 35 35 34
14 13 13 13 15 18 20 20 20 20 21 22 24 25 27 29 31 32 34 35 36 36 35 35 38 39 40 41 40 40 40 40 41 41 41 42 43 43 42 41 40 40 40 40 39 39 38 39 39
12 13 13 14 15 18 21 21 20 18 19 21 22 24 26 27 29 31 32 33 34 35 35 36 38 41 43 43 44 43 43 43 44 45 45 45 44 44 44 44 44 44 44 43 42 41 41 40 40
11 10 11 12 15 16 16 17 17 17 19 20 22 25 26 27 28 30 33 35 36 38 39 39 39 40 42 44 45 45 45 45 45 46 47 47 47 47 47 47 47 47 47 46 45 45 45 44 44
12 11 10 11 13 15 17 17 17 18 19 21 25 28 30 31 32 34 36 38 39 42 44 45 46 46 47 48 50 51 51 52 52 52 52 53 53 53 53 53 53 53 52 51 50 49 49 48 48
13 12 12 14 16 20 23 25 25 25 24 26 29 32 34 35 37 39 39 40 42 45 47 48 48 49 51 52 54 55 55 56 57 57 58 59 59 60 59 59 59 59 59 58 57 55 54 54 53
14 16 18 19 21 23 27 28 28 27 28 30 31 34 36 39 41 42 42 42 44 46 47 48 49 50 52 53 54 56 58 60 61 60 61 62 62 63 64 65 65 64 64 63 63 62 61 61 60
14 16 18 20 22 24 27 28 29 30 31 33 35 39 40 41 41 42 43 45 48 49 51 54 58 60 59 58 58 59 60 61 62 63 63 63 63 62 63 65 68 68 67 67 67 66 66 66 66
16 18 20 22 24 26 27 29 30 33 35 38 41 43 44 46 47 48 49 52 55 57 58 59 60 62 63 65 67 64 63 64 65 66 67 68 67 66 65 65 66 67 67 67 67 67 66 66 66
21 22 23 24 25 29 32 34 36 39 41 45 47 49 51 52 54 56 60 65 67 66 64 64 66 68 69 72 75 75 71 70 71 71 71 72 72 73 72 71 70 71 70 70 69 68 67 65 63
20 22 23 26 27 30 34 37 40 43 47 51 54 56 58 62 65 69 71 70 70 69 68 68 71 74 76 78 79 80 77 75 75 76 75 75 76 77 79 78 77 76 76 76 75 74 72 71 67
18 21 23 26 30 34 37 43 47 48 51 54 56 59 63 68 71 75 76 76 75 75 76 77 77 78 80 82 83 81 80 79 77 77 77 77 77 78 80 82 82 81 80 80 80 78 77 77 74
21 24 27 31 36 41 45 51 54 56 59 61 64 66 69 74 76 77 78 81 82 83 83 81 81 81 82 83 82 79 75 71 69 69 70 71 72 74 77 80 82 82 83 81 81 81 80 80 77
24 27 31 36 42 47 51 56 60 64 67 69 72 72 72 74 75 77 80 83 84 84 83 83 82 79 77 73 68 63 57 52 51 53 55 58 62 65 71 75 77 77 76 73 75 78 78 79 78
26 30 36 41 47 51 56 61 64 67 71 74 74 74 73 74 75 78 82 83 82 81 80 78 73 68 63 55 47 42 41 42 46 50 53 57 61 65 67 68 68 69 66 58 59 63 70 75 77
30 36 41 48 54 59 63 65 68 72 75 76 74 71 71 73 75 77 78 79 78 77 75 71 62 52 42 36 35 36 38 42 46 46 46 50 53 57 61 67 68 63 60 64 59 54 56 62 70
34 42 48 54 59 63 66 69 72 75 73 72 70 70 72 74 73 70 67 64 60 57 52 45 42 35 33 33 33 33 37 40 38 39 42 46 48 47 46 49 65 68 62 57 57 54 51 52 57
39 47 53 57 60 65 69 71 75 74 73 72 70 68 65 61 60 58 54 52 50 45 39 35 33 33 33 32 31 32 34 35 35 38 42 43 40 39 39 39 46 63 66 56 48 46 40 39 47
44 50 56 59 62 66 70 72 76 74 70 68 64 61 59 60 57 52 52 50 44 37 32 30 30 30 30 28 29 30 32 33 34 36 40 38 36 32 29 30 32 41 56 60 56 56 54 48 48

GEFSSGP_500_meanwind_006.txt.gz
Wind_Speed
9 8 9 11 14 15 16 16 16 17 18 18 18 19 21 20 20 21 22 22 23 24 23 24 24 25 26 26 26 27 27 26 25 25 24 23 23 23 22 22 22 21 20 20 20 20 21 21 21
6 7 8 9 11 13 14 14 15 16 16 15 15 16 17 18 18 18 19 20 21 23 23 23 24 26 27 28 28 29 29 29 28 27 25 25 25 25 24 25 25 24 23 23 22 23 24 25 25
6 5 5 5 6 7 8 9 12 13 11 10 9 11 13 16 17 18 19 19 20 21 22 23 25 26 28 28 29 29 30 29 29 29 27 27 27 27 27 27 28 27 26 25 26 26 27 28 28
5 4 3 3 3 3 3 5 7 7 7 8 8 8 10 12 14 16 17 19 21 22 23 24 26 27 28 29 30 30 31 30 30 30 30 30 30 30 30 30 30 29 28 28 28 29 30 31 31
6 5 4 5 5 4 4 3 2 4 6 8 9 9 10 11 12 14 16 19 22 24 25 26 27 28 29 31 31 31 32 32 32 33 32 32 33 33 33 33 32 32 31 31 30 30 31 31 32
6 6 7 6 6 5 6 6 6 6 8 10 12 14 15 15 16 17 19 21 24 26 28 29 30 31 32 33 34 34 35 35 36 36 36 36 36 36 35 35 35 34 33 33 33 32 31 31 32
6 6 6 6 6 8 10 11 12 12 13 14 16 18 20 21 22 22 24 25 27 30 32 34 35 36 36 37 37 38 39 39 39 40 40 40 40 40 39 38 37 36 36 36 35 34 33 32 32
7 7 7 7 8 10 11 12 13 14 15 16 17 19 21 24 25 26 27 28 29 30 32 34 36 37 37 38 38 38 38 39 39 39 40 41 41 41 41 41 40 39 39 39 39 38 36 35 34
6 7 8 9 10 11 12 12 12 13 14 16 18 20 22 24 26 28 29 30 30 30 31 32 34 36 37 37 38 38 38 37 37 38 38 39 40 41 42 42 42 41 41 41 41 41 40 38 37
8 9 9 10 10 11 12 12 12 13 14 16 19 22 24 26 28 30 32 33 33 34 34 35 36 37 38 39 40 40 40 40 39 39 39 39 40 40 41 42 43 43 42 41 41 41 41 40 39
9 10 11 11 10 11 11 13 14 15 16 19 21 23 25 27 28 30 32 34 35 35 36 36 37 38 40 41 43 44 44 44 44 44 43 43 42 41 42 42 43 43 42 42 42 41 41 41 40
10 10 10 10 10 10 11 11 13 15 16 18 21 23 25 27 29 30 32 34 35 36 37 38 39 40 41 42 43 45 47 48 49 49 49 48 48 47 45 45 45 44 43 43 44 44 43 43 42
9 9 8 8 9 9 9 10 12 14 16 19 22 25 28 30 32 34 35 37 38 40 41 42 43 44 45 46 46 46 46 48 50 51 52 52 52 52 51 50 49 48 47 46 45 46 47 46 45
7 7 7 8 8 9 10 12 15 17 20 23 25 27 29 31 34 37 39 41 42 44 46 48 49 51 51 51 51 51 51 51 51 52 53 54 54 54 54 54 54 53 51 50 49 48 49 50 51
7 7 8 9 10 11 12 14 17 20 22 25 27 30 32 35 38 40 43 46 48 49 51 52 54 56 56 56 56 56 56 56 56 56 57 57 57 57 56 56 56 55 54 54 53 52 51 51 51
8 9 11 12 14 15 17 18 20 23 26 29 32 35 38 41 43 46 48 51 53 55 57 58 59 60 61 61 61 61 61 61 60 60 60 61 62 62 62 61 59 59 58 56 56 56 55 54 54
8 11 13 15 17 18 20 22 24 28 32 36 40 44 47 50 52 54 56 57 57 59 60 62 63 65 66 66 66 66 65 65 64 64 64 63 63 63 64 65 64 63 62 61 59 58 57 57 57
10 11 12 14 15 18 21 25 29 34 38 43 48 51 55 58 61 63 66 67 67 66 65 65 66 67 69 70 70 69 69 68 66 67 67 67 66 66 66 66 66 66 65 64 63 62 61 60 60
13 14 14 15 17 20 25 29 34 39 44 49 53 57 61 64 67 70 72 74 75 76 75 74 72 72 73 74 75 76 76 75 74 74 74 74 74 74 74 73 71 71 70 69 67 67 66 64 63
14 15 16 18 21 25 29 34 39 45 50 55 59 63 66 69 73 76 78 80 82 84 85 85 84 81 80 80 81 82 82 82 82 80 79 80 80 80 80 79 77 76 76 75 73 71 70 68 66
14 17 20 23 26 29 34 40 46 52 57 63 66 69 72 76 80 83 85 87 88 88 89 89 89 89 89 88 88 88 87 87 87 87 86 86 86 84 84 84 83 82 81 80 78 76 75 73 70
18 20 24 28 31 34 40 48 53 59 64 67 70 74 78 82 85 87 87 87 87 86 86 85 84 84 84 84 85 86 87 87 86 86 86 87 88 88 88 89 89 88 86 85 84 82 80 78 75
21 24 28 31 35 40 46 54 59 64 68 71 75 78 81 84 85 85 84 82 80 77 75 71 67 65 65 65 65 64 63 63 63 65 67 72 75 77 80 84 87 88 88 88 87 87 84 83 81
25 29 33 36 40 46 51 58 63 67 71 75 79 80 82 83 83 80 77 73 68 63 58 55 55 55 55 53 51 47 43 41 39 38 40 44 50 56 61 67 72 76 79 82 84 86 86 85 84
28 31 35 39 44 48 54 60 66 70 75 78 80 81 81 80 76 72 68 61 55 51 50 52 53 51 49 47 45 41 38 34 30 27 27 29 32 35 39 44 48 53 59 65 71 76 80 82 84
32 33 36 40 45 50 56 61 68 73 77 79 80 79 77 72 68 64 59 54 49 48 50 51 51 49 48 46 43 40 37 33 28 24 23 23 24 26 30 33 36 39 43 49 56 63 69 74 78
34 35 38 43 49 55 59 64 70 75 78 79 78 75 69 63 60 58 54 50 48 47 50 51 51 49 47 45 42 39 36 33 29 26 24 23 22 22 24 27 29 32 35 40 45 51 58 65 71
34 38 43 48 54 59 63 68 73 76 77 78 77 70 62 56 55 54 51 49 48 48 50 53 52 50 48 45 42 39 35 33 30 27 25 24 24 25 27 28 29 31 33 35 38 43 50 57 63
36 41 45 51 56 62 67 71 74 76 77 78 74 65 56 52 52 53 53 52 51 51 53 54 53 51 48 45 43 40 37 35 32 30 29 28 28 29 30 31 32 33 34 36 38 39 43 50 56
38 44 49 54 59 63 67 72 75 77 77 76 70 61 53 51 53 55 56 56 55 55 56 56 55 52 50 47 45 43 41 39 37 35 34 33 33 33 34 35 35 35 35 36 37 39 39 40 44

GEFSSGP_500_meanwind_012.txt.gz
Wind_Speed
3 3 2 3 5 6 8 9 10 11 13 13 14 15 16 17 18 19 19 20 23 23 22 23 24 25 27 28 29 30 31 31 31 31 30 29 29 28 27 26 25 24 24 25 26 26 25 24 23
2 2 1 1 2 1 3 6 7 7 9 10 12 13 14 14 14 14 14 15 17 19 21 22 24 26 28 29 29 30 31 33 33 33 33 32 32 31 31 30 29 28 28 28 29 29 30 29 28
6 5 5 3 2 1 0 1 2 5 6 7 8 8 9 9 10 11 12 13 15 18 20 22 24 26 28 29 30 31 32 33 34 34 35 34 34 34 33 33 32 32 31 31 31 32 33 33 32
9 9 8 7 7 6 5 4 5 5 5 6 6 7 9 10 11 13 14 15 17 18 20 23 25 27 29 30 31 32 33 34 35 36 36 37 37 36 36 36 35 35 34 34 34 34 35 35 35
11 11 8 9 9 9 9 8 7 7 6 7 7 8 10 11 14 16 18 19 21 23 24 26 28 30 32 34 35 35 36 37 38 39 39 39 40 39 39 39 38 38 38 37 37 37 36 36 37
10 8 7 7 6 6 6 6 5 6 7 8 9 10 11 12 14 16 18 20 22 24 26 28 30 32 34 36 38 39 40 41 42 43 43 43 43 43 42 42 42 41 41 41 40 40 39 39 39
8 6 7 6 6 7 7 6 6 6 6 7 8 9 11 12 14 16 18 19 21 23 26 28 31 33 35 37 38 39 40 41 42 43 45 47 48 48 48 47 46 45 45 44 43 43 43 43 42
7 7 7 7 7 7 7 6 7 9 9 11 12 13 14 16 17 18 20 21 23 25 28 30 33 35 38 40 42 43 44 44 44 43 43 45 47 49 51 51 50 50 49 48 47 47 46 46 46
9 8 7 7 7 6 6 6 7 9 11 12 14 14 16 17 19 21 23 25 27 29 32 34 35 37 39 41 43 45 47 48 48 48 48 47 47 47 49 50 51 51 51 51 51 50 50 49 48
9 8 8 8 7 6 6 6 8 9 10 12 14 16 18 20 22 25 27 30 32 35 37 40 42 43 45 46 48 49 50 51 51 51 51 51 51 50 50 50 50 51 51 51 51 51 51 51 51
9 8 8 8 9 8 8 8 8 8 9 12 15 17 20 23 26 29 32 35 38 41 43 46 48 50 52 53 54 55 55 56 56 56 56 55 54 53 53 54 53 52 51 51 51 51 51 52 52
9 9 9 9 9 8 8 8 9 10 13 15 18 21 25 28 32 35 39 42 46 49 52 55 57 58 60 61 62 62 62 62 62 62 61 61 60 59 57 57 57 56 55 53 52 52 53 53 52
8 8 7 7 6 7 9 11 12 14 16 19 22 25 29 33 37 41 45 49 53 57 61 64 65 67 68 69 70 70 70 69 69 69 68 67 65 64 63 61 60 60 59 58 57 56 55 55 54
6 5 5 5 6 8 10 13 14 16 18 21 25 29 35 40 45 49 53 57 61 64 67 69 72 73 75 76 77 78 78 76 75 74 74 74 72 70 67 66 66 64 63 62 62 61 60 59 57
5 5 6 8 9 10 11 13 16 18 22 27 32 38 43 48 53 57 61 65 68 71 73 76 78 80 81 82 82 83 83 82 81 79 78 78 77 76 74 71 70 69 68 67 66 65 65 63 61
5 7 9 10 11 13 14 16 20 24 29 35 40 46 51 56 60 64 68 72 75 78 80 83 84 85 86 86 86 85 84 83 81 80 80 80 80 80 79 77 75 73 72 71 70 69 68 67 66
7 10 11 13 15 17 20 23 27 32 37 42 47 52 57 62 66 70 74 78 81 83 85 87 89 90 89 87 84 82 80 79 78 76 76 79 82 82 82 81 80 78 77 75 74 73 71 70 69
11 13 15 17 20 22 26 30 33 36 41 46 52 57 62 67 71 75 78 81 84 86 88 90 90 87 81 75 72 69 68 65 63 64 65 67 73 82 86 85 83 82 81 80 79 77 75 73 71
15 17 18 20 23 27 30 33 36 39 45 49 54 60 66 71 74 78 80 83 85 86 87 87 82 72 66 62 60 58 54 50 48 49 51 53 57 65 78 89 89 87 85 84 82 81 79 76 74
17 19 20 23 26 31 34 36 37 43 47 52 58 64 69 74 77 79 81 83 85 85 84 79 67 60 58 57 56 54 51 48 47 47 48 50 50 52 59 73 87 92 90 88 86 85 83 80 78
18 20 23 26 30 32 37 37 40 46 51 57 63 68 73 76 79 80 82 83 83 80 75 64 56 55 55 55 54 52 51 50 49 48 47 48 49 50 50 54 69 85 94 94 91 89 87 84 81
19 23 26 29 32 33 37 42 44 50 56 62 68 72 76 78 80 81 82 81 78 73 65 56 54 55 56 57 56 55 53 52 50 48 46 45 45 46 47 47 51 65 82 93 96 94 92 89 85
22 25 28 30 32 34 39 45 50 55 61 67 72 75 78 79 81 82 80 77 72 66 58 54 55 58 60 60 59 57 56 54 52 50 47 44 43 43 43 43 43 47 59 75 90 96 95 93 90
23 27 30 32 36 38 43 49 54 60 66 71 75 77 79 80 82 80 76 71 66 60 56 56 59 63 64 65 63 61 58 55 53 51 48 45 42 40 39 39 38 38 42 51 65 81 91 94 92
24 28 33 37 41 43 47 52 59 64 69 73 77 78 79 81 80 76 72 66 61 57 58 60 64 66 67 65 63 60 58 55 53 51 48 46 42 39 37 36 35 35 34 37 43 55 69 83 90
24 27 31 37 42 46 50 55 62 67 71 76 77 78 79 80 76 72 67 63 60 60 62 65 66 65 63 59 56 55 53 52 51 50 48 46 43 39 36 34 33 33 32 32 33 38 48 61 74
26 31 34 39 45 49 53 58 65 70 74 76 76 77 79 77 72 68 65 62 62 64 66 65 62 59 56 54 52 52 51 50 49 48 47 46 44 42 38 34 32 31 31 31 31 32 36 43 53
28 34 37 41 46 52 57 62 67 72 75 76 76 77 77 74 69 66 65 65 66 66 64 60 56 53 52 51 51 51 51 50 48 47 45 44 43 43 41 37 33 32 31 31 31 31 32 34 38
31 35 39 42 46 53 60 66 70 74 76 75 76 76 74 70 67 66 66 67 67 64 59 55 53 51 51 51 52 52 51 50 49 47 46 44 42 41 41 40 37 34 32 32 32 32 32 33 34
32 35 39 44 49 54 61 69 73 75 75 75 75 74 70 67 66 66 67 67 63 59 56 53 52 51 52 53 54 54 54 52 50 47 45 43 41 39 39 41 41 39 36 34 34 34 35 35 35

GEFSSGP_500_meanwind_018.txt.gz
Wind_Speed
1 1 2 3 4 3 2 2 3 4 5 5 7 9 12 14 15 15 15 16 18 20 22 24 27 28 30 32 34 35 36 37 37 37 37 37 36 36 35 35 35 35 34 33 31 30 29 29 29
4 2 1 1 0 3 3 2 1 1 1 2 4 6 7 9 10 10 11 12 14 16 18 19 21 23 25 27 28 30 32 33 35 36 37 37 38 38 39 38 38 38 37 37 35 34 33 32 32
6 6 5 6 7 7 7 6 4 4 3 2 2 3 4 6 8 10 11 13 15 17 18 20 21 23 25 27 28 30 31 32 34 35 37 38 38 39 40 40 41 41 41 40 39 38 37 36 36
10 10 10 12 11 10 9 8 7 6 4 3 3 4 6 8 10 12 14 15 17 18 20 22 23 25 27 29 31 32 34 35 37 38 39 40 41 42 43 43 43 43 44 43 42 41 40 39 39
10 10 10 10 9 8 7 6 6 5 4 4 4 5 7 9 11 13 15 17 18 20 22 24 26 28 29 31 33 35 36 38 39 40 42 43 44 45 46 47 47 46 46 46 46 45 44 43 42
8 9 8 8 7 6 6 6 5 4 4 4 6 8 9 11 13 15 17 19 21 23 25 28 30 32 34 36 38 40 41 42 43 44 45 46 47 47 48 49 50 51 51 49 49 48 48 47 45
10 9 9 9 8 8 8 7 7 7 7 8 8 10 11 12 15 17 20 23 25 28 31 34 36 39 42 44 45 47 48 49 50 50 51 51 51 52 52 52 52 52 53 53 54 53 52 51 49
11 10 11 10 10 10 9 9 9 8 9 10 11 12 14 17 20 23 26 29 32 35 39 42 45 47 50 52 54 56 57 58 58 59 58 58 58 57 57 56 56 56 56 55 55 56 57 55 54
12 12 12 12 12 12 11 11 11 11 12 13 15 17 20 23 26 29 32 35 39 43 46 49 52 55 58 60 62 64 65 66 67 67 67 66 65 65 63 62 61 60 59 59 58 57 58 59 58
13 13 12 12 12 11 11 12 12 13 14 16 18 21 24 27 31 35 38 42 45 49 53 57 60 62 65 67 70 71 72 73 74 74 73 72 71 70 69 68 67 66 64 62 62 61 60 60 60
12 11 10 9 9 9 9 10 12 14 15 19 22 25 28 32 36 40 44 48 51 54 58 62 65 68 71 73 76 77 78 79 79 79 79 77 75 74 73 72 71 70 70 68 66 65 64 63 62
9 8 6 6 6 7 9 12 14 16 19 23 26 30 33 37 41 45 48 51 55 58 62 66 70 73 76 78 80 81 83 84 84 84 84 84 82 79 77 75 74 73 72 72 71 69 68 67 65
5 3 4 5 8 10 13 16 18 20 23 27 31 34 38 41 44 47 51 55 59 63 67 71 74 77 79 80 82 83 85 86 87 87 88 88 88 86 82 79 77 75 74 74 74 74 72 71 69
3 4 6 9 11 14 16 19 21 24 27 31 34 37 40 43 47 51 56 60 65 69 73 77 79 81 82 84 85 87 89 90 90 91 90 89 88 87 85 82 79 77 76 76 76 76 76 75 73
6 8 10 11 14 15 16 19 24 27 30 33 36 39 43 47 51 56 61 66 71 75 78 80 82 84 86 88 89 90 90 89 87 84 81 78 75 75 74 73 72 71 72 73 76 78 79 78 77
9 11 12 14 15 17 19 20 25 28 32 35 39 43 48 52 57 62 67 71 75 78 80 83 85 87 88 89 88 86 82 78 74 69 65 63 61 60 60 59 60 62 64 67 71 76 80 81 81
12 14 14 17 18 20 23 25 28 31 35 39 44 48 52 57 62 66 71 75 78 80 82 85 87 88 87 84 80 75 71 68 65 62 59 57 56 56 55 54 54 55 57 60 64 71 77 82 84
15 17 18 19 21 23 26 28 30 35 39 43 47 51 56 61 66 71 75 78 80 82 84 87 87 86 82 78 73 70 67 66 64 63 62 61 60 59 58 56 54 54 54 56 58 63 71 80 86
16 17 19 21 24 26 28 30 32 38 41 45 49 55 61 66 70 75 78 79 81 83 85 86 86 82 78 75 72 70 68 67 66 65 64 64 63 62 61 60 57 55 55 54 55 56 61 72 83
17 19 20 20 24 28 30 31 34 39 43 47 53 59 65 70 74 78 80 81 83 85 86 85 82 79 77 75 73 69 66 63 60 59 58 58 58 59 60 60 59 58 56 55 55 54 54 60 72
19 21 23 25 26 28 33 34 35 41 46 51 57 63 68 74 78 80 81 82 83 84 83 82 80 78 75 71 66 62 59 56 54 52 51 51 51 51 52 53 55 56 57 56 55 54 53 53 58
19 21 23 26 28 31 33 38 38 45 51 56 61 66 72 78 80 80 81 82 83 83 82 80 77 73 69 65 62 60 57 55 53 52 51 50 50 49 48 47 48 51 54 55 55 55 53 52 52
20 22 25 27 30 32 34 40 45 50 55 60 65 71 76 79 79 80 81 82 82 82 80 77 72 68 64 63 61 59 58 57 56 56 54 52 50 48 47 46 45 45 48 51 54 54 54 52 51
22 24 25 29 34 38 42 45 48 52 58 64 70 74 77 79 79 80 81 82 81 81 78 72 67 65 64 62 61 60 59 59 58 55 52 49 48 46 45 44 43 42 43 46 50 52 53 52 50
24 27 32 36 38 40 42 45 49 56 62 67 72 75 77 79 80 81 81 81 80 78 73 68 65 64 63 62 60 60 60 60 57 53 50 47 45 44 42 41 40 40 40 42 45 49 51 51 49
26 28 32 35 37 38 42 48 53 57 62 67 72 76 79 79 80 80 80 80 79 74 68 66 65 65 63 62 61 61 61 58 54 51 48 46 45 44 42 40 38 37 37 39 42 46 49 49 48
27 29 31 34 37 42 46 49 54 59 63 68 74 77 78 78 79 79 79 79 75 70 66 65 65 64 63 61 61 61 59 56 52 50 48 47 46 45 44 41 37 35 35 36 38 42 46 47 46
27 30 33 36 41 45 48 52 56 60 65 71 75 76 77 78 78 78 78 77 71 67 65 65 65 64 62 62 61 60 57 55 52 51 49 48 47 46 44 42 39 35 33 33 35 39 42 44 43
27 30 32 36 40 46 52 54 57 61 67 72 75 76 77 77 77 77 77 74 68 65 65 65 64 63 62 61 60 58 56 55 54 53 52 50 48 47 45 42 40 36 33 32 33 36 39 41 41
28 32 35 38 41 44 49 55 58 63 69 73 76 76 76 76 76 77 76 70 65 64 64 65 64 63 62 60 58 57 57 57 56 56 55 53 51 49 47 45 41 37 33 31 31 33 36 39 39

GEFSSGP_500_meanwind_024.txt.gz
Wind_Speed
6 6 5 5 6 4 7 8 7 5 3 5 6 7 7 6 6 7 7 8 9 11 12 14 16 18 20 21 23 24 26 27 29 32 34 36 39 41 43 44 45 45 45 44 43 42 41 40 39
10 9 8 7 8 8 8 9 10 8 4 3 3 5 6 7 8 9 9 11 12 13 15 17 18 20 21 23 24 26 28 29 30 32 33 35 37 38 40 42 44 45 47 47 47 47 46 45 44
12 12 10 10 10 10 9 9 8 6 3 2 4 6 7 9 10 11 12 13 14 16 17 19 21 23 25 27 28 30 31 33 34 35 36 37 38 40 41 42 43 44 46 47 49 49 50 49 48
14 14 11 12 12 12 11 11 9 8 6 5 6 7 9 9 10 12 13 15 17 19 21 24 26 28 31 33 35 36 38 39 40 41 42 43 44 45 45 45 46 46 46 47 48 50 51 52 52
14 12 10 11 11 10 10 10 9 8 8 8 8 8 9 11 13 14 16 19 21 24 26 29 32 35 37 39 42 44 45 47 48 49 50 51 52 52 52 52 52 52 51 50 50 50 51 53 53
12 11 12 12 12 13 13 12 12 11 11 10 9 9 11 13 15 18 21 23 26 29 32 35 38 40 43 46 48 51 53 55 57 58 59 59 60 60 60 60 60 59 58 57 55 54 53 53 54
14 14 15 15 16 16 15 14 12 11 10 9 10 11 13 15 19 22 25 28 31 34 37 40 43 47 50 53 56 59 61 64 65 67 68 68 69 69 68 68 68 66 65 64 62 60 59 57 56
17 19 18 17 17 16 14 12 10 9 8 9 11 14 16 19 23 26 29 33 36 39 42 46 49 52 56 59 62 66 69 71 73 75 76 77 77 77 76 75 74 73 72 70 68 67 65 64 62
19 18 17 15 13 12 11 9 8 8 9 11 15 18 21 24 27 30 34 37 41 44 47 50 54 57 61 64 68 71 74 77 79 80 82 83 83 83 83 82 81 79 77 75 73 71 70 69 67
15 14 12 11 9 8 7 8 10 12 14 16 20 23 26 28 31 34 37 40 44 47 51 54 58 62 66 69 72 75 77 80 82 84 85 86 87 88 88 88 86 85 83 81 78 75 73 72 71
11 9 8 7 7 8 10 12 14 16 18 21 23 26 28 31 34 37 40 44 47 51 55 59 63 67 71 74 77 80 81 83 85 87 88 89 91 92 92 92 92 91 88 86 83 81 78 76 75
6 5 5 7 9 11 13 15 16 18 20 23 25 27 30 33 37 40 44 48 52 56 60 64 68 73 76 79 81 83 84 86 88 91 93 95 96 97 96 96 95 94 93 90 87 85 83 80 78
3 5 6 8 11 13 15 16 18 19 21 24 26 28 32 36 40 44 48 52 56 60 64 68 73 77 79 81 82 84 87 91 95 97 98 97 97 95 93 92 90 90 90 89 87 87 85 84 82
7 8 10 11 13 15 17 19 20 21 23 25 28 31 35 39 43 47 51 55 59 63 68 73 76 79 80 82 85 89 92 96 97 94 91 87 84 82 80 79 79 79 80 81 81 82 82 82 83
10 11 12 13 14 15 18 21 23 24 25 27 30 34 38 42 46 50 54 59 63 67 72 75 78 80 82 85 89 93 95 93 89 83 79 76 73 71 69 68 68 69 70 71 73 75 77 78 80
12 13 14 15 16 16 17 21 23 25 26 29 33 37 41 45 49 53 58 62 67 71 75 77 79 82 85 89 92 92 89 85 80 76 74 72 71 69 68 66 64 64 64 66 67 69 71 73 77
13 14 15 16 16 16 18 21 24 26 29 33 36 40 44 48 52 56 60 66 71 74 77 79 81 84 87 90 90 86 81 78 76 74 73 71 69 67 65 63 62 61 61 62 64 67 68 70 72
11 11 14 14 15 16 19 22 26 30 33 36 39 43 47 51 55 59 64 70 74 77 78 80 83 85 87 87 83 78 75 74 74 72 70 68 65 62 60 59 58 57 57 59 61 63 66 69 70
12 12 13 15 17 19 21 24 27 31 34 37 41 45 49 54 58 63 68 73 77 78 80 82 84 86 86 83 78 74 72 72 72 70 67 63 59 57 55 54 52 52 52 54 56 59 63 67 69
13 13 14 16 17 20 21 23 27 31 34 38 43 48 52 57 61 67 72 76 78 79 81 83 85 86 83 79 75 73 73 72 69 65 60 57 54 52 50 48 47 47 47 49 52 55 57 62 67
13 14 14 16 18 21 22 22 27 31 36 41 46 51 55 60 65 70 74 76 78 79 81 83 85 83 79 76 74 73 71 68 63 57 53 51 50 50 49 48 46 44 44 44 46 49 52 56 62
14 15 16 17 20 23 25 25 29 34 40 45 49 53 57 62 67 72 75 76 78 80 81 84 83 79 76 75 74 73 69 64 58 52 49 50 51 51 50 49 48 46 44 42 42 43 47 51 56
15 16 17 19 21 23 25 29 33 37 42 47 51 56 60 64 69 72 74 76 78 80 82 83 80 76 75 75 74 72 67 61 53 50 50 51 53 54 53 52 50 49 46 43 41 41 42 46 51
18 18 19 20 22 25 28 32 36 40 45 49 53 57 61 66 69 71 73 75 77 80 81 81 77 74 74 75 73 70 64 57 51 51 53 54 56 56 56 54 52 51 48 45 42 40 40 41 46
20 21 23 25 26 29 31 34 38 42 46 51 55 59 62 66 69 71 73 75 77 80 80 78 75 73 74 74 71 68 62 55 53 54 56 58 59 58 58 56 54 51 48 45 42 40 39 39 41
22 24 27 29 31 30 32 36 40 44 48 52 56 59 62 66 69 72 74 75 78 79 79 76 73 72 73 73 69 65 60 56 56 59 61 63 63 62 61 59 56 52 49 45 42 40 38 37 38
25 26 28 31 33 35 37 40 43 46 49 52 56 59 63 67 70 72 74 76 78 79 77 74 72 72 73 71 68 64 59 58 59 62 65 67 67 67 65 62 57 53 49 46 42 39 37 35 35
27 29 31 33 37 40 41 42 44 47 49 53 56 60 64 68 70 72 74 76 77 77 76 72 71 72 72 70 68 64 60 60 62 65 68 70 71 71 68 62 56 50 47 44 41 38 35 33 33
29 30 32 34 37 41 44 43 45 46 49 53 57 61 65 68 70 72 74 75 77 76 73 70 70 71 71 69 67 63 61 62 65 68 71 73 74 72 66 58 49 41 38 37 37 36 34 31 30
29 31 33 36 38 40 43 44 45 46 49 53 57 61 65 68 71 72 74 75 75 73 71 69 70 71 69 68 66 64 63 64 66 69 73 75 74 70 60 49 37 27 22 24 28 30 30 29 28

GEFSSGP_500_meanwind_030.txt.gz
Wind_Speed
3 2 2 2 1 1 1 3 4 3 2 2 4 5 5 6 6 6 7 9 10 11 11 12 13 15 17 19 21 23 24 26 28 30 31 32 33 33 34 34 35 37 38 40 42 44 46 48 49
6 6 6 5 4 4 4 4 4 5 6 7 7 8 8 9 10 10 10 11 11 12 14 16 18 20 22 24 26 28 30 32 34 36 38 39 40 41 41 41 42 42 42 42 43 44 45 47 49
12 11 10 10 10 10 9 9 10 9 9 10 10 10 10 10 10 10 11 12 14 16 19 21 24 26 28 30 33 35 37 39 40 42 44 46 47 48 49 49 50 50 49 49 48 48 47 48 48
15 14 14 13 13 12 12 12 12 12 12 11 10 9 10 10 11 12 14 16 19 21 24 27 29 32 34 36 38 41 43 45 47 49 50 52 54 55 56 57 58 58 57 57 56 55 54 53 52
14 14 14 13 14 14 14 14 14 13 12 10 9 9 10 13 14 16 19 21 24 27 29 32 35 37 40 42 44 47 49 51 53 55 57 59 61 63 64 65 66 66 66 65 64 63 62 61 59
15 15 16 16 16 16 15 13 11 9 8 8 10 11 13 16 18 21 24 26 29 32 34 37 39 42 44 47 49 52 54 57 59 62 64 66 68 70 72 73 74 74 74 74 72 71 69 68 66
17 17 17 16 15 13 11 10 8 8 8 10 12 14 16 19 22 25 28 31 33 36 38 40 43 45 48 51 54 56 59 62 65 68 70 73 75 77 78 79 80 81 81 81 80 79 77 75 72
16 15 15 13 11 10 9 8 9 9 10 13 15 17 20 23 26 29 31 33 36 38 41 44 46 49 52 55 59 62 64 67 70 72 75 77 79 80 82 83 84 84 85 85 84 83 82 80 78
12 11 10 9 8 8 9 9 11 13 14 16 18 21 24 26 29 30 33 35 38 41 44 47 50 53 56 59 62 65 68 71 74 76 77 79 80 82 83 85 86 87 88 88 89 88 87 86 84
8 7 6 6 6 7 10 12 14 16 17 19 22 24 26 28 30 32 35 38 41 44 47 50 53 56 59 62 65 68 71 74 76 78 79 81 83 85 87 88 90 92 93 94 95 95 94 93 91
4 4 5 7 8 10 12 14 16 18 20 22 24 26 28 30 32 35 37 41 44 47 50 53 56 59 62 65 68 71 74 76 79 81 82 84 86 88 91 92 93 94 95 96 98 99 99 99 98
5 7 9 11 12 13 15 16 18 20 22 24 26 28 30 32 34 37 40 44 47 50 53 56 59 63 66 69 72 74 77 79 81 84 86 88 90 92 93 94 93 91 91 91 91 92 94 97 99
9 11 13 14 15 16 18 18 20 22 24 26 28 30 32 35 37 40 43 46 49 53 56 59 62 66 69 72 75 78 81 83 86 89 91 93 93 93 91 89 87 85 84 83 82 83 84 86 89
13 14 15 16 17 18 19 20 22 23 25 27 29 31 34 36 38 41 44 48 51 55 58 61 65 68 71 75 78 81 85 87 90 93 93 93 91 89 86 84 82 80 78 77 75 75 75 77 79
16 16 17 17 17 18 19 21 22 24 26 27 29 32 34 37 40 44 47 50 53 56 60 63 67 71 75 78 82 85 88 90 92 93 92 90 87 84 82 80 77 74 71 69 67 66 67 68 71
17 17 17 17 17 19 20 21 23 24 25 27 30 32 35 39 43 46 50 52 55 58 62 66 70 74 77 81 85 88 90 92 92 90 88 85 83 81 78 74 70 66 62 59 57 55 56 58 62
17 17 17 18 18 20 21 22 23 24 26 28 31 34 37 42 45 49 52 54 57 60 64 68 72 77 80 83 87 89 91 91 88 86 84 82 80 77 73 68 63 58 54 52 50 49 49 49 53
18 18 18 19 19 20 21 23 24 25 27 29 32 36 40 44 47 50 53 56 59 63 67 71 75 79 82 85 87 89 89 87 85 83 82 81 78 73 68 62 58 54 52 51 51 50 49 48 48
17 17 18 18 19 19 20 23 25 26 28 31 35 38 42 46 49 52 54 57 61 66 70 74 77 80 83 85 87 88 86 84 82 81 80 78 74 69 64 60 57 56 55 55 55 54 52 51 50
15 16 17 18 19 20 21 23 26 27 30 34 37 41 44 47 50 53 56 59 64 68 72 76 79 81 84 86 88 87 84 82 81 80 78 74 70 65 62 60 60 60 60 60 60 60 57 54 53
15 16 18 19 20 22 23 23 27 29 33 36 39 42 45 48 51 54 57 61 65 70 73 77 79 82 85 87 87 84 81 80 79 77 74 70 66 64 63 63 64 65 66 66 66 65 62 58 56
16 17 19 21 22 24 26 25 29 31 35 38 41 43 46 49 52 55 59 63 67 71 74 77 80 83 86 87 85 82 80 79 78 76 72 67 65 65 66 67 69 70 71 71 70 68 66 62 58
17 19 21 22 23 25 27 28 31 34 36 39 42 44 47 50 53 56 60 64 68 72 75 77 81 83 85 85 83 80 79 79 77 74 69 66 65 67 69 71 73 73 72 71 69 67 65 63 59
19 20 21 23 24 26 29 31 33 35 37 39 42 45 48 51 54 57 61 65 69 72 75 78 81 83 84 82 80 79 78 77 75 72 68 66 67 69 72 73 72 68 64 61 60 59 58 58 56
22 23 24 25 26 28 30 31 34 35 37 41 44 47 49 52 55 58 62 66 70 73 75 78 80 82 82 80 79 78 77 76 74 71 69 69 70 73 75 72 67 60 54 47 43 42 45 47 48
24 26 29 30 30 29 30 31 33 36 39 42 45 47 49 52 55 59 62 66 70 73 75 78 80 81 81 79 77 76 75 74 72 71 70 72 74 77 75 69 63 56 48 40 32 27 28 32 37
24 27 29 31 32 33 33 35 37 40 41 43 46 48 50 53 56 59 63 67 70 73 75 77 79 80 79 77 75 74 73 72 71 71 71 73 76 78 72 65 58 50 45 37 28 18 13 18 26
26 28 31 34 37 38 38 39 42 42 43 44 46 48 51 53 56 60 64 67 70 73 75 77 79 79 77 75 73 72 71 70 71 71 72 74 77 77 69 61 54 47 42 36 28 18 6 7 16
26 28 31 33 36 40 42 42 44 45 46 46 48 49 51 53 56 60 64 67 70 72 74 76 78 77 75 73 71 70 69 69 70 71 72 74 76 75 67 59 51 44 39 34 29 21 10 1 8
25 28 31 34 36 39 42 44 47 48 49 49 49 50 52 54 57 60 64 67 70 72 74 75 76 75 73 71 69 68 67 68 69 70 71 73 75 75 67 57 49 41 35 31 26 20 13 4 3

GEFSSGP_500_meanwind_036.txt.gz
Wind_Speed
8 8 8 7 6 5 5 4 4 4 4 4 4 4 4 4 4 3 3 4 5 8 10 12 15 17 19 21 23 25 26 28 30 31 33 34 35 36 37 38 39 40 41 41 42 42 42 42 42
13 13 12 11 10 9 8 8 8 8 7 6 6 5 5 4 4 5 6 8 10 13 15 17 19 21 24 26 28 29 31 33 34 35 37 38 40 41 42 43 44 45 46 47 47 48 48 48 48
16 15 14 13 13 12 11 10 10 9 9 7 6 5 4 4 6 8 11 13 15 17 19 21 23 25 27 29 31 32 34 36 37 39 40 42 44 45 46 48 49 50 51 52 53 53 54 54 54
17 16 15 14 13 12 12 11 10 9 8 6 4 4 5 8 10 12 15 17 19 21 23 24 26 28 30 32 34 36 38 40 41 43 45 47 48 50 51 53 54 55 56 57 58 59 59 60 60
17 16 15 15 14 13 12 11 9 7 5 4 5 6 8 12 14 16 19 20 22 23 25 27 29 31 33 36 38 40 42 45 47 49 51 52 54 56 57 59 60 61 62 63 64 65 65 65 65
17 16 15 14 12 11 9 8 6 4 5 7 9 11 13 15 17 19 21 22 24 25 27 29 32 35 37 40 42 45 47 49 51 53 55 57 59 61 63 64 66 67 68 69 70 71 71 71 71
15 14 12 11 9 8 6 5 5 7 8 11 13 14 16 18 20 21 23 24 25 27 29 32 35 38 41 44 46 49 51 53 55 57 59 61 64 66 68 69 71 73 74 75 76 77 77 77 77
11 10 8 6 5 4 5 6 8 10 12 13 15 16 18 19 21 22 23 25 27 30 33 36 39 42 45 48 51 53 55 57 59 61 64 66 68 71 73 75 77 79 80 82 83 83 83 83 84
6 4 3 4 5 6 8 10 11 13 14 15 16 18 19 20 22 23 25 27 30 34 37 41 44 47 50 53 55 56 58 61 63 66 68 71 74 76 78 81 83 85 87 88 89 90 90 90 90
2 3 5 7 9 10 11 12 14 15 16 17 18 19 20 22 23 26 28 31 34 38 41 45 48 51 53 55 57 59 62 65 67 70 73 76 79 82 84 87 90 92 93 94 95 96 96 95 95
6 7 9 11 12 13 14 15 15 16 17 18 19 21 22 24 26 28 31 34 38 41 45 48 50 53 55 57 59 62 65 68 71 74 77 80 84 87 91 94 96 97 98 98 98 98 98 98 97
10 11 13 14 15 15 16 16 16 17 18 20 21 22 24 26 29 31 34 38 41 44 47 50 52 54 56 59 62 65 68 72 75 78 82 86 90 94 98 100 101 101 100 99 97 96 95 94 94
12 13 14 15 16 16 16 17 17 18 19 21 23 24 26 29 31 34 37 41 44 46 49 51 54 56 58 61 65 68 72 75 78 82 86 91 95 99 102 102 101 100 97 95 93 91 89 88 88
13 14 14 15 15 16 16 17 18 19 21 22 25 26 29 31 34 37 40 43 46 48 50 52 54 57 60 64 67 71 74 77 81 86 91 95 99 100 100 98 95 92 89 87 86 85 84 83 83
13 13 14 14 15 15 16 17 19 21 22 24 26 28 30 33 36 38 41 44 46 48 50 53 55 59 62 66 70 73 76 80 85 90 94 97 98 97 94 90 87 85 84 83 82 81 80 78 77
13 13 13 14 14 15 17 18 20 22 24 26 28 30 32 35 37 40 42 44 46 49 51 53 57 61 65 68 72 74 78 83 87 92 94 95 94 90 87 84 82 82 81 80 78 75 73 71 70
12 13 13 14 15 17 19 20 21 24 26 28 29 32 34 36 38 40 42 44 46 49 51 55 59 63 67 70 73 76 80 85 89 92 93 91 87 84 81 80 80 80 77 75 73 72 70 69 67
12 13 14 15 17 18 20 22 23 25 27 28 30 32 34 36 38 40 42 45 47 50 53 56 61 65 68 71 74 78 82 86 90 91 89 85 82 80 78 79 78 76 74 74 74 75 74 73 71
12 13 15 16 18 19 20 23 24 25 27 28 30 31 34 36 39 41 43 45 48 51 54 58 62 66 68 71 75 79 83 87 89 88 85 81 79 77 77 76 75 73 75 77 78 76 74 73 73
13 14 15 16 18 19 20 22 24 25 26 28 29 31 34 37 39 42 44 47 49 52 56 60 64 67 69 72 76 80 83 86 87 84 81 78 77 76 75 74 73 75 78 76 71 68 65 63 65
13 14 15 16 17 19 20 21 23 24 26 27 29 32 35 38 40 43 45 48 50 53 57 61 64 67 69 73 77 80 84 86 84 80 77 76 75 75 74 74 74 77 77 71 65 61 58 55 53
12 14 15 17 18 19 20 21 24 25 27 29 31 33 36 39 41 43 46 49 52 54 58 61 65 67 70 73 77 81 83 83 81 77 75 74 74 73 73 73 75 77 73 66 61 58 54 49 43
12 14 15 17 18 19 21 23 25 27 29 31 33 36 38 40 42 44 47 50 52 55 58 62 65 68 71 74 77 81 82 81 78 75 73 73 72 72 72 73 75 74 68 61 57 53 48 43 36
11 13 14 17 19 20 22 24 27 29 31 34 37 39 41 42 44 46 48 51 53 56 59 63 66 68 71 74 78 80 81 79 75 73 72 71 70 70 71 72 73 70 63 57 52 48 44 39 32
9 12 14 17 19 21 23 26 28 31 33 37 40 43 44 46 46 48 49 52 54 57 60 63 66 68 71 75 78 80 79 77 73 71 70 70 68 68 69 71 71 67 60 52 47 42 39 35 30
8 11 14 17 19 20 24 27 30 32 36 39 42 45 48 49 50 50 51 53 55 58 61 64 66 69 71 75 77 79 78 75 72 70 69 69 68 68 68 70 70 65 57 48 42 36 33 30 26
8 11 14 16 18 21 25 27 31 34 38 41 44 47 50 53 53 53 54 55 57 59 62 65 67 69 71 74 77 78 76 73 71 69 69 68 67 67 68 70 70 65 55 46 39 32 28 24 21
8 11 14 17 21 23 26 29 32 35 38 42 45 49 52 55 57 57 57 57 58 60 62 65 67 69 71 74 76 77 75 72 69 68 67 67 66 66 67 69 69 66 56 45 37 30 25 21 17
10 12 15 18 22 26 28 31 33 35 39 42 46 50 53 57 59 61 60 60 60 61 63 65 67 68 71 74 76 76 74 71 68 67 66 66 65 65 66 68 69 67 58 47 37 30 25 20 16
11 14 16 19 22 24 27 31 34 36 40 43 46 50 54 58 61 63 63 62 61 62 63 65 67 68 71 73 75 75 73 70 68 66 65 65 64 65 66 67 68 68 60 49 39 32 26 21 16

GEFSSGP_500_meanwind_042.txt.gz
Wind_Speed
6 7 7 7 5 3 2 1 2 3 4 5 6 6 7 8 8 7 8 8 9 11 12 14 16 18 19 21 23 25 26 28 30 32 33 35 36 38 39 40 41 42 43 44 45 46 46 46 46
9 9 9 9 8 7 5 5 5 6 6 5 5 5 6 7 8 8 9 11 12 14 15 17 18 20 21 23 25 27 29 31 32 34 36 38 39 41 42 44 45 46 47 48 49 49 50 51 51
13 13 11 10 10 10 8 7 6 6 6 5 4 5 6 7 9 10 12 13 15 16 18 19 20 22 23 25 27 30 32 34 36 38 39 41 43 44 46 47 49 50 51 52 53 54 54 55 55
14 13 12 11 11 10 9 7 6 6 5 5 5 6 8 9 11 13 14 16 17 18 20 21 22 24 26 28 31 33 35 37 39 41 43 44 46 48 49 51 52 53 55 56 57 58 59 59 60
13 12 12 11 10 9 7 6 5 4 4 5 6 9 11 12 14 15 17 18 19 20 21 23 25 27 29 31 34 36 38 40 42 44 45 47 48 50 52 54 55 57 59 60 62 63 64 64 65
11 10 11 10 7 6 5 4 4 4 6 8 9 11 13 15 16 17 18 19 20 22 24 26 28 30 33 35 37 39 41 42 44 46 47 49 51 53 55 58 60 62 64 66 67 68 70 70 71
9 7 7 6 4 3 4 6 7 8 10 11 12 13 15 16 17 18 20 21 23 25 27 29 31 33 35 37 39 41 43 44 46 48 50 53 56 59 61 64 66 68 70 71 73 74 76 77 77
5 4 4 4 4 5 8 9 11 12 13 14 15 15 17 18 19 20 22 23 25 28 30 32 34 36 38 39 41 42 44 46 49 52 55 58 61 64 67 70 72 75 77 79 81 82 84 85 86
3 5 6 7 8 10 12 13 14 15 15 16 17 17 18 20 21 22 24 26 28 30 33 35 37 38 40 41 43 45 47 49 52 55 59 62 65 68 71 74 76 79 83 86 89 92 94 96 97
7 9 10 12 13 14 14 15 16 16 16 17 17 18 19 21 22 24 26 28 30 32 35 36 38 40 41 43 45 47 50 53 55 59 62 65 68 71 73 76 80 84 88 92 97 102 105 108 109
11 13 14 15 15 15 15 15 16 15 15 16 18 19 21 22 24 26 28 30 33 34 36 38 39 42 44 46 48 50 52 55 59 62 65 68 71 73 76 79 83 88 94 99 105 109 113 115 116
13 14 14 15 15 14 14 14 14 15 15 17 18 20 21 23 25 28 30 32 33 36 37 39 41 44 46 48 50 52 55 58 62 65 68 70 73 76 79 84 90 96 101 106 110 111 110 109 108
12 12 12 12 13 12 13 13 13 14 15 17 18 20 22 24 26 29 31 33 35 37 39 41 43 45 47 50 52 55 58 61 64 67 70 72 75 78 83 89 95 101 106 108 106 102 97 93 90
11 11 11 11 11 11 11 12 13 14 15 17 19 20 22 25 27 29 32 34 36 38 41 43 45 47 49 52 54 57 60 63 66 68 71 73 77 82 88 94 100 103 103 99 93 88 85 83 82
10 10 10 10 10 10 11 12 13 13 15 17 19 21 23 25 27 30 32 35 37 40 42 44 46 48 51 53 55 58 61 64 67 69 72 76 81 86 93 98 100 99 93 87 84 81 80 80 81
9 9 9 9 10 11 11 10 12 13 15 17 19 21 23 26 28 31 33 36 39 41 43 45 47 49 51 54 56 59 62 65 67 70 74 78 84 90 96 98 96 91 85 82 80 79 79 79 80
8 8 8 9 10 11 11 11 12 14 16 18 20 22 24 26 29 32 34 37 40 42 44 46 48 50 52 54 57 59 63 65 68 72 76 81 87 93 96 95 90 84 81 78 77 77 77 78 79
8 9 9 9 10 10 11 12 13 15 17 19 21 23 25 27 30 33 35 38 40 43 45 47 49 50 52 55 58 60 63 66 69 73 78 84 90 94 94 90 84 80 77 76 75 74 75 77 76
8 8 9 9 9 11 12 13 15 16 18 20 22 24 27 29 31 34 37 39 42 44 47 49 50 51 53 55 58 61 64 67 71 75 80 86 91 93 90 85 80 77 75 74 73 74 75 73 70
7 7 7 8 9 11 12 13 15 17 19 21 24 26 28 31 33 35 39 42 44 47 49 51 52 53 54 56 59 62 65 68 72 77 82 87 91 90 86 81 77 75 73 72 72 74 74 69 65
6 6 7 7 8 10 11 13 15 17 19 22 25 28 30 33 36 38 41 44 47 49 52 54 55 55 56 58 60 63 66 69 73 78 84 88 89 87 83 78 75 73 71 71 72 74 72 66 59
6 6 6 7 8 8 10 11 14 16 19 22 25 28 31 34 37 40 43 46 48 51 55 57 58 59 59 60 62 64 68 70 74 79 84 87 87 84 80 75 73 72 71 71 72 73 69 64 57
6 6 6 7 8 9 11 12 14 17 19 22 25 28 32 35 38 42 45 47 50 53 56 60 62 62 62 62 64 66 69 72 75 80 84 86 85 81 77 73 72 71 70 70 71 71 66 60 55
9 8 8 8 9 10 12 14 16 18 21 23 26 29 32 35 39 43 46 49 52 55 58 61 64 66 65 65 66 68 70 72 76 80 84 85 83 78 74 72 71 70 70 70 70 70 65 58 51
11 11 10 11 12 12 14 15 17 20 22 25 27 30 32 36 40 43 47 50 53 56 59 62 66 68 69 68 68 69 71 73 77 80 83 83 81 76 72 70 70 69 69 69 69 69 63 57 50
13 13 13 14 14 15 16 17 18 20 22 25 28 31 34 37 40 44 47 51 54 57 60 63 67 70 71 71 70 71 72 74 77 80 82 82 80 75 71 69 69 69 69 68 69 68 62 56 48
16 16 16 17 17 17 18 19 19 21 24 26 29 31 34 37 40 44 48 52 55 58 61 64 67 71 73 73 72 72 73 75 77 80 81 81 78 74 70 69 68 68 68 68 68 67 62 55 48
19 19 19 19 20 21 21 22 24 24 27 30 32 34 36 39 42 45 49 53 56 59 62 65 67 71 74 75 74 73 74 75 77 80 80 80 77 73 70 68 68 68 68 67 68 67 61 54 47
22 21 22 23 24 25 25 24 26 27 29 32 35 37 40 42 45 47 50 53 57 60 62 65 68 71 74 76 75 75 74 75 77 79 80 79 76 73 69 68 67 67 67 67 67 66 60 53 47
25 24 25 26 26 27 29 26 28 30 31 33 35 38 41 44 46 48 51 54 57 60 63 65 68 71 74 76 77 76 75 75 77 78 79 78 75 72 69 67 67 66 66 66 66 64 59 53 47

GEFSSGP_500_meanwind_048.txt.gz
Wind_Speed
5 4 4 4 5 6 7 9 10 11 11 11 10 9 8 7 6 5 5 7 8 9 10 11 12 13 14 15 17 18 20 22 24 26 27 28 29 31 32 33 34 35 35 36 37 38 39 40 41
8 8 9 8 9 10 10 11 11 11 10 9 8 7 6 5 5 6 8 9 10 11 12 13 14 15 16 18 20 22 24 26 27 28 30 31 32 33 34 34 35 36 37 38 39 40 41 42 43
13 13 13 12 12 11 11 11 10 9 7 6 5 5 5 6 7 8 10 11 12 13 14 15 16 18 19 22 23 25 27 28 30 31 32 33 34 34 35 36 37 38 39 40 41 42 43 45 46
14 14 13 13 11 11 10 8 7 6 5 4 5 6 7 8 9 10 12 13 13 14 15 17 19 20 22 24 26 28 29 31 32 33 33 34 34 35 36 37 39 40 42 43 45 46 47 49 50
12 12 11 9 8 8 7 5 4 4 4 5 6 7 9 10 11 13 14 15 15 16 18 20 21 23 25 27 28 30 31 32 32 33 33 35 36 37 38 40 41 43 45 47 49 50 52 53 55
10 8 7 5 5 5 4 4 4 5 6 8 9 10 10 11 13 14 16 17 18 19 20 22 24 26 27 29 30 31 32 32 33 34 35 37 38 39 41 43 45 47 49 51 53 55 57 59 61
6 5 3 3 4 5 5 6 8 8 9 10 12 13 12 13 14 15 17 18 19 21 23 24 26 28 29 30 31 32 33 34 35 36 37 39 41 42 44 46 48 50 53 56 58 60 62 65 67
3 3 4 6 7 8 9 10 11 12 11 12 14 14 13 14 15 16 17 19 20 22 24 25 26 28 29 30 31 33 34 36 37 38 40 41 43 45 46 49 51 54 57 60 63 65 68 72 75
7 7 9 10 11 12 12 12 12 13 12 13 14 14 14 14 15 17 18 19 21 22 23 25 26 27 29 31 32 34 36 38 39 41 42 44 45 47 49 52 54 57 60 64 67 70 74 78 82
11 12 12 13 14 14 13 12 12 12 11 11 12 13 14 14 15 16 18 19 20 22 23 24 26 28 30 32 34 36 38 40 41 43 45 46 48 49 52 54 57 60 63 67 71 75 79 83 88
13 12 12 12 12 12 11 10 10 10 10 11 12 12 13 14 14 16 17 18 20 21 23 25 27 28 30 33 35 37 39 41 43 45 47 48 50 52 54 57 60 63 66 70 74 78 83 88 94
12 11 10 10 9 10 10 9 9 9 10 11 12 11 12 13 14 15 16 17 19 21 23 25 27 29 31 34 36 38 41 43 44 46 48 49 51 53 56 58 61 65 68 72 76 81 87 93 99
11 10 9 8 8 8 8 9 9 10 11 11 12 12 12 12 13 14 15 17 19 21 23 25 27 30 32 34 36 39 41 43 44 46 48 50 52 54 57 59 63 66 70 74 79 85 91 96 101
10 9 8 7 7 8 8 9 9 9 9 9 10 11 11 12 12 14 15 17 20 22 24 26 28 30 32 34 37 39 41 43 45 47 48 50 52 54 57 60 64 67 71 76 82 88 94 98 99
8 8 7 7 7 8 9 8 7 7 7 7 8 9 10 11 13 15 17 19 21 23 25 27 29 31 33 35 37 40 42 44 46 47 49 51 53 55 58 61 65 69 74 79 85 91 94 95 94
8 7 7 7 7 7 8 7 6 6 6 6 7 8 10 12 14 16 18 20 23 25 27 29 31 32 34 36 38 41 43 46 48 49 51 52 54 56 59 63 67 71 76 82 88 92 93 91 88
8 8 8 7 7 7 7 6 6 5 5 6 7 9 10 12 14 16 18 21 23 26 28 30 33 34 36 38 40 42 45 48 50 52 53 54 56 58 61 64 68 73 79 85 89 91 90 87 84
8 8 8 9 8 7 6 6 6 5 6 7 8 9 10 12 13 16 18 20 23 26 29 32 34 36 38 39 42 44 47 50 53 55 56 57 58 60 62 66 70 75 81 86 89 88 86 83 80
10 9 9 9 8 8 7 7 6 6 7 8 9 10 11 12 14 16 18 21 24 27 30 33 35 38 40 42 44 46 49 52 55 58 60 60 61 62 64 68 72 78 83 86 87 86 83 79 78
12 11 10 10 9 9 9 9 9 9 9 10 11 11 12 13 15 17 20 22 25 28 31 34 37 39 42 44 46 48 51 54 57 60 62 63 64 64 66 70 74 79 84 86 85 83 80 77 76
14 13 13 12 12 12 12 12 12 12 12 13 14 14 14 15 17 19 22 24 27 30 32 35 38 41 44 46 48 50 53 56 59 62 64 66 66 67 69 72 76 81 84 84 83 80 78 75 73
16 16 15 15 15 15 15 15 15 15 16 16 17 18 18 18 20 22 24 27 29 31 34 37 40 43 46 48 50 52 55 57 60 63 66 68 69 69 70 74 77 81 83 83 80 78 76 75 73
18 19 18 18 19 19 19 19 17 18 19 20 21 22 22 22 23 25 28 30 32 34 36 38 41 44 47 50 52 54 56 58 61 65 67 69 70 71 72 75 78 81 82 80 78 75 74 74 73
21 22 22 22 23 22 21 23 19 21 22 23 24 25 26 27 27 29 31 33 35 37 39 41 43 45 48 51 53 56 58 60 62 65 68 70 72 73 74 76 78 80 80 78 75 73 72 72 72
23 25 26 26 26 25 25 26 22 24 25 26 26 28 29 30 31 32 34 36 38 40 42 43 45 47 49 51 54 57 59 61 63 66 69 71 73 74 75 76 78 79 78 76 74 71 71 70 70
25 27 29 31 30 29 29 29 25 26 28 28 29 31 32 33 34 35 36 38 40 42 44 45 47 48 50 52 55 57 60 62 64 67 70 72 73 74 75 76 78 78 77 75 72 70 69 69 69
27 29 31 34 35 35 34 32 28 28 30 31 32 34 35 35 36 37 38 40 42 44 46 47 49 50 51 53 55 58 60 63 65 68 71 73 74 75 75 76 77 77 75 73 70 69 68 68 67
30 31 33 36 39 39 38 35 31 30 32 34 35 36 37 38 39 39 40 42 43 45 47 49 50 51 52 54 55 58 61 63 66 69 71 73 74 75 76 76 76 76 74 72 69 67 66 66 65
30 32 34 37 41 43 44 38 32 33 36 37 38 40 40 40 41 42 43 44 45 47 49 51 52 53 54 55 56 58 61 64 66 69 72 74 74 75 75 75 75 75 73 71 68 66 65 64 63
31 32 35 39 41 45 48 42 32 35 38 40 42 43 43 42 42 43 44 46 47 49 50 52 53 54 55 55 56 58 61 64 67 69 72 74 74 75 75 75 75 74 72 70 67 65 64 63 61

GEFSSGP_500_meanwind_054.txt.gz
Wind_Speed
7 6 5 4 4 4 5 6 6 6 6 5 5 5 4 3 2 1 2 3 4 5 7 8 9 10 12 13 15 17 19 20 21 22 23 23 24 24 24 24 24 25 25 25 26 26 26 27 27
11 10 9 8 8 8 8 8 8 7 6 4 3 2 1 2 2 3 4 5 6 8 9 11 12 13 15 17 18 20 21 22 23 24 24 24 24 25 25 25 25 25 26 26 27 28 28 29 29
13 11 11 10 10 9 8 8 7 5 4 2 1 1 2 3 4 5 6 8 9 11 12 13 15 16 18 20 21 22 23 24 24 24 25 25 25 26 26 26 27 28 28 28 29 30 31 31 32
11 10 10 9 8 7 6 5 4 2 1 2 3 4 5 6 7 8 9 11 12 13 14 16 17 19 20 21 23 23 24 24 24 25 25 26 27 27 28 29 30 30 31 32 32 33 33 34 35
9 8 7 6 5 4 4 3 3 3 4 5 6 7 8 9 10 11 12 13 14 15 16 18 19 20 21 22 23 23 24 24 24 25 26 27 28 29 30 31 32 33 34 34 35 36 37 38 39
5 4 4 3 3 4 5 6 7 8 8 9 10 10 11 12 12 12 13 14 15 16 17 18 19 20 21 21 22 23 23 24 25 26 27 28 29 30 31 32 34 35 36 37 38 39 40 41 42
3 5 5 6 7 8 9 10 11 11 12 12 12 12 13 13 13 14 14 15 16 16 17 18 19 20 20 21 22 22 23 24 25 26 27 29 30 31 32 34 35 36 37 38 40 41 43 44 45
7 8 10 11 12 12 13 13 14 14 14 13 13 13 13 14 14 14 15 15 15 16 17 18 18 19 20 20 21 22 23 24 25 27 28 29 30 31 33 34 35 36 38 39 41 43 44 46 47
11 12 13 14 15 15 15 15 15 15 15 14 13 13 13 14 14 14 14 15 15 16 16 17 18 19 20 20 21 22 24 25 26 27 28 29 30 31 32 33 35 37 38 40 42 43 45 47 49
13 14 15 15 15 15 15 15 15 15 14 14 13 13 13 14 14 14 14 14 14 15 15 17 18 18 20 21 22 24 25 26 27 28 28 30 31 32 33 34 36 38 39 41 43 44 46 49 51
15 15 15 15 15 14 15 15 15 14 14 14 13 13 13 13 13 13 13 13 13 14 15 16 17 19 21 22 23 25 26 27 29 29 30 31 32 34 35 36 38 39 41 43 45 46 48 50 52
15 14 14 15 15 14 14 14 14 14 14 13 13 13 12 12 12 12 12 12 13 14 15 16 18 20 21 23 24 26 28 29 30 31 32 34 35 36 37 38 40 41 43 45 47 48 50 52 54
14 14 14 14 14 14 13 13 13 14 13 13 13 12 12 12 11 11 12 12 13 14 15 17 18 20 22 24 26 27 29 31 33 34 35 36 37 38 39 40 42 43 45 47 49 50 52 53 56
14 14 14 14 14 14 13 12 12 13 12 12 12 11 11 11 11 11 12 12 13 14 16 17 19 21 23 25 27 28 30 32 34 36 37 38 39 40 42 43 44 45 47 49 51 53 54 56 57
15 15 14 14 14 14 13 12 12 12 11 11 11 11 10 11 11 12 12 13 14 16 17 18 20 21 23 25 27 29 31 33 35 37 38 39 41 42 44 45 46 47 49 51 54 55 57 58 60
16 15 15 15 15 14 13 12 12 12 12 11 11 11 11 12 13 13 14 15 16 18 19 20 22 23 25 26 28 30 32 35 37 38 40 41 42 43 45 46 48 49 51 53 56 58 60 61 62
17 17 17 17 16 15 14 13 14 13 13 13 13 13 13 14 15 15 16 18 19 20 22 23 25 26 27 28 30 32 34 36 38 40 42 43 44 45 47 48 49 51 53 55 58 60 62 64 65
18 18 18 19 18 17 16 15 16 15 14 15 15 15 16 17 17 18 19 21 22 24 25 26 27 28 29 31 32 34 36 38 40 42 43 44 46 47 48 50 51 53 55 57 60 62 64 66 68
21 20 20 21 21 20 18 17 18 19 17 17 18 18 19 20 21 21 22 24 25 27 28 29 30 31 32 33 35 36 38 40 42 44 45 47 48 49 50 51 53 55 57 59 61 64 66 69 70
22 22 22 23 24 23 22 20 21 21 20 20 20 21 22 22 23 24 25 27 28 30 31 32 34 35 36 36 38 39 41 42 44 46 47 49 50 51 52 53 55 56 58 61 63 66 68 71 73
24 25 25 25 26 26 26 22 22 24 23 22 23 23 24 25 26 27 28 29 31 32 34 35 36 37 38 39 40 41 43 45 47 48 49 51 52 53 54 55 56 58 60 63 65 67 70 72 75
25 26 27 28 28 28 29 27 19 26 24 23 24 25 26 27 28 29 31 32 34 35 37 38 39 40 41 42 43 44 46 47 49 50 52 53 54 55 56 57 58 60 62 65 67 70 72 74 77
27 28 29 29 30 30 29 32 22 25 25 25 27 28 28 30 30 32 33 35 36 38 39 41 42 42 44 45 46 47 48 49 51 52 54 54 56 57 57 58 60 62 64 66 69 72 74 76 78
29 30 31 31 32 31 30 33 29 25 27 28 29 30 31 32 33 34 36 37 39 41 42 43 44 45 46 47 48 49 50 52 53 54 56 56 57 58 59 60 62 64 66 68 71 73 75 77 79
30 32 34 35 33 33 32 33 29 27 28 30 31 32 34 35 36 37 39 40 42 43 44 46 47 47 48 49 50 51 52 53 54 56 57 57 58 59 60 62 63 65 67 70 72 74 76 78 79
30 32 35 38 38 36 34 34 29 28 29 31 33 34 36 37 39 40 42 44 45 46 47 48 49 50 50 51 52 53 54 55 56 58 59 59 60 61 62 63 64 66 68 71 73 75 77 78 79
32 32 34 39 41 40 37 35 31 28 27 29 32 35 37 40 42 44 46 48 49 49 49 51 51 52 53 53 54 55 55 57 58 59 60 60 61 62 64 65 66 67 70 72 74 75 77 78 78
34 35 36 38 43 44 41 36 32 30 30 30 32 36 39 42 45 48 50 52 52 52 52 53 53 53 54 55 56 56 57 59 60 60 60 61 62 64 65 67 68 69 71 73 74 75 75 77 77
34 35 37 39 42 45 47 41 35 36 34 35 36 39 43 46 48 50 53 54 55 54 54 54 54 55 56 57 57 58 59 60 61 61 61 63 64 65 66 67 69 69 71 73 74 74 74 75 75
36 37 38 40 43 45 49 47 38 38 39 40 41 42 44 47 50 52 53 54 55 55 55 55 55 56 57 58 59 59 60 61 62 62 63 65 66 67 68 68 69 70 70 72 73 73 73 74 73

GEFSSGP_500_meanwind_060.txt.gz
Wind_Speed
11 10 9 8 7 7 6 6 6 6 6 6 5 5 4 2 1 1 2 2 3 4 5 5 6 7 8 10 11 12 14 15 16 17 18 18 18 18 19 19 19 19 19 19 19 19 19 20 20
15 14 12 12 11 10 9 8 8 7 6 6 5 4 2 1 1 2 3 4 5 6 7 8 8 9 11 12 13 14 15 16 16 17 17 17 18 18 19 19 20 20 20 21 22 22 22 23 23
15 14 13 12 11 10 9 8 7 6 5 3 2 1 1 2 3 5 6 7 8 9 10 10 11 12 12 13 14 14 15 16 16 16 16 17 17 18 19 19 20 21 22 22 23 24 24 25 26
12 11 10 9 8 7 6 5 4 2 1 1 2 3 4 5 7 8 9 10 10 11 11 12 12 13 13 13 14 14 15 15 15 16 16 17 17 18 18 19 20 21 22 23 24 25 26 27 28
8 7 6 5 4 2 1 0 1 2 3 5 6 8 8 9 10 10 11 11 12 12 12 12 12 13 13 13 13 14 14 14 15 15 16 16 17 18 19 19 20 21 22 23 24 25 26 27 28
4 3 2 2 2 3 4 5 6 7 7 8 9 11 11 12 12 12 12 13 13 13 12 12 12 12 12 13 13 13 14 14 15 15 16 17 18 19 19 20 21 21 22 23 24 24 25 26 28
3 5 5 6 7 8 9 9 10 10 11 11 11 12 13 13 13 13 13 13 13 12 12 12 12 12 12 12 12 13 14 15 16 17 18 18 19 20 21 21 22 23 23 24 24 25 26 26 27
6 8 9 10 11 11 12 12 12 12 13 13 13 13 14 13 13 13 13 13 12 12 11 11 11 11 11 12 12 13 14 16 17 18 19 20 21 22 23 24 25 25 26 26 27 28 28 29 29
9 10 11 12 12 13 13 13 12 13 13 13 13 13 13 13 13 13 13 12 12 11 11 10 10 10 11 11 12 14 15 16 18 19 20 21 22 24 25 26 27 28 29 30 30 31 31 32 32
11 11 13 13 13 13 13 13 12 13 14 13 13 13 13 13 13 12 12 12 11 10 10 10 10 10 11 12 13 14 16 17 19 20 21 22 24 25 27 28 29 30 31 32 33 33 34 35 35
12 12 13 13 12 12 12 12 12 13 14 13 13 13 13 13 12 12 11 11 11 10 10 10 10 10 11 12 14 15 17 18 19 21 22 23 25 26 27 29 30 31 32 33 34 35 36 37 38
12 13 13 13 13 12 12 12 12 14 13 12 13 13 13 13 12 11 11 11 11 11 11 11 11 12 12 14 15 16 17 19 20 22 23 24 25 27 28 30 31 33 34 35 36 37 38 39 40
13 13 14 14 13 13 12 12 13 15 12 12 14 13 13 12 12 12 12 12 12 12 12 13 13 14 15 16 17 18 20 21 23 24 25 26 27 28 30 31 33 35 36 37 38 39 40 41 42
14 14 15 15 15 14 13 13 15 15 13 14 15 14 14 14 14 13 13 13 13 14 14 15 16 17 18 19 20 22 23 24 25 27 28 29 30 31 32 34 36 37 38 39 40 41 42 43 44
16 16 17 17 16 15 13 14 18 15 16 16 16 15 15 16 15 15 15 15 16 16 17 18 18 19 21 22 23 25 26 28 29 30 31 33 34 35 36 37 39 40 41 42 43 44 45 45 46
18 18 18 19 19 17 16 14 21 17 17 17 18 17 17 17 18 18 18 19 19 20 20 21 22 23 24 25 27 28 30 31 32 33 35 36 37 38 39 40 41 43 44 46 47 47 48 48 48
20 20 20 22 21 19 18 14 21 23 20 18 19 20 19 20 20 22 22 22 22 23 24 24 25 27 28 29 30 31 33 34 35 36 38 39 39 40 41 43 44 45 47 49 50 51 51 51 51
22 22 21 24 23 22 20 16 19 25 24 21 21 22 22 22 23 25 24 25 26 26 27 28 29 30 31 32 33 34 36 37 38 40 41 41 42 43 44 46 47 48 50 52 53 53 53 53 53
24 24 24 25 25 24 21 19 20 25 26 24 23 24 24 25 27 27 27 28 29 29 30 31 32 33 34 35 36 37 38 40 41 43 44 45 45 46 47 48 49 51 52 54 55 55 55 56 56
26 26 26 26 26 26 22 18 22 25 26 26 26 27 27 27 29 30 30 31 31 32 33 35 35 37 37 39 40 40 42 43 44 46 47 48 49 49 49 51 52 53 55 57 57 57 57 57 58
26 28 27 27 26 25 24 16 20 24 26 28 28 28 29 30 32 33 33 34 34 35 37 38 39 40 41 42 43 43 45 45 47 48 50 51 52 52 53 53 55 55 57 58 59 59 59 59 59
25 27 28 28 27 25 25 21 20 23 25 28 29 30 31 33 34 36 36 37 37 39 41 41 42 43 44 46 46 47 48 49 50 52 53 54 55 55 55 56 57 58 58 60 60 60 60 60 60
26 27 28 28 27 26 26 24 22 24 24 27 30 31 32 34 36 38 39 40 41 42 43 44 46 47 48 49 50 51 51 52 53 54 55 56 57 58 58 59 60 60 60 61 62 62 62 61 61
27 28 29 29 29 27 26 26 24 25 26 27 29 31 33 34 36 38 40 42 43 45 46 48 49 50 51 52 53 53 54 55 56 57 57 58 59 59 60 62 62 62 61 62 63 63 63 62 62
28 30 32 33 31 30 29 28 25 29 31 31 32 32 33 34 36 37 39 41 43 46 47 49 50 51 53 54 54 55 57 58 59 59 60 60 60 60 61 63 63 62 62 63 64 65 64 64 64
29 31 33 36 36 34 31 30 27 30 33 34 36 36 36 36 36 37 38 40 42 44 46 48 50 52 53 54 55 56 57 59 60 61 61 61 61 61 62 62 63 64 64 65 65 65 65 65 65
31 31 34 37 39 39 37 34 30 31 35 38 40 40 39 38 38 39 40 41 43 44 46 47 49 51 52 54 55 56 58 59 60 60 61 62 63 63 63 63 63 65 65 66 66 66 66 66 66
33 34 37 39 42 45 44 40 35 36 38 40 42 42 41 41 41 42 43 43 44 45 46 47 49 50 52 53 55 55 57 58 60 61 62 62 63 63 64 64 65 66 66 66 67 67 66 66 65
34 36 38 40 43 46 49 47 40 41 42 46 48 47 45 44 44 44 44 44 45 46 47 48 49 51 52 53 54 55 57 59 60 61 61 62 63 64 65 65 66 66 66 66 67 66 65 64 64
37 38 40 42 45 47 50 50 42 43 47 51 51 50 49 48 48 47 47 47 47 48 48 49 49 50 51 52 52 53 55 56 57 59 60 62 63 64 65 66 66 65 65 65 66 65 64 64 64

GEFSSGP_500_meanwind_066.txt.gz
Wind_Speed
8 7 7 6 6 5 6 4 3 3 3 2 2 2 2 1 1 1 1 1 2 3 5 6 7 8 9 10 11 12 13 13 14 14 14 13 13 13 13 13 14 14 14 14 15 16 16 17 18
10 9 9 8 7 8 7 5 3 3 2 2 1 1 1 0 2 2 2 3 4 5 7 8 9 10 11 12 12 13 13 14 14 14 13 13 13 13 13 13 13 14 14 15 15 16 17 18 19
9 8 8 7 7 7 6 4 4 3 1 0 1 2 3 3 4 5 5 6 7 8 9 10 11 12 12 13 13 13 14 14 14 13 13 13 13 13 13 13 14 14 14 15 15 16 17 18 19
6 6 5 4 4 5 4 2 1 1 2 3 4 5 6 7 7 9 9 9 10 10 11 12 13 13 13 14 14 14 14 13 13 13 12 12 12 13 13 14 14 15 15 16 16 17 18 18 19
3 3 2 2 2 1 1 2 3 5 7 8 9 9 9 11 10 12 12 12 12 13 13 14 14 14 14 14 14 14 13 13 12 12 12 12 13 13 14 15 16 17 17 18 18 19 19 20 20
3 4 4 4 4 5 6 6 8 9 11 12 13 13 12 15 14 14 15 14 15 15 15 15 14 15 14 14 14 13 13 12 12 12 12 13 14 15 16 16 17 18 19 20 20 21 22 22 22
5 7 8 8 9 9 10 10 12 13 14 15 15 16 14 17 16 16 16 16 16 16 15 16 15 15 15 14 14 13 13 12 12 12 13 14 15 15 17 18 19 20 21 21 22 23 24 25 25
8 9 11 11 11 13 14 13 15 16 16 17 18 17 14 17 18 17 18 17 17 17 16 16 16 15 15 14 14 13 13 12 12 13 13 14 15 16 17 18 19 21 22 23 24 24 25 26 27
10 11 12 13 13 13 15 14 15 16 17 17 19 17 15 17 19 18 18 18 18 17 17 16 16 16 15 15 14 14 13 13 13 14 14 15 16 17 18 19 20 21 22 24 24 25 26 27 28
11 12 13 13 13 13 15 15 16 15 17 18 17 16 16 17 18 18 19 18 18 18 17 17 16 16 16 15 15 14 14 14 14 15 16 16 18 18 20 21 22 23 24 25 26 26 27 28 29
12 13 13 14 14 14 14 15 16 16 17 17 15 16 17 18 17 18 18 18 18 18 18 18 17 17 17 16 16 16 16 16 16 17 18 19 20 21 22 23 24 25 26 27 28 29 29 30 31
13 14 14 14 14 15 15 15 16 18 18 17 16 18 16 18 18 19 18 18 19 19 20 19 19 19 18 18 18 19 19 19 19 20 21 22 23 24 25 26 27 28 29 30 31 32 32 33 33
14 14 15 15 15 15 15 17 17 19 18 18 18 19 18 18 19 19 19 20 20 21 21 21 21 21 21 21 21 22 22 22 23 23 24 25 26 27 28 29 30 31 32 33 34 35 35 36 37
16 16 17 17 17 16 15 18 20 19 19 19 20 20 20 20 20 21 21 22 22 22 23 23 23 24 24 24 24 25 25 26 26 27 28 29 30 31 32 33 34 35 36 37 37 38 39 39 40
18 18 19 19 19 18 17 18 23 22 20 20 21 22 22 22 22 23 24 24 24 24 25 25 26 27 27 28 28 29 29 29 30 32 33 33 34 35 36 36 38 39 39 40 41 42 42 43 44
21 21 21 21 20 20 20 18 26 26 23 22 22 23 23 24 24 25 26 26 27 27 27 28 29 29 30 31 32 32 33 33 34 36 37 38 39 39 40 40 41 42 43 44 45 45 46 47 47
23 23 23 25 23 21 22 21 25 28 27 25 25 25 25 25 26 27 28 28 29 30 30 30 31 32 34 35 35 36 36 37 38 39 40 41 42 43 43 44 45 45 46 47 48 49 50 50 51
25 25 25 26 26 24 24 24 26 27 27 27 26 26 26 26 27 28 29 30 31 32 32 33 34 35 37 38 38 39 40 40 42 43 43 44 45 47 47 47 48 49 49 50 51 52 53 54 54
25 25 24 25 25 24 24 26 26 26 26 26 26 26 27 27 27 29 29 30 32 33 34 35 37 38 39 40 41 42 43 44 44 44 45 46 47 49 51 51 51 52 53 53 54 56 56 57 57
23 23 23 23 24 22 22 25 27 26 26 26 26 26 26 27 27 28 29 30 32 33 35 37 38 39 41 42 43 44 45 45 45 46 47 49 51 52 53 54 54 55 56 56 57 58 59 59 60
21 22 22 22 21 21 21 22 27 26 25 26 26 26 27 27 27 28 29 30 31 33 35 37 38 40 41 43 44 45 46 47 47 48 50 52 54 54 55 56 58 58 59 59 59 60 61 62 62
19 21 21 22 21 20 22 21 25 29 28 27 27 27 27 28 28 29 30 30 31 33 34 36 38 40 42 44 45 46 47 48 49 51 53 54 55 56 57 58 59 60 61 61 62 63 63 64 65
20 21 22 23 23 22 22 22 22 28 30 29 29 29 29 29 30 31 32 32 33 34 35 37 39 41 43 44 46 48 49 50 52 54 55 55 57 58 59 60 61 62 63 64 64 65 66 66 66
21 22 24 25 25 25 22 22 23 27 29 32 34 33 33 32 33 34 35 35 36 36 37 39 40 42 44 46 47 49 50 52 54 55 56 57 58 59 60 61 63 64 65 65 66 67 67 67 67
23 25 27 28 28 28 28 27 26 29 32 34 36 36 35 35 35 35 36 37 38 39 40 41 42 44 46 47 49 50 52 54 55 56 58 59 60 60 61 63 64 65 66 66 67 67 67 67 66
24 26 28 30 31 31 30 29 28 30 32 34 36 37 36 36 35 36 37 39 40 41 42 44 45 47 48 50 51 53 54 55 56 58 59 60 61 62 63 64 65 65 65 66 66 66 66 66 66
27 28 30 32 34 35 33 31 30 30 32 34 37 38 38 37 37 38 39 40 41 42 43 45 46 48 50 51 53 54 56 57 58 59 61 61 62 63 64 64 65 65 64 64 64 64 65 66 65
29 31 32 34 36 37 35 34 32 32 34 36 38 39 39 39 40 40 40 41 42 43 44 46 47 48 50 51 53 55 56 57 58 59 60 62 63 64 64 64 64 63 63 63 64 65 65 65 65
29 30 32 33 34 37 37 33 32 33 35 36 37 38 39 39 39 40 41 42 43 44 45 46 47 49 50 51 53 54 55 56 57 58 59 60 61 62 62 63 64 64 64 64 64 64 64 65 65
31 30 30 32 33 34 36 34 32 34 36 37 37 38 39 39 40 41 42 43 44 45 45 46 47 49 51 52 53 54 55 57 57 58 59 59 59 60 61 61 62 63 63 63 64 63 63 64 65

GEFSSGP_500_meanwind_072.txt.gz
Wind_Speed
7 6 5 3 2 2 3 3 5 5 6 5 5 4 3 3 3 4 5 5 5 5 5 6 6 6 7 7 8 9 9 10 11 11 12 12 12 12 12 12 12 12 12 13 13 13 13 13 14
9 8 6 5 5 4 4 4 5 6 6 5 5 3 2 2 2 3 4 4 5 5 6 6 7 7 8 9 9 10 10 11 12 12 12 12 12 12 12 12 12 12 12 12 13 13 13 14 14
8 7 7 6 6 4 3 3 4 5 5 4 3 2 1 1 2 3 4 5 6 7 7 8 9 9 9 10 10 10 11 12 12 13 12 12 12 12 12 12 12 12 12 13 13 14 14 14 15
6 6 5 5 5 3 2 2 1 2 2 1 0 2 4 4 4 5 6 8 9 9 9 10 11 11 11 11 11 11 12 12 12 12 12 12 12 11 12 12 12 12 13 13 14 14 15 15 16
6 5 5 5 5 5 5 5 4 3 3 3 4 5 7 8 7 7 9 10 12 12 12 12 12 12 12 12 12 12 12 12 12 12 12 12 12 12 12 12 12 13 13 14 14 15 15 16 17
5 6 6 7 7 7 7 6 6 7 7 7 8 8 10 12 11 10 11 12 14 14 14 13 13 13 13 13 13 13 13 13 12 12 12 12 12 12 13 13 13 13 14 14 14 15 16 16 17
5 6 7 8 8 9 9 8 9 9 9 10 10 10 13 15 13 12 12 13 15 15 15 14 14 14 14 14 14 14 14 13 13 13 13 13 13 13 13 13 13 13 14 14 15 16 16 17 18
7 7 8 8 8 9 10 9 10 11 11 11 11 11 13 16 16 14 13 13 14 16 16 15 15 15 15 15 15 15 14 14 14 14 14 14 14 14 14 14 14 14 15 16 16 17 18 18 19
8 9 9 9 8 9 10 10 10 11 12 11 9 11 13 15 16 15 14 14 15 16 16 16 16 16 16 16 16 16 15 15 15 15 15 15 15 15 16 16 16 17 17 18 19 19 20 20 21
9 10 9 9 9 9 10 10 10 11 13 12 9 10 13 15 15 15 15 14 15 16 17 17 17 17 17 17 17 17 17 17 17 17 17 18 18 18 18 19 19 20 20 21 22 22 23 24 24
11 11 11 10 10 10 11 12 11 11 12 13 12 12 14 15 15 15 15 15 15 16 18 18 18 18 18 18 18 19 19 19 20 20 20 20 21 21 22 22 23 23 24 24 25 26 27 27 28
12 12 11 12 11 12 12 13 14 14 13 14 13 13 14 16 17 16 16 17 17 17 18 19 19 19 19 20 20 21 21 22 23 23 23 23 24 25 25 25 26 27 27 28 29 29 30 31 31
14 14 14 13 13 13 14 15 15 16 15 14 14 14 14 16 18 18 18 19 18 19 19 20 20 21 22 22 23 24 25 25 26 26 26 27 28 29 29 29 30 31 31 32 32 33 34 34 35
16 17 16 15 15 15 16 18 17 16 15 16 16 16 16 17 18 19 20 20 20 21 21 21 22 23 24 25 26 27 28 28 29 30 30 31 32 33 33 34 34 35 36 36 36 37 38 39 39
19 18 18 17 17 17 18 20 20 18 16 17 18 19 18 18 19 21 21 21 22 22 23 23 24 25 26 27 29 30 31 32 32 33 34 35 35 36 37 38 39 40 40 40 40 41 42 42 43
20 20 20 19 19 19 19 21 24 20 18 18 19 19 19 19 20 21 22 22 23 23 24 25 26 27 28 29 31 32 33 34 35 36 37 38 39 40 41 42 43 44 44 44 44 45 45 46 46
20 20 20 20 20 19 19 20 23 22 19 19 19 18 18 18 19 20 21 23 23 24 25 26 28 29 30 31 32 34 35 36 38 39 40 41 43 44 45 45 46 47 48 48 48 49 50 50 50
19 19 19 20 19 19 19 19 20 19 19 19 19 18 18 18 18 19 20 22 23 24 25 26 28 30 32 33 34 35 36 37 39 40 42 43 44 46 47 48 49 50 51 51 52 53 53 54 54
17 17 18 19 18 17 18 18 17 18 18 18 18 18 19 19 19 19 20 22 23 24 26 27 28 30 32 34 35 36 37 38 39 41 42 44 45 47 49 50 52 53 54 55 55 56 56 57 58
15 15 16 16 16 16 16 17 17 17 17 18 18 19 20 20 20 21 21 22 24 25 27 28 29 31 33 35 37 38 39 39 40 41 43 45 48 50 52 53 54 56 57 57 58 59 60 60 62
14 14 13 12 14 16 16 18 17 17 17 18 18 19 20 21 22 23 23 24 26 27 28 29 30 32 33 35 37 38 40 41 42 44 46 48 50 52 53 55 56 58 59 60 61 62 62 63 64
13 14 13 12 13 14 17 19 19 18 17 18 19 19 21 22 23 24 25 26 27 28 29 30 31 32 34 35 37 39 41 42 44 47 48 50 52 54 56 57 59 60 61 62 63 64 65 66 66
14 14 14 13 14 15 17 19 22 20 20 20 20 21 22 23 24 25 26 27 28 29 31 32 33 34 35 37 39 40 42 43 45 47 49 51 54 56 57 59 61 62 64 65 66 67 68 69 69
15 16 16 16 16 16 17 18 22 23 23 22 22 23 23 24 24 25 26 28 29 30 31 33 34 35 36 37 39 40 42 43 45 47 49 52 54 57 59 61 63 64 65 66 67 68 69 69 70
16 18 19 19 18 18 19 20 22 24 24 24 24 24 24 24 24 25 26 27 29 31 33 34 35 36 37 38 39 40 42 44 45 47 49 51 54 56 58 61 63 64 66 67 69 69 70 70 70
19 20 21 22 21 20 21 22 23 24 25 25 24 24 23 23 24 24 26 28 30 31 32 34 35 36 37 39 40 42 44 45 47 49 51 53 54 56 58 60 62 63 65 67 68 69 70 70 71
21 22 22 23 24 22 21 22 23 24 24 23 22 22 22 23 24 25 27 29 31 32 33 35 36 38 39 41 43 45 47 49 50 52 53 55 56 58 59 61 62 64 65 67 68 69 69 70 71
23 24 24 25 26 26 23 22 24 24 23 22 22 23 24 25 26 28 29 31 33 35 36 37 39 41 43 44 46 48 50 52 54 55 57 59 60 61 62 63 64 65 66 67 68 68 69 69 69
25 25 26 27 27 28 25 21 24 23 23 23 24 25 26 28 29 31 33 35 37 39 40 42 44 45 47 49 51 53 55 57 59 60 61 62 63 64 65 65 65 66 66 67 68 68 68 68 68
26 26 27 28 28 27 26 21 23 23 25 25 26 28 30 32 33 35 37 39 41 43 45 46 48 50 53 55 57 59 61 62 64 65 66 67 67 68 68 67 67 67 67 68 68 68 68 68 68

GEFSSGP_500_meanwind_078.txt.gz
Wind_Speed
8 8 8 7 6 4 3 2 1 2 4 5 6 6 7 7 7 7 8 8 8 8 8 8 8 9 9 9 10 10 11 11 11 11 11 11 11 11 11 11 11 11 11 11 12 12 12 12 13
8 8 8 8 7 5 4 3 2 1 2 4 5 5 5 6 6 6 6 7 7 8 8 8 9 9 10 10 11 11 11 12 12 12 12 12 12 11 11 11 11 11 11 11 11 11 11 12 12
8 8 8 7 6 5 5 4 2 0 2 3 4 4 5 5 5 6 6 7 8 8 9 9 10 11 11 12 12 12 12 12 12 12 12 12 12 11 11 10 10 10 10 11 11 11 12 12 13
6 7 6 6 5 4 3 3 2 1 2 3 4 5 6 6 6 7 7 8 9 9 10 11 12 12 13 13 13 13 13 13 13 13 13 12 12 11 11 10 10 10 10 11 11 12 12 13 13
5 5 5 4 3 3 2 2 3 4 5 6 6 7 8 8 8 9 9 10 11 12 12 13 14 14 14 14 14 14 14 14 14 14 13 13 12 12 12 11 11 11 12 12 12 13 13 14 14
4 4 4 4 4 3 3 4 5 6 7 8 9 10 11 10 10 11 12 13 13 13 14 14 15 15 16 16 16 16 16 15 15 15 14 14 13 13 13 13 13 13 13 14 14 14 14 14 15
4 5 5 5 5 5 5 6 7 8 9 9 10 11 13 13 12 13 14 14 15 15 15 16 16 17 17 17 17 17 17 17 17 16 16 15 15 15 14 14 15 15 15 15 15 15 15 16 16
6 6 6 6 7 7 7 7 7 8 9 9 10 11 13 14 14 15 15 16 16 17 17 17 18 18 18 18 19 19 19 19 18 18 17 17 17 16 16 17 17 17 17 17 17 17 17 18 18
8 8 8 8 9 9 8 8 8 8 9 8 8 10 12 14 15 15 16 16 17 17 18 18 19 19 20 20 20 20 20 20 20 19 19 19 19 19 19 19 19 19 19 19 20 20 20 21 21
11 11 10 9 10 10 10 10 9 9 9 8 8 10 11 13 15 15 16 16 17 18 18 19 20 20 20 21 21 21 21 21 21 21 21 22 22 22 22 22 22 22 22 23 23 23 24 24 25
14 13 12 11 11 11 12 11 11 10 11 10 10 11 12 14 15 16 16 17 18 19 20 20 20 21 21 22 22 22 23 23 23 24 24 24 24 25 25 25 26 26 26 27 27 27 28 28 29
16 16 15 14 13 13 13 13 13 12 12 12 12 13 14 15 16 17 17 18 19 20 21 21 21 22 22 23 24 24 25 25 26 26 26 27 27 28 29 29 29 30 31 31 32 32 32 33 33
19 19 18 18 17 16 16 16 15 15 14 14 14 15 16 17 18 18 19 19 20 21 22 23 23 23 24 25 26 26 27 28 28 29 30 30 31 32 32 33 34 34 35 36 36 36 37 37 38
21 21 21 20 20 19 19 19 18 17 16 17 17 18 19 19 20 20 20 21 21 22 23 23 24 25 25 26 27 28 29 30 31 32 32 33 34 35 36 37 37 39 40 40 41 41 41 42 42
22 23 23 22 21 21 21 22 20 19 18 19 20 20 20 20 21 21 21 21 22 22 23 24 25 25 26 27 29 30 31 31 32 34 35 36 37 38 39 40 41 42 44 44 45 45 46 46 47
23 23 24 24 22 22 22 23 23 19 19 20 21 21 21 21 21 21 21 21 22 22 23 24 25 26 27 28 29 30 31 32 34 35 36 37 39 40 41 42 44 46 46 47 47 48 49 50 51
23 23 24 24 23 22 21 22 23 20 19 20 21 21 21 21 21 21 21 22 22 23 23 24 25 26 27 28 29 30 32 33 35 36 37 39 40 42 43 44 45 47 48 49 50 50 51 52 53
23 23 23 23 22 21 20 21 22 20 20 20 21 21 22 22 21 22 23 23 24 24 25 26 26 27 28 29 30 31 32 34 35 37 38 40 41 43 44 45 46 48 49 50 52 52 53 54 55
22 21 22 21 20 19 19 19 20 19 19 20 20 21 22 23 23 23 24 25 26 26 27 27 28 28 29 30 30 31 32 33 35 37 38 40 42 43 45 46 47 49 50 52 53 54 55 56 57
21 20 20 20 19 17 18 18 18 18 18 19 21 22 23 23 24 24 25 26 26 27 28 28 29 29 29 30 30 31 32 33 35 37 38 40 42 44 45 47 48 50 51 53 54 56 57 58 59
19 19 18 18 18 17 17 16 17 17 19 20 22 23 24 24 24 25 26 27 28 29 30 30 30 31 31 31 31 32 33 34 36 38 39 41 42 44 45 47 49 50 52 53 55 57 59 60 61
18 18 17 17 18 18 18 17 17 18 19 21 23 24 25 26 26 27 28 29 30 30 31 31 31 31 31 32 32 33 34 35 37 38 40 41 43 44 46 47 49 51 52 54 56 58 60 62 63
18 17 17 17 18 18 18 19 18 19 21 22 24 25 27 27 28 29 29 30 30 30 30 30 30 30 30 31 32 33 34 35 37 38 40 41 43 45 47 49 51 53 55 56 58 60 62 64 65
18 18 18 18 18 18 19 20 21 20 22 24 25 26 27 28 29 30 30 29 30 30 30 30 29 29 30 31 32 34 35 36 38 40 41 43 45 47 49 51 53 55 57 59 61 63 65 67 68
19 19 19 19 19 19 20 22 22 22 23 25 26 27 28 29 29 29 29 29 29 30 30 29 29 30 32 33 35 36 37 39 40 42 44 46 48 50 53 55 57 60 62 64 66 67 68 70 71
20 21 21 22 21 21 22 22 23 24 25 26 27 28 29 30 29 28 29 29 30 30 30 30 32 33 35 36 38 40 42 43 45 47 49 51 53 56 58 61 63 65 67 69 71 72 73 74 75
21 22 23 24 24 23 23 23 24 26 28 29 30 30 30 30 29 29 29 30 31 31 32 34 35 37 38 40 42 44 46 48 50 53 55 58 60 63 65 67 69 71 73 75 76 77 78 79 79
24 24 25 26 28 27 25 24 26 28 29 30 31 30 30 30 30 30 31 32 33 35 36 37 39 41 43 45 47 49 52 54 57 59 62 64 67 69 71 74 76 78 79 80 81 82 82 82 82
26 26 27 29 30 30 29 26 28 30 31 32 32 31 31 31 32 33 35 35 36 38 39 41 43 45 47 50 52 55 57 60 62 65 68 70 72 75 77 79 81 82 83 84 84 85 85 85 85
28 28 30 31 32 32 32 30 30 31 33 34 33 32 33 34 35 36 37 38 40 41 43 45 47 50 52 55 57 60 62 65 68 70 73 75 77 80 82 83 84 85 85 85 85 85 85 85 85

GEFSSGP_500_meanwind_084.txt.gz
Wind_Speed
7 8 8 7 7 6 5 4 4 4 4 5 6 7 8 9 10 11 11 12 13 13 13 13 13 13 13 14 14 14 15 15 15 16 16 16 17 17 18 18 18 18 17 17 17 16 17 17 17
7 7 7 6 6 5 5 4 3 3 3 4 5 6 8 9 10 11 11 12 12 12 13 13 13 13 13 13 13 14 15 15 16 16 16 17 17 18 18 18 18 17 17 17 17 16 16 16 16
6 6 6 5 4 4 4 3 3 3 3 4 4 5 6 8 8 9 10 11 11 12 12 12 13 13 14 14 14 15 15 16 16 16 16 17 17 18 18 18 18 17 17 17 16 16 16 15 15
5 5 4 4 3 2 2 2 3 3 4 4 5 6 7 8 9 10 11 11 12 12 13 13 13 14 15 15 15 16 16 16 17 17 17 17 17 17 17 17 17 17 17 16 16 16 16 16 16
3 3 2 2 1 0 1 2 2 3 4 5 6 7 8 9 10 11 12 12 13 13 14 14 15 15 15 16 16 17 17 17 17 18 18 18 17 18 17 17 17 17 17 17 17 16 16 16 16
1 0 0 0 1 1 2 2 3 4 5 6 8 9 10 10 11 13 14 14 15 15 15 16 16 17 17 17 18 18 18 18 18 19 19 19 18 18 18 18 18 18 18 18 18 17 18 18 18
3 2 2 2 3 3 3 3 4 5 6 7 8 10 11 11 12 13 15 16 16 16 17 18 18 19 19 19 19 19 19 20 20 20 20 20 20 20 20 20 19 19 19 19 19 19 19 19 19
5 5 5 5 5 5 5 5 5 6 6 7 9 11 12 12 13 14 15 16 17 18 19 20 20 21 21 21 21 21 21 21 22 22 22 22 22 22 22 22 21 21 21 21 21 21 21 21 21
8 8 7 7 7 7 7 7 7 8 8 8 9 11 12 13 14 14 15 16 18 19 19 21 22 22 22 22 23 23 23 23 24 24 24 24 24 24 24 24 24 23 23 23 23 23 23 23 23
11 11 10 9 9 9 8 8 8 9 9 9 10 12 13 14 14 15 16 16 17 18 19 21 22 23 23 24 24 24 25 25 25 25 26 26 26 26 26 26 26 26 26 26 26 26 26 26 26
14 13 12 12 11 11 11 11 11 11 11 11 12 13 14 15 15 16 16 17 18 19 20 21 22 23 24 24 25 25 26 26 26 27 27 27 28 28 28 28 29 29 29 29 29 30 30 30 30
16 16 15 14 13 14 14 14 14 14 14 14 15 15 16 16 17 17 18 18 19 20 20 21 22 23 24 25 26 26 27 27 28 28 28 29 29 30 30 31 31 32 32 33 33 33 33 34 35
18 18 18 17 16 16 17 17 17 16 16 17 17 18 18 18 18 19 19 20 20 21 21 21 22 23 24 25 26 27 27 28 29 29 30 30 31 32 32 33 34 35 35 36 36 37 37 38 39
20 20 20 19 18 18 19 19 19 18 18 19 19 20 20 20 20 20 20 20 21 21 21 22 22 23 24 25 26 27 27 28 29 30 30 31 32 33 34 35 35 37 38 39 39 40 41 41 42
20 21 20 20 20 20 20 20 20 20 20 20 20 21 20 20 20 20 20 20 21 21 21 22 22 22 23 24 25 26 27 28 29 30 31 32 33 34 35 35 36 38 39 39 40 41 42 43 45
20 21 21 20 20 20 21 22 20 20 20 21 20 20 20 20 20 19 20 20 20 20 21 21 22 23 23 24 25 26 28 28 29 30 31 33 34 34 35 36 37 38 39 40 41 42 43 44 46
20 21 21 20 20 20 21 22 20 19 20 20 20 20 20 20 20 19 19 20 20 21 21 22 23 24 25 26 27 28 29 30 31 32 33 34 34 35 36 36 38 39 40 41 42 43 44 45 47
20 21 21 21 20 20 21 21 20 19 19 20 20 20 20 20 19 19 20 20 21 22 23 23 24 25 26 27 28 29 30 31 31 32 33 34 34 35 36 36 38 39 40 41 43 44 45 46 48
20 21 21 21 20 20 20 20 19 19 19 19 20 20 20 20 20 20 21 21 22 23 24 25 26 27 28 29 29 30 30 31 32 33 33 34 35 36 37 37 39 40 41 42 44 45 46 47 49
20 20 21 20 20 19 19 19 19 19 19 19 20 20 20 20 21 21 22 23 24 25 26 26 27 28 29 29 30 30 31 32 33 33 34 35 35 36 37 38 40 41 42 43 45 46 48 48 50
20 20 20 20 19 19 19 19 19 19 19 20 20 21 21 21 21 22 23 24 26 27 27 28 29 29 30 30 30 30 31 31 32 32 33 34 35 36 37 39 40 42 43 44 46 48 49 50 52
20 20 20 19 19 18 18 18 18 19 20 20 21 21 21 22 22 23 25 26 27 28 29 29 30 30 30 29 29 29 29 30 31 32 33 34 36 37 39 40 42 43 45 47 49 51 53 55 56
20 20 19 19 19 18 18 19 18 19 20 21 21 22 22 23 24 25 26 28 28 29 30 30 30 30 30 29 29 29 30 31 32 33 34 36 38 39 41 43 45 47 49 51 53 56 58 60 62
20 20 20 19 19 18 18 19 19 19 20 22 22 23 23 24 25 27 28 29 30 30 31 31 31 30 30 30 30 31 32 33 34 35 37 39 41 43 45 47 49 52 54 56 59 61 63 66 68
20 20 20 19 19 19 19 20 20 20 21 22 23 24 24 26 27 29 30 30 31 31 31 31 31 31 31 32 32 33 35 36 37 39 41 43 45 47 50 52 54 57 59 62 64 66 69 71 73
20 20 20 20 20 19 19 20 20 21 22 24 25 25 26 28 29 30 31 32 32 32 32 31 32 32 33 34 35 37 39 40 42 43 45 47 49 52 54 57 59 62 64 67 69 71 74 76 78
20 20 21 21 21 21 21 21 21 22 24 25 26 28 29 30 31 32 32 33 33 32 32 33 34 35 36 37 39 40 42 44 45 47 50 52 54 56 59 61 64 66 69 72 74 76 78 80 82
22 21 21 22 23 23 22 21 22 24 25 27 29 30 31 32 33 33 34 34 34 34 34 35 36 37 38 40 41 43 45 47 49 51 54 56 59 61 64 66 69 71 74 76 78 80 82 83 85
22 22 23 24 25 25 25 23 24 26 27 29 30 32 33 33 34 35 36 36 36 36 37 38 39 40 41 43 45 46 48 51 53 55 58 61 63 66 68 71 73 75 78 80 82 83 85 86 87
24 24 25 26 26 27 28 26 26 28 29 31 32 33 35 36 36 37 38 38 38 38 39 40 41 42 44 46 48 50 52 55 57 60 62 65 68 70 73 75 78 80 82 84 85 87 88 88 88

GEFSSGP_500_meanwind_090.txt.gz
Wind_Speed
5 5 5 5 4 3 3 3 1 3 4 5 6 6 7 7 7 8 8 9 10 11 12 13 14 14 15 16 16 17 17 17 17 17 18 18 18 19 19 19 19 19 19 20 19 19 19 20 20
4 4 4 4 3 2 3 1 1 2 3 4 5 6 6 6 7 7 8 9 10 11 12 13 14 15 15 16 16 17 17 17 18 18 18 19 19 19 19 19 19 19 19 19 19 19 19 19 19
2 3 3 2 1 1 1 0 2 3 3 4 5 6 7 7 7 7 8 9 9 10 12 13 14 15 15 16 16 17 17 18 18 19 19 19 19 19 19 19 19 19 19 19 19 19 19 18 18
1 1 1 1 1 0 1 2 3 4 4 5 6 7 7 8 8 8 9 9 10 11 12 13 14 15 16 16 17 17 18 18 19 19 19 19 19 19 19 19 19 19 19 19 18 18 18 18 18
1 1 1 1 0 1 2 3 4 6 6 7 8 9 8 8 9 10 10 11 11 12 13 14 14 15 16 17 18 18 19 19 19 19 19 19 19 19 19 19 19 19 19 19 18 18 18 18 18
3 3 2 2 1 2 3 4 5 6 7 8 9 10 8 9 10 11 12 13 13 13 14 15 16 17 17 18 19 19 19 20 20 20 20 20 20 20 20 20 20 20 20 20 20 19 19 19 19
6 5 5 4 4 4 5 5 6 7 8 8 9 10 7 9 11 12 13 14 15 15 15 17 18 19 19 20 20 21 21 21 21 22 22 22 22 22 22 22 22 22 22 21 21 20 20 20 20
9 8 7 7 7 7 6 7 8 9 9 9 10 11 9 10 12 12 13 15 16 17 17 18 19 20 21 21 22 22 23 23 23 23 23 23 23 24 24 24 24 24 23 23 23 22 22 22 22
11 11 10 10 9 9 9 9 10 10 11 11 12 12 12 12 13 14 14 15 17 18 18 19 20 21 22 23 23 23 24 24 24 25 25 25 25 25 26 26 25 25 25 25 25 25 25 25 25
14 14 14 13 12 12 11 12 12 12 13 13 13 14 14 15 15 15 16 17 18 19 19 20 20 21 22 23 24 24 25 25 25 26 26 26 26 26 27 27 27 27 27 27 27 27 27 28 28
17 17 16 15 15 15 14 14 14 14 15 14 16 16 16 17 17 17 18 18 19 20 21 21 21 22 23 23 24 25 25 25 26 26 27 27 27 28 28 28 28 28 29 29 29 30 30 30 31
19 19 18 18 17 18 17 17 16 16 17 17 18 19 19 19 19 19 19 20 20 21 22 22 22 22 23 24 24 24 25 26 26 26 27 27 28 28 29 29 29 30 30 31 31 32 33 33 34
21 20 20 19 19 19 20 19 19 18 19 20 20 21 21 21 21 21 21 21 21 22 22 22 23 23 23 24 24 24 25 25 26 26 27 27 28 29 29 29 30 31 32 32 33 34 34 35 36
21 21 21 21 21 21 21 21 20 20 21 21 22 22 22 22 22 22 22 22 22 22 22 22 23 23 24 24 24 24 24 25 25 26 27 28 28 29 30 30 31 32 33 34 34 35 36 37 38
23 22 22 22 22 22 22 22 21 22 22 23 23 23 23 22 22 22 22 22 22 22 22 22 23 23 23 24 24 24 25 25 26 27 28 29 29 30 30 31 32 33 33 34 35 36 37 38 39
24 23 24 22 23 23 23 22 21 22 22 23 23 22 22 22 22 22 22 22 22 22 22 22 23 23 23 24 25 25 26 26 27 28 29 30 30 31 31 32 32 33 34 34 35 36 37 38 39
25 24 24 23 22 23 23 23 21 21 22 22 22 22 21 21 21 21 21 22 22 22 22 22 23 23 24 25 25 26 27 28 29 30 31 31 32 32 32 32 33 34 34 34 35 36 37 38 39
26 25 24 25 22 22 23 22 21 20 21 22 21 21 20 20 20 21 21 21 21 21 22 22 23 23 24 25 26 27 28 29 30 31 32 32 33 33 33 34 34 34 35 35 36 37 38 39 40
26 25 24 25 24 22 22 22 21 20 21 21 21 20 20 20 20 20 20 21 21 22 22 22 23 23 25 26 27 28 29 30 30 31 32 32 32 33 33 33 33 34 34 35 36 37 38 40 41
26 25 25 26 24 23 22 21 21 20 20 21 20 20 19 20 20 20 20 21 22 22 23 23 24 25 27 28 29 29 30 30 30 30 31 31 31 32 32 33 34 35 36 37 38 39 40 41 43
26 25 25 25 24 23 24 22 21 20 20 21 20 20 19 19 19 19 20 21 22 23 24 25 26 27 28 29 30 30 31 31 31 31 32 32 33 33 34 35 36 37 38 39 40 42 43 44 45
26 25 24 24 24 23 24 23 20 19 20 20 20 19 19 19 20 20 21 22 23 24 25 26 28 29 30 31 32 32 32 32 32 32 33 34 35 36 36 37 38 39 40 42 44 46 47 49 50
25 24 24 24 24 24 22 25 21 18 19 20 20 20 20 20 21 21 22 23 24 26 27 29 30 31 32 33 33 33 33 33 34 35 35 36 37 38 39 40 41 43 45 47 48 50 52 54 55
26 25 25 25 25 24 21 25 23 18 19 20 21 20 21 21 22 23 24 25 26 28 29 31 32 33 34 34 35 35 35 36 36 37 38 39 40 41 42 44 45 47 49 51 52 54 56 58 60
26 25 25 25 25 24 22 24 23 19 19 20 21 21 22 22 23 24 26 27 29 30 31 32 33 34 35 36 36 36 37 38 38 39 40 41 42 44 45 47 49 50 52 54 56 58 59 61 63
26 25 25 25 24 25 21 21 20 20 21 21 22 22 23 24 25 26 28 29 31 32 33 34 35 36 37 37 38 38 39 40 41 41 42 44 45 46 48 50 52 54 55 57 59 61 62 64 66
26 24 23 25 24 24 23 22 19 20 22 24 24 24 25 26 27 28 30 31 32 34 35 36 37 38 39 39 39 40 41 42 42 43 45 46 48 49 51 53 55 56 58 60 62 63 65 67 69
25 24 24 25 24 24 23 23 21 18 23 25 26 26 27 28 29 30 31 33 34 36 37 38 38 39 40 41 41 42 43 44 45 46 47 49 51 52 54 56 57 59 61 63 65 67 69 71 73
25 24 24 25 24 25 24 24 23 21 23 26 28 29 29 29 30 32 34 35 36 38 39 40 40 41 41 42 42 43 44 46 47 49 50 52 53 55 57 58 60 62 64 66 68 70 72 74 76
26 24 24 25 25 25 26 26 25 25 26 28 29 30 31 32 33 34 35 37 38 40 40 41 42 42 43 43 44 45 47 48 50 51 53 54 56 57 60 61 63 65 67 69 71 73 75 77 79

GEFSSGP_500_meanwind_096.txt.gz
Wind_Speed
4 5 5 5 5 5 5 5 5 6 6 6 6 6 7 7 7 7 7 7 7 8 8 9 9 10 10 11 11 12 13 14 14 15 15 16 16 17 17 18 18 19 19 19 19 20 20 20 20
3 3 4 4 4 4 4 4 5 5 5 5 5 5 5 5 6 6 7 8 8 8 8 9 9 10 10 11 11 12 12 13 14 15 15 16 17 17 18 18 19 19 19 19 19 20 20 20 19
1 1 2 2 3 3 3 3 4 4 4 3 4 4 4 4 5 6 6 7 7 7 8 8 9 10 10 11 11 12 13 14 14 15 16 17 17 18 18 19 19 19 19 20 20 20 20 20 19
2 1 1 1 1 1 2 2 3 2 2 2 2 3 4 5 5 6 7 7 7 8 8 9 9 10 11 11 12 13 14 14 15 16 16 17 18 18 18 19 19 19 20 20 20 20 20 20 20
3 3 2 2 2 2 2 2 2 1 2 2 2 3 4 5 6 6 7 8 9 8 8 9 10 10 11 12 13 14 15 15 16 17 17 18 18 19 19 20 20 20 20 21 21 21 21 21 21
5 4 4 4 3 3 3 3 2 2 2 2 2 3 6 6 6 6 7 9 10 10 9 10 11 11 12 13 14 15 15 16 17 18 19 19 20 20 21 21 21 22 22 22 22 22 23 23 23
7 7 6 6 5 5 5 4 4 3 3 3 3 3 5 6 6 6 7 9 10 11 11 12 12 13 14 15 16 16 17 18 18 19 20 20 21 22 22 23 23 24 24 24 24 25 25 25 25
10 9 9 8 7 7 7 7 6 6 6 5 5 5 7 8 8 7 8 9 11 12 13 14 15 15 16 17 17 18 19 19 20 21 21 22 23 23 24 24 25 25 26 26 26 26 27 27 27
13 12 11 10 10 10 10 10 10 9 9 8 8 9 9 10 10 10 10 11 12 14 15 15 16 17 18 18 19 20 20 21 22 22 23 24 24 25 26 26 27 27 27 28 28 28 28 28 29
15 15 13 12 12 13 12 12 13 13 12 12 12 12 12 12 12 12 12 13 14 15 16 17 18 19 19 19 20 21 21 22 23 23 24 25 26 26 27 27 28 28 28 29 29 30 30 31 31
18 18 16 15 15 16 15 15 15 15 16 16 15 15 15 15 15 16 16 16 16 16 17 18 19 20 20 21 21 21 22 23 23 24 25 25 26 26 27 28 28 29 29 30 31 31 32 32 33
21 20 19 18 18 18 18 18 17 18 18 19 18 18 18 18 18 18 19 19 19 18 19 20 20 21 21 21 22 22 23 24 24 25 25 26 26 27 27 28 29 30 30 31 32 32 33 34 35
24 23 22 21 21 21 20 20 19 20 20 21 21 21 21 20 20 20 20 21 21 20 19 20 21 21 22 22 23 23 24 25 25 25 25 26 27 27 28 29 30 31 32 32 33 34 34 35 36
26 26 24 24 24 23 22 22 21 23 22 22 23 23 23 23 22 22 21 21 21 21 21 21 21 22 22 23 24 24 25 25 26 26 26 27 28 28 29 30 31 32 33 33 34 35 35 36 36
29 28 27 27 26 25 24 24 24 24 24 23 24 24 25 24 24 23 22 22 22 22 22 22 22 23 23 24 24 25 25 26 27 27 28 29 29 30 31 32 33 33 34 34 35 35 36 36 37
31 30 30 29 28 27 26 26 26 26 25 25 25 25 25 25 24 23 23 23 22 22 23 23 24 24 24 25 25 26 26 27 28 28 29 30 30 31 32 33 34 34 35 35 35 36 36 37 37
33 32 31 31 29 29 28 27 27 26 26 25 25 25 25 25 24 24 23 23 23 23 23 23 24 24 25 25 26 26 27 27 28 29 30 31 32 33 33 34 34 34 35 35 36 36 36 37 38
35 34 33 32 32 31 30 28 28 27 26 25 25 26 26 25 24 23 23 23 23 23 23 23 24 24 24 25 26 27 27 28 29 30 31 32 33 33 34 34 34 34 35 35 36 36 37 37 38
36 35 34 34 34 33 31 30 30 29 27 26 25 26 26 25 24 23 23 23 23 23 23 23 23 24 24 25 26 27 28 29 30 31 32 33 34 34 34 34 35 35 36 36 37 37 38 39 40
36 36 35 35 36 34 32 30 30 30 28 26 25 25 25 24 24 23 23 23 23 23 23 23 23 23 24 26 27 28 29 30 32 33 34 34 35 35 35 35 36 36 37 38 38 39 40 41 43
35 35 35 36 36 36 34 30 29 29 29 27 25 26 25 25 24 24 23 23 23 23 23 23 23 24 25 27 29 30 31 32 34 34 35 35 36 36 37 37 38 38 39 40 41 42 43 43 45
34 34 35 37 38 36 35 32 27 29 28 27 26 25 25 24 24 23 23 23 23 23 23 24 25 26 27 28 30 31 33 34 35 36 36 37 38 39 39 40 40 41 42 43 43 45 46 46 47
35 35 36 38 38 37 34 36 27 28 28 27 26 25 25 24 24 23 23 23 23 24 24 25 26 27 29 30 32 33 34 35 36 37 38 39 40 40 41 42 43 43 44 45 46 47 49 50 51
36 35 36 37 38 37 33 36 29 26 27 27 26 24 24 24 23 23 23 23 24 25 26 27 28 29 31 32 33 35 36 37 38 39 40 41 41 42 43 44 44 45 46 48 49 50 52 53 55
36 35 36 37 37 35 33 35 29 25 26 27 25 24 23 23 23 23 23 24 25 26 27 28 29 31 32 33 35 36 37 39 40 41 42 42 43 43 44 45 46 47 49 50 51 53 54 55 57
35 36 36 36 36 33 32 33 28 25 25 26 25 23 22 23 23 23 24 25 26 27 28 29 31 33 34 35 36 38 39 40 42 42 43 44 44 45 46 47 49 50 51 53 54 55 56 57 59
34 34 33 35 36 35 34 32 28 25 24 25 24 23 23 23 23 24 25 26 27 28 29 31 33 34 36 37 38 40 41 42 43 44 44 45 46 48 49 50 51 52 53 55 56 57 58 59 60
34 33 34 36 36 35 33 30 28 24 23 23 24 24 23 23 24 25 26 27 29 30 31 32 34 36 37 39 40 41 43 44 44 46 47 48 49 50 50 52 53 54 55 56 57 58 60 61 63
33 33 34 35 37 35 33 28 26 25 24 23 23 24 24 24 25 26 28 29 30 31 33 34 36 38 39 41 42 43 44 45 46 47 49 50 50 51 52 53 54 55 57 58 59 61 62 64 65
34 33 33 34 34 33 32 28 25 26 25 25 24 24 25 25 26 28 29 30 32 33 35 36 38 40 41 43 44 45 46 47 48 49 50 51 52 53 54 55 56 57 59 60 61 62 64 65 66

GEFSSGP_500_meanwind_102.txt.gz
Wind_Speed
4 4 5 6 5 5 5 4 5 6 7 8 9 9 10 9 9 10 9 10 10 11 11 11 11 12 12 13 13 13 13 14 14 14 15 15 16 16 17 17 18 19 19 20 20 21 21 22 22
3 4 4 5 5 5 4 4 4 5 6 6 7 8 9 8 8 9 9 9 10 11 11 12 12 12 13 13 14 14 14 14 15 15 16 16 17 17 18 18 19 19 20 21 21 22 22 22 23
1 2 2 3 4 4 3 3 3 3 4 4 5 6 8 8 8 8 8 8 9 10 10 11 11 12 13 13 14 14 15 15 16 16 17 18 18 19 19 20 20 21 21 22 22 22 23 23 24
2 1 1 2 2 2 2 2 1 2 3 4 4 6 7 7 8 8 8 8 9 10 10 11 11 12 13 14 14 15 15 16 17 17 18 19 19 20 20 21 21 22 22 22 22 23 23 24 24
4 3 3 2 2 1 2 2 2 2 3 5 5 6 7 8 9 9 9 10 10 11 11 12 12 13 14 14 15 16 16 17 17 18 19 19 20 21 21 21 22 22 23 23 24 24 24 25 25
6 5 4 4 3 3 3 4 4 4 4 5 6 7 8 8 9 10 10 11 11 11 12 12 13 14 14 15 15 16 17 17 18 19 19 20 21 21 22 23 23 24 24 25 25 25 26 26 26
9 8 7 6 5 5 5 5 5 5 5 6 7 8 8 9 10 10 11 11 12 12 13 13 14 15 15 16 17 17 18 18 19 19 20 21 21 22 23 24 25 25 26 26 27 27 27 28 28
11 10 9 8 7 7 7 7 7 7 7 7 8 8 9 9 10 11 12 13 13 13 14 15 15 16 16 17 17 18 19 19 20 20 21 22 22 23 24 25 26 27 27 28 28 29 29 29 29
14 13 11 10 10 9 9 9 9 9 9 9 9 10 10 11 11 12 13 14 15 15 15 16 17 17 17 18 19 19 19 20 21 21 22 23 23 24 25 26 27 27 28 29 29 30 30 31 31
17 16 14 14 13 12 12 12 12 11 11 11 12 12 12 13 13 14 15 16 17 17 17 18 19 19 19 19 20 20 20 21 22 22 23 24 25 25 26 27 27 28 29 29 30 31 32 32 33
20 19 18 17 16 16 15 15 14 14 14 14 14 14 15 15 15 16 17 18 19 20 20 20 21 21 21 21 21 21 21 22 23 23 24 25 25 26 27 28 28 29 29 30 30 31 32 33 33
23 22 21 20 20 19 19 18 17 17 17 17 16 17 17 18 18 18 19 20 21 22 22 22 22 22 22 22 22 22 22 23 24 24 25 26 26 27 28 28 29 29 30 31 31 32 33 34 34
27 26 25 24 23 22 22 21 20 19 20 19 19 20 20 21 21 21 21 22 23 24 24 24 24 24 23 23 23 23 23 24 25 25 26 26 27 28 29 29 30 30 31 32 33 33 34 35 35
29 29 28 27 26 25 25 24 22 22 22 22 22 22 22 23 23 23 23 24 24 25 25 25 25 25 25 25 25 25 25 25 26 26 27 27 28 28 29 30 31 32 32 33 34 35 35 36 36
32 31 30 30 29 28 28 25 26 26 25 24 25 25 25 24 25 25 25 25 26 26 26 26 26 26 26 26 26 26 26 26 26 27 28 28 29 29 30 31 32 32 33 34 35 36 36 37 37
33 32 32 32 32 31 30 27 30 28 27 27 27 27 27 26 26 26 26 27 27 27 27 28 27 27 27 27 27 27 27 27 27 28 28 29 30 30 31 32 33 34 35 36 36 37 37 38 38
34 33 33 34 34 34 33 30 32 31 29 29 29 29 29 28 28 28 28 28 28 28 28 28 28 28 28 28 28 27 27 28 28 29 29 30 31 31 32 33 34 35 36 37 37 38 38 38 38
35 35 35 34 35 36 35 32 33 34 32 31 31 31 31 30 30 29 30 30 29 29 29 29 29 29 28 28 28 28 28 29 29 30 30 31 32 33 34 35 36 37 37 37 38 38 38 38 38
38 37 35 35 37 38 37 35 34 36 34 33 33 33 32 32 31 31 31 31 30 30 30 30 30 30 29 29 29 29 29 29 30 31 31 32 33 35 35 36 37 38 38 38 39 39 40 40 40
39 38 36 36 39 40 38 36 34 35 35 34 33 33 33 33 32 32 32 32 32 31 31 31 31 31 30 30 30 30 30 30 31 32 33 34 35 36 36 38 39 39 40 40 40 41 41 42 43
38 38 37 37 39 41 41 37 33 34 36 35 34 34 34 34 34 34 33 33 33 32 32 32 32 31 31 31 31 31 31 32 33 34 35 36 37 38 38 39 40 41 41 42 42 43 43 44 45
37 36 38 38 40 40 41 40 31 32 34 35 34 34 34 34 34 34 34 34 34 33 33 33 32 32 31 31 32 32 33 34 35 36 37 38 38 39 40 41 42 43 43 43 44 44 45 46 46
37 37 39 39 40 40 38 42 33 31 32 34 34 34 34 35 34 34 34 34 34 34 33 33 33 32 32 32 33 34 35 36 36 37 38 39 40 41 42 43 43 44 45 45 45 46 47 48 49
38 38 39 39 40 41 36 40 38 31 32 33 34 34 35 35 34 34 34 34 33 33 33 33 33 33 33 34 34 35 36 37 38 39 40 41 42 43 43 44 45 46 46 47 47 48 49 51 52
37 37 39 40 41 41 38 38 37 32 31 32 33 34 34 34 33 32 33 33 33 32 33 33 33 34 34 35 35 36 37 38 39 40 41 43 44 44 45 46 46 47 47 48 49 50 51 53 53
36 37 39 41 41 40 39 38 33 31 30 30 31 32 32 32 32 32 32 32 32 32 32 33 33 34 35 36 37 37 38 39 41 42 43 44 45 45 46 47 47 48 49 50 51 52 53 54 55
37 37 37 40 42 41 39 37 32 29 29 30 30 30 30 30 30 31 31 31 32 32 32 33 34 34 36 37 38 38 40 41 43 44 45 46 46 47 47 48 49 50 51 51 52 53 54 55 56
37 37 37 39 41 41 38 33 30 28 29 29 28 29 29 29 30 30 30 30 31 32 33 34 35 36 36 37 39 40 42 43 44 45 46 47 47 48 49 50 50 51 52 53 54 55 55 56 58
36 37 38 39 40 40 38 33 29 27 26 27 27 28 28 28 29 30 30 31 32 33 34 34 35 36 37 39 40 42 43 44 45 46 47 47 48 49 50 51 51 52 53 54 55 56 57 58 59
37 36 37 38 38 38 38 34 29 28 27 27 28 28 29 29 30 30 31 31 32 33 34 35 36 38 39 40 42 43 44 45 46 47 48 49 50 51 51 52 53 54 55 56 56 57 58 59 60

GEFSSGP_500_meanwind_108.txt.gz
Wind_Speed
4 6 7 7 8 7 7 7 8 9 9 9 10 10 10 10 10 10 10 10 11 11 11 12 12 13 13 14 14 14 15 15 16 16 16 17 17 17 18 19 19 19 20 20 20 21 21 22 22
4 5 6 7 7 7 7 7 8 8 8 8 9 9 9 10 10 10 10 10 11 11 11 11 12 12 13 14 14 14 15 15 16 17 17 18 18 19 19 20 20 21 21 21 21 22 22 22 23
5 5 6 6 7 7 7 7 7 8 7 7 8 8 8 9 9 9 10 10 11 11 11 11 12 12 12 13 14 14 15 16 17 18 18 19 19 20 20 20 21 21 21 22 22 22 22 22 22
6 5 6 6 6 6 6 6 6 6 6 6 6 7 7 8 9 9 10 10 10 11 11 11 12 12 13 14 14 15 16 17 17 18 19 19 19 20 20 21 21 22 22 22 22 22 23 23 23
8 7 6 6 6 6 6 6 5 6 6 6 6 7 7 8 9 10 10 11 11 11 12 12 13 14 14 15 16 16 17 18 18 19 19 20 20 20 21 21 22 22 22 22 23 23 24 24 24
11 9 8 8 8 8 7 7 6 7 7 7 7 8 8 8 9 10 11 11 12 12 12 13 13 14 14 15 16 17 18 18 19 19 20 20 21 21 21 21 21 22 22 23 24 24 24 25 25
13 12 11 10 10 9 9 9 9 8 8 8 8 9 9 9 9 10 11 12 12 13 13 14 14 15 16 17 17 18 19 19 20 20 21 21 21 21 21 22 22 23 23 24 24 25 25 26 26
17 15 14 13 12 12 11 11 10 10 9 9 9 9 9 10 10 10 11 12 13 14 15 16 16 17 17 18 19 19 20 20 21 21 21 22 22 22 23 23 23 24 24 25 25 26 26 27 27
19 18 17 16 15 14 13 13 12 12 11 11 11 11 11 11 12 12 12 13 14 14 15 16 17 17 18 19 19 20 20 21 22 22 23 23 23 23 24 24 24 25 26 26 26 27 27 27 28
21 20 20 19 18 17 16 15 15 14 14 14 14 14 13 13 13 14 14 14 15 15 16 17 18 18 19 20 20 21 22 22 23 23 24 24 24 24 24 25 25 26 26 26 27 27 28 28 29
24 23 23 22 21 20 19 18 17 16 17 17 16 16 16 16 16 16 16 16 17 17 18 18 19 20 21 21 22 23 23 23 24 24 24 25 25 25 26 26 26 27 27 27 27 28 28 29 30
27 26 26 25 24 22 22 21 20 19 19 19 18 18 18 18 18 18 18 19 19 20 20 20 21 22 22 23 23 24 24 25 25 26 26 26 26 26 27 27 27 27 28 28 28 29 29 30 30
30 29 28 28 27 25 24 23 22 22 22 21 21 20 20 20 20 20 21 21 22 22 22 22 23 23 24 25 25 25 26 26 27 27 27 27 27 27 28 28 28 28 28 29 29 29 30 30 31
32 31 31 30 29 28 27 26 25 25 25 24 23 23 23 23 23 23 23 23 24 24 24 24 24 25 26 26 26 27 27 28 28 28 28 28 28 28 28 28 28 28 29 29 30 30 31 32 33
35 34 33 33 32 31 30 29 29 29 28 27 26 26 26 26 25 25 25 25 26 26 26 26 26 26 27 27 28 28 29 29 29 29 29 29 29 29 29 29 29 29 30 30 31 32 32 33 34
36 36 35 35 35 34 33 31 32 31 30 29 29 29 29 29 28 28 27 27 27 27 27 28 28 27 28 28 29 29 30 30 30 30 30 30 30 29 29 30 30 31 31 31 32 33 34 34 35
37 36 36 37 37 36 35 33 34 34 33 32 32 32 31 31 31 30 30 29 29 29 29 29 29 29 30 30 30 31 31 31 31 31 31 31 31 31 31 31 31 32 32 33 34 34 35 36 37
37 37 37 38 39 39 38 35 35 36 35 33 34 34 34 33 33 32 32 31 31 31 31 31 31 31 31 31 31 32 32 32 32 31 32 32 32 31 31 32 32 33 34 35 35 36 37 37 38
39 39 38 39 41 41 40 38 36 37 37 35 35 35 35 35 35 33 32 32 32 32 32 32 32 32 32 32 32 32 32 32 32 32 32 32 32 32 33 33 34 35 35 36 37 38 38 38 39
40 40 39 39 41 42 41 39 36 37 37 37 36 36 37 36 36 35 34 33 33 33 33 32 32 32 33 33 33 33 33 33 33 33 33 33 33 34 34 35 36 37 37 38 39 39 40 40 41
40 39 38 39 41 43 42 39 36 36 38 39 39 38 38 37 37 36 35 34 34 34 34 33 33 33 33 33 33 34 34 34 34 34 34 34 34 35 36 37 37 38 39 40 40 41 42 42 43
40 38 38 39 41 42 42 41 34 35 36 38 39 39 38 38 38 37 36 35 35 34 34 34 34 33 33 34 34 34 34 34 34 34 34 35 35 36 37 38 39 40 40 41 42 43 43 44 44
39 39 39 40 40 41 40 42 35 33 34 36 38 38 38 38 38 37 36 36 36 35 34 34 33 33 34 34 34 34 34 34 34 34 35 35 36 37 38 39 40 41 42 43 43 44 44 45 46
41 40 40 40 40 41 38 40 38 33 33 34 36 37 37 37 36 36 36 36 35 34 34 34 34 34 34 33 33 33 34 34 34 35 35 36 37 38 39 40 42 43 43 44 45 45 46 47 47
40 39 40 41 41 42 38 38 37 34 33 33 34 35 36 36 36 35 35 35 35 35 34 35 34 34 33 33 33 34 34 34 35 35 36 37 38 39 40 42 43 44 45 45 46 47 48 48 49
38 39 40 41 42 41 39 37 33 32 31 31 32 34 35 35 35 35 35 35 34 34 34 34 34 33 33 33 33 34 34 34 35 36 37 39 39 40 42 43 44 45 46 46 47 48 49 50 50
40 39 38 40 42 41 40 36 31 30 31 31 31 31 32 33 34 34 33 33 33 33 33 33 33 33 33 33 33 33 34 34 36 37 38 39 40 42 43 44 45 46 47 48 48 49 50 51 52
40 39 39 40 41 41 39 35 30 28 30 31 31 31 31 32 32 32 32 32 33 33 32 32 32 32 32 32 32 33 34 35 37 38 39 40 42 43 44 45 46 47 48 48 49 51 52 52 52
39 39 39 40 41 40 39 35 29 28 29 30 30 29 29 30 31 31 31 31 31 31 30 30 31 31 31 32 33 34 35 37 38 39 40 42 43 44 45 46 47 47 48 50 51 52 52 53 53
40 39 39 39 39 38 38 36 30 28 29 30 30 30 29 29 30 30 30 30 30 30 30 30 30 31 32 33 34 36 37 38 39 40 42 43 44 44 45 46 47 48 50 51 52 53 53 53 54

GEFSSGP_500_meanwind_114.txt.gz
Wind_Speed
4 5 6 7 8 9 9 9 9 11 13 13 12 13 13 12 11 11 11 11 11 11 11 11 11 11 11 12 12 12 12 12 13 13 13 14 14 15 16 17 18 18 18 19 20 20 20 20 21
6 6 6 7 8 9 8 9 9 10 10 11 12 12 12 11 10 10 10 10 10 10 11 11 11 11 11 11 12 12 12 12 13 13 14 14 15 16 17 18 18 19 19 19 20 20 21 21 22
7 7 7 8 8 8 8 8 8 9 9 10 11 11 10 10 9 10 10 10 10 10 11 11 11 11 11 11 11 12 12 13 13 14 15 16 16 17 17 18 19 19 20 20 20 21 21 22 22
10 9 9 9 8 8 8 8 8 9 9 10 10 10 9 9 9 9 10 10 10 10 11 11 11 11 11 12 12 12 13 14 15 15 16 17 17 18 18 19 19 20 21 21 21 22 22 22 23
13 12 11 10 10 10 10 9 9 9 10 10 10 9 9 9 9 9 10 10 10 10 11 11 11 12 13 13 14 14 14 15 16 16 17 17 18 18 19 19 20 21 21 22 22 22 23 23 24
16 15 14 12 12 11 11 11 10 10 11 10 10 9 9 9 9 10 10 11 11 11 12 12 12 13 13 14 14 14 15 16 17 17 17 18 18 19 20 20 21 22 22 22 23 23 24 25 25
19 18 16 15 14 14 13 13 12 12 12 12 12 11 10 11 11 11 11 11 11 12 13 13 13 14 14 14 15 16 17 17 18 18 18 19 20 20 21 21 22 23 23 24 24 25 25 26 27
22 21 19 18 17 17 16 15 14 14 14 13 14 13 11 13 12 12 12 12 13 13 13 14 14 15 16 16 17 18 18 18 18 19 19 20 21 21 22 23 23 24 25 25 26 26 27 27 28
26 25 22 21 20 20 18 18 17 17 16 16 16 14 12 14 14 14 14 14 14 14 15 15 16 16 17 18 18 18 18 19 19 20 20 21 22 22 23 24 25 25 26 27 27 28 28 28 29
29 27 26 25 24 23 21 20 20 20 19 19 17 16 15 15 15 15 15 15 15 16 16 17 17 17 18 18 19 19 20 20 21 21 22 22 23 24 25 25 26 27 27 28 28 29 29 29 29
31 29 29 29 27 26 24 24 23 22 22 21 20 18 18 17 17 17 17 18 18 18 18 18 18 19 19 20 20 21 22 22 22 23 23 24 25 25 26 27 27 28 28 29 29 29 30 30 30
34 33 33 32 31 29 28 27 26 25 24 24 23 21 21 20 20 20 20 20 20 20 20 20 20 21 21 22 22 23 23 24 24 25 25 26 26 27 27 28 29 29 29 30 30 31 31 31 31
37 35 35 35 34 32 31 30 29 27 27 27 26 25 23 23 23 22 22 22 22 22 23 23 23 23 24 24 24 25 25 25 26 26 27 27 28 28 29 29 30 30 31 31 32 32 32 32 32
38 38 37 37 36 35 34 33 32 29 30 29 28 27 26 26 25 25 25 25 25 24 25 25 25 25 26 26 27 27 27 27 27 28 28 29 30 30 30 31 31 31 32 32 33 33 33 33 33
40 40 39 38 38 37 37 35 34 32 33 31 30 30 29 28 28 28 27 27 27 27 27 27 27 27 28 28 29 29 29 29 29 29 30 31 31 32 32 32 32 32 33 33 33 33 34 34 34
42 42 41 39 40 39 39 36 36 35 35 34 33 32 32 31 30 30 30 30 30 30 29 29 29 29 29 30 31 31 31 31 31 31 32 32 33 33 33 33 33 33 33 33 34 34 34 35 35
44 42 41 41 42 41 41 38 38 37 37 36 35 35 35 34 33 33 33 32 32 33 32 32 32 32 32 32 32 32 32 33 33 33 33 33 33 33 33 34 34 34 34 34 35 35 35 36 36
43 42 41 42 43 42 42 40 39 40 39 38 37 37 37 37 36 36 35 35 35 35 35 34 34 35 35 34 34 34 34 34 34 34 34 34 34 34 34 34 35 35 35 36 36 36 36 37 38
43 44 43 42 43 44 43 41 39 40 40 39 39 39 38 38 38 38 36 36 36 36 36 36 36 36 36 35 35 35 35 35 35 35 35 35 35 35 35 36 36 36 36 37 37 37 38 38 38
44 44 43 43 44 45 45 43 41 41 41 40 40 40 39 39 39 39 37 37 37 37 37 37 37 37 37 36 36 36 36 36 35 35 36 35 35 35 36 36 36 36 37 38 38 38 38 39 39
45 44 43 43 44 45 46 44 42 41 41 41 41 41 41 40 40 39 38 38 38 38 38 38 38 38 38 38 37 37 37 37 36 36 36 36 36 36 36 36 36 37 38 39 39 39 40 40 41
45 42 42 43 44 45 46 47 41 40 40 41 41 41 40 40 40 40 39 39 39 39 39 39 38 38 38 38 37 37 37 37 37 37 36 36 36 36 36 36 37 38 39 39 39 40 41 41 42
43 42 43 43 44 46 45 48 43 39 39 40 40 39 39 39 40 40 39 39 39 39 39 38 38 38 38 38 38 38 37 37 37 37 37 36 36 36 37 37 38 38 39 40 41 42 42 43 43
43 43 44 44 45 48 43 45 45 39 38 38 38 38 38 39 39 40 39 39 38 38 38 38 38 38 38 38 38 38 37 37 37 37 37 36 36 37 37 38 38 39 39 40 42 42 43 44 44
45 44 44 45 47 47 42 45 46 40 37 37 37 38 38 38 38 38 38 38 37 37 37 37 37 37 37 37 37 37 37 37 37 37 37 37 37 37 38 38 39 39 40 42 43 44 44 44 45
46 45 45 45 45 45 44 45 43 39 37 36 36 36 37 37 37 37 37 37 36 36 37 37 36 36 37 37 37 37 37 36 36 37 37 37 37 38 38 38 39 40 42 43 44 44 45 45 45
47 47 43 44 45 45 46 45 41 38 35 34 34 35 35 36 36 36 36 36 36 36 36 36 36 36 36 36 37 36 36 36 36 36 37 37 37 37 38 39 41 42 43 43 44 45 45 46 47
47 45 45 46 46 46 45 43 42 38 36 34 34 34 34 34 35 35 35 35 35 35 35 35 35 35 35 36 36 35 36 36 36 36 36 37 37 38 39 41 42 43 43 44 45 46 46 47 48
47 47 48 47 48 46 44 42 40 38 35 33 33 33 33 33 33 33 34 34 34 34 34 34 34 34 34 34 34 34 34 34 35 36 36 37 38 39 40 42 43 43 44 45 46 47 47 48 48
46 47 47 47 46 45 44 43 39 38 35 33 32 32 32 32 32 32 32 32 32 32 32 32 32 33 33 33 33 33 34 34 35 35 37 38 39 40 41 42 43 44 45 46 47 47 48 49 49

GEFSSGP_500_meanwind_120.txt.gz
Wind_Speed
10 10 10 10 10 10 11 13 14 14 14 15 16 16 16 15 15 15 15 15 14 14 13 13 12 11 11 10 10 10 10 11 11 11 12 12 12 13 14 15 16 16 17 17 18 18 19 19 19
12 11 11 11 10 10 11 12 13 13 13 14 15 15 14 14 13 14 14 14 14 13 13 12 12 11 11 11 10 10 11 11 11 11 12 12 13 14 15 15 16 16 17 17 18 18 19 20 20
13 13 12 12 10 10 11 12 12 13 13 14 13 14 14 13 13 13 13 13 13 12 12 11 11 11 10 10 10 10 10 11 11 12 13 14 15 15 16 17 17 17 18 19 19 20 20 21 21
16 15 14 13 12 12 12 12 12 13 13 13 13 13 13 14 14 13 13 12 12 11 11 11 11 10 10 10 10 11 11 12 12 13 14 15 16 17 17 18 18 18 19 20 20 21 21 21 22
19 18 16 15 14 13 13 13 12 13 13 13 13 13 13 13 13 13 12 12 11 11 11 10 10 10 10 10 11 12 12 13 14 14 15 16 17 17 18 18 19 19 20 21 21 21 22 22 23
21 20 19 17 16 15 14 14 13 13 13 13 13 13 13 12 12 12 13 12 11 11 10 10 10 10 10 11 12 12 13 13 14 15 16 16 17 18 18 19 20 20 21 21 22 23 23 24 24
25 23 21 20 19 17 16 16 14 14 14 13 13 13 13 12 12 12 12 12 11 11 10 10 11 11 11 12 13 13 14 14 15 16 17 18 18 18 19 20 21 21 22 23 23 24 25 25 26
28 27 25 23 21 20 19 18 16 16 15 14 14 13 13 12 12 12 12 12 11 11 11 11 11 12 12 13 13 14 15 15 16 17 18 18 19 19 20 21 22 22 23 24 25 25 26 26 27
32 30 28 26 24 23 22 21 19 17 17 15 14 14 14 13 12 12 12 12 12 11 11 11 12 12 13 14 14 15 16 17 17 18 18 19 20 21 22 23 23 24 25 25 26 26 27 27 28
34 32 29 29 28 27 25 23 22 20 18 17 16 16 15 15 14 13 13 13 13 13 13 13 13 14 14 15 16 16 17 18 19 19 20 21 22 22 23 24 25 26 26 27 27 28 28 29 29
36 34 33 32 31 30 28 27 25 23 21 20 19 18 17 17 16 15 14 15 15 15 15 14 15 15 16 17 18 18 19 20 20 21 21 22 23 24 25 25 26 27 28 28 28 29 29 30 30
38 36 36 35 35 34 32 30 28 26 24 24 22 21 20 19 18 17 16 16 16 16 16 17 17 17 18 19 19 20 20 21 22 22 23 24 25 26 26 27 28 28 29 30 30 30 31 31 31
41 39 39 38 38 37 35 33 31 29 28 27 25 24 22 21 20 20 18 18 17 18 18 18 19 19 20 20 21 21 21 22 23 24 25 26 27 28 28 29 30 30 30 31 31 31 32 32 32
43 42 42 41 41 39 38 36 34 31 31 30 28 26 25 24 24 23 22 21 20 20 20 21 21 22 22 22 22 23 23 24 25 26 27 28 29 29 30 31 31 31 32 32 32 32 33 33 33
46 46 45 44 43 41 41 40 36 34 34 33 31 29 28 27 27 26 25 24 23 23 23 23 23 23 23 23 24 25 26 27 27 28 29 30 30 30 31 31 31 32 32 33 33 34 34 34 34
48 48 47 44 44 44 44 41 38 38 37 35 34 32 30 29 28 28 28 27 26 26 25 25 25 25 26 26 26 27 27 28 29 30 30 31 31 32 32 32 32 33 33 34 34 34 34 35 35
51 49 46 45 45 45 46 42 40 40 39 37 36 35 33 31 30 30 30 29 28 28 28 27 27 28 28 29 29 29 29 30 31 31 32 32 33 33 33 33 34 34 34 34 35 35 35 36 36
49 48 46 45 45 46 47 44 42 43 42 40 39 37 36 34 32 32 32 31 31 30 30 30 30 31 31 31 31 31 32 32 33 33 33 33 33 34 34 34 35 35 35 35 35 35 36 36 37
48 48 47 46 45 47 47 46 44 45 44 42 41 40 38 36 34 34 34 33 33 32 32 32 33 33 33 33 33 33 33 34 34 34 34 34 34 35 35 35 35 35 35 36 36 36 37 37 38
50 49 48 47 47 48 49 48 46 46 45 43 42 41 39 38 37 36 35 35 35 34 34 34 34 34 34 34 34 34 35 34 34 34 35 36 36 36 36 36 36 36 36 37 37 37 37 38 38
51 50 47 47 47 49 49 49 47 45 45 44 43 42 40 39 38 38 37 37 36 36 36 35 35 35 35 35 35 35 35 35 34 35 36 36 36 36 37 36 37 37 37 37 37 37 38 38 39
50 47 46 47 48 49 50 51 47 45 45 44 43 42 40 40 39 39 38 37 37 36 36 36 36 36 36 35 35 35 35 35 36 36 36 37 37 37 37 37 37 37 37 37 37 38 38 39 39
47 45 46 46 48 49 49 52 48 45 44 42 41 41 41 40 40 39 38 37 37 37 37 36 36 36 36 36 36 36 36 36 36 37 37 37 37 38 38 38 38 38 38 38 38 38 38 39 40
47 46 46 47 48 52 49 51 50 43 41 41 40 41 40 40 40 40 39 38 38 37 36 36 36 36 36 36 36 36 36 36 36 37 37 37 37 38 38 38 38 38 38 38 38 38 39 40 41
51 50 49 49 51 52 47 50 50 40 38 38 38 39 39 39 39 38 38 37 36 36 36 36 36 36 36 36 36 36 36 36 37 37 37 37 37 37 38 38 38 38 38 38 39 39 40 41 41
52 52 52 51 51 49 47 49 46 40 37 37 37 37 38 38 37 37 36 36 36 36 36 36 36 35 35 35 35 36 36 36 37 37 37 36 37 38 38 38 38 38 38 39 39 40 41 41 42
51 52 50 50 51 50 50 47 44 40 37 36 36 35 36 36 36 36 36 35 35 36 35 35 35 34 34 35 35 35 35 36 36 37 37 37 37 38 37 37 37 37 38 39 40 41 41 42 43
50 49 51 52 52 52 51 48 43 38 36 34 33 33 34 35 35 35 35 35 35 34 34 34 34 34 34 35 35 35 35 35 36 37 36 36 37 37 37 37 36 37 38 40 41 41 42 43 44
51 52 53 52 52 51 50 47 39 36 34 33 32 31 32 32 33 33 33 33 33 33 33 34 34 34 34 34 34 34 34 34 35 35 35 36 36 36 36 36 37 38 39 40 41 41 42 43 45
50 51 51 52 51 49 48 45 39 36 34 33 32 31 30 31 31 31 31 32 32 32 32 32 32 32 32 33 32 32 33 34 34 35 35 35 35 36 36 36 37 38 39 40 41 42 43 45 46

GEFSSGP_500_meanwind_126.txt.gz
Wind_Speed
17 17 17 17 17 16 15 15 16 18 20 22 23 24 23 23 23 22 21 20 19 18 17 16 15 14 13 13 12 11 11 10 10 10 10 10 10 11 11 12 13 14 15 15 15 16 16 17 18
19 19 18 18 17 15 14 15 16 17 19 21 22 22 22 23 22 22 21 19 19 18 17 16 15 14 14 13 13 12 12 11 10 10 10 10 11 11 12 13 14 15 15 16 16 16 17 18 19
21 20 20 18 16 15 15 16 16 17 17 19 20 20 21 21 21 20 20 19 19 18 17 17 16 15 14 13 13 12 12 11 10 10 11 11 12 12 13 14 15 15 15 16 17 18 18 19 20
23 22 21 19 17 16 16 16 16 16 16 17 18 19 19 19 19 19 19 19 18 18 17 16 16 15 14 13 13 12 12 11 11 11 11 12 13 13 14 15 15 16 16 17 18 19 19 20 21
26 25 23 20 18 17 18 18 16 16 16 16 17 18 18 18 18 18 18 18 17 17 17 16 15 15 14 14 13 13 12 12 12 12 12 13 14 14 15 15 16 17 17 18 19 19 20 21 22
29 27 26 22 20 20 20 19 17 16 16 17 17 17 18 17 17 17 17 17 16 16 16 15 15 14 14 13 13 13 13 13 13 13 13 14 14 14 15 16 17 17 18 18 19 20 21 22 23
32 30 28 26 24 22 22 21 19 18 17 17 17 18 18 17 17 17 17 17 16 15 15 15 15 14 14 13 13 13 13 13 13 13 13 14 14 15 16 17 17 18 18 19 20 21 22 23 24
35 34 32 29 26 24 24 23 21 20 19 19 18 18 18 18 18 17 17 17 16 15 15 15 14 14 13 13 13 13 14 14 14 14 14 14 15 16 17 18 18 19 20 21 22 23 24 25 26
39 38 34 31 29 27 27 26 24 23 21 20 19 19 19 19 18 17 17 16 16 16 15 15 14 14 14 14 15 14 14 14 14 15 15 16 17 18 18 19 19 20 21 22 23 24 25 26 27
42 40 35 32 32 31 30 29 28 26 24 22 21 20 20 20 19 18 17 17 17 16 16 16 15 15 15 15 15 15 15 15 16 16 17 17 18 19 19 20 21 22 23 24 25 26 27 28 29
44 41 37 36 35 35 34 33 31 29 26 24 23 23 22 22 21 20 19 18 17 17 16 16 16 15 15 15 15 16 16 16 17 17 18 19 19 20 21 22 23 24 25 26 27 28 29 29 30
46 43 40 38 38 38 37 36 34 32 29 28 27 25 24 23 22 21 20 19 18 18 17 17 17 16 16 16 17 17 17 18 18 19 19 20 21 22 23 24 25 26 27 28 28 29 30 30 31
49 46 43 42 42 41 40 39 37 35 33 31 29 28 26 25 25 23 22 21 20 20 19 19 18 18 18 18 19 19 19 19 20 21 21 22 23 24 24 26 27 27 28 29 30 30 31 32 32
50 49 47 46 45 45 44 42 41 37 36 34 32 30 29 27 26 26 24 23 22 22 22 21 20 20 20 20 20 21 21 21 22 22 23 24 24 25 26 27 28 29 29 30 31 31 32 33 33
53 52 51 49 48 47 47 46 43 39 38 37 35 33 31 29 28 27 27 26 25 25 24 23 23 22 22 22 22 22 22 23 23 24 25 26 26 27 28 28 29 30 30 31 32 32 33 34 34
56 56 55 51 50 49 50 48 43 41 41 40 38 36 34 32 30 29 29 29 28 27 26 25 24 24 24 24 23 24 24 25 25 26 27 27 28 28 29 29 30 31 32 32 33 33 34 35 35
59 59 55 52 51 51 52 49 44 43 44 42 40 38 36 34 32 31 31 31 30 29 28 27 27 26 26 26 26 26 26 27 27 28 29 29 29 30 30 31 31 32 33 33 34 35 35 36 36
59 58 56 53 51 52 53 51 46 46 46 45 43 41 39 37 35 34 33 33 32 31 30 30 29 29 29 28 28 28 28 29 29 30 30 30 30 31 31 32 33 33 34 34 35 35 36 37 37
56 57 56 54 52 53 54 52 49 48 49 48 46 44 42 39 37 37 36 35 34 33 32 31 31 31 30 30 30 30 30 30 31 31 32 31 31 32 33 33 33 34 34 35 36 36 37 37 38
58 58 57 55 55 55 55 54 51 50 50 49 47 46 43 41 40 39 38 37 36 35 34 33 33 33 32 32 32 32 32 32 32 33 32 33 33 34 34 34 34 35 35 36 37 37 38 38 38
59 59 56 55 55 56 56 56 54 51 51 50 49 47 45 43 41 41 40 38 37 36 35 35 35 34 34 34 34 34 33 33 33 34 34 35 35 35 35 35 36 36 36 37 37 38 38 38 39
58 55 55 55 55 56 57 59 55 52 52 51 49 47 46 44 43 42 41 40 38 37 37 36 36 36 36 36 36 35 34 34 35 36 36 36 36 36 36 36 36 36 37 38 38 38 39 39 39
54 53 54 54 56 57 58 60 57 54 53 50 48 47 46 45 43 43 42 41 40 39 39 38 37 37 37 36 36 36 35 35 36 37 37 37 37 37 37 37 37 37 38 39 39 39 39 39 40
54 53 54 55 55 60 58 60 61 55 51 48 46 45 45 44 44 43 42 42 41 40 40 39 38 37 37 37 37 36 36 36 37 37 37 38 38 37 37 37 38 38 39 39 39 38 39 39 40
56 55 54 56 58 61 57 61 62 52 49 46 45 45 44 44 44 43 43 42 41 40 40 39 39 38 38 38 38 37 37 37 37 37 38 38 38 38 38 38 38 38 39 39 38 38 39 39 40
56 57 57 57 59 58 57 60 58 50 47 46 45 44 44 44 43 43 43 42 42 41 40 39 39 38 38 38 38 38 37 37 37 38 38 38 38 38 38 38 39 39 38 38 38 38 39 40 40
58 57 55 55 56 56 58 56 54 50 45 43 43 43 43 42 42 42 42 42 41 41 40 39 39 38 39 38 38 37 37 37 37 38 38 38 38 38 38 38 38 38 38 38 38 39 39 40 40
58 57 56 56 55 55 56 55 51 46 42 40 40 41 41 41 41 41 42 41 41 41 40 40 40 39 39 38 38 38 37 37 37 37 38 38 38 38 38 38 38 38 38 38 38 39 40 40 40
58 58 58 56 55 53 53 52 46 43 40 39 38 39 40 40 41 41 40 40 40 40 40 41 40 39 39 38 38 38 37 37 37 37 37 37 37 37 37 37 37 37 37 38 38 39 40 40 41
56 56 57 57 55 53 52 49 43 41 40 39 38 38 38 39 39 39 39 39 39 39 39 39 39 39 38 38 38 37 37 37 37 37 37 37 37 36 37 37 37 37 37 38 38 39 40 41 42

GEFSSGP_500_meanwind_132.txt.gz
Wind_Speed
26 25 25 25 25 23 20 19 21 22 23 24 25 26 26 27 27 27 25 25 24 24 23 22 21 20 19 18 16 15 15 14 13 12 12 11 11 11 10 11 11 11 12 12 13 13 13 14 15
28 28 27 27 26 23 20 20 21 23 23 24 25 26 26 27 26 26 25 25 24 24 23 22 21 20 20 18 17 16 15 14 13 13 12 12 11 11 11 11 11 12 13 13 13 14 14 15 16
30 30 29 28 26 23 21 22 23 23 23 23 24 25 26 25 25 25 25 25 24 23 23 22 21 21 20 19 18 16 15 14 13 13 12 12 12 12 12 12 13 13 13 14 14 15 15 16 17
33 32 31 30 27 24 24 24 24 23 23 22 23 24 24 25 25 25 25 25 24 24 23 22 21 20 19 18 18 17 16 15 14 13 13 13 13 13 13 13 14 14 14 15 15 15 16 17 17
36 35 33 31 27 26 26 26 25 24 23 23 23 23 24 25 25 25 25 25 25 24 23 22 21 20 19 19 18 17 16 15 15 14 14 14 14 14 14 14 14 14 14 15 15 16 17 17 18
38 37 36 32 29 28 28 28 27 25 24 23 23 23 24 25 26 26 25 25 25 25 24 23 22 21 20 19 18 18 17 16 16 15 15 15 15 14 15 15 14 14 15 15 16 17 17 18 19
40 40 37 35 32 30 29 30 29 27 26 24 24 24 24 25 25 26 25 25 25 25 24 23 22 21 20 20 19 19 18 17 16 16 16 15 15 15 15 15 15 15 16 16 17 18 19 20 21
42 43 40 37 34 31 31 32 31 30 28 27 26 25 25 25 25 26 25 25 24 24 24 23 23 22 21 20 19 19 18 18 17 17 16 16 16 15 15 15 16 16 16 17 18 19 20 21 23
45 46 43 38 36 33 33 33 33 32 31 29 27 26 26 26 26 26 25 25 24 23 23 23 22 22 21 20 19 18 18 18 17 17 17 16 16 16 16 16 17 17 18 18 19 21 22 23 24
48 48 43 39 38 37 36 36 36 35 33 31 29 28 28 27 27 27 26 25 24 24 24 23 22 21 20 19 19 18 18 18 18 18 17 17 17 17 17 17 18 19 19 20 21 23 24 24 25
51 48 43 42 41 40 40 39 38 38 35 33 31 30 30 29 28 28 27 26 26 25 24 24 23 21 20 19 19 19 18 18 18 18 18 18 18 18 18 19 20 20 21 22 23 24 25 26 26
52 49 46 45 44 44 43 42 42 40 37 36 35 34 32 31 30 30 28 27 27 25 24 24 23 22 21 20 20 19 19 19 19 19 19 19 19 19 19 20 21 22 23 24 25 25 26 27 27
54 51 49 47 47 47 46 45 44 43 41 40 38 36 34 33 32 31 30 29 28 27 26 25 24 24 23 22 21 20 19 19 19 19 19 19 20 20 21 22 22 23 24 25 26 26 27 28 28
54 54 53 51 50 50 49 48 48 45 43 42 41 39 37 35 34 33 31 30 29 28 27 26 25 24 24 23 22 21 20 20 20 20 20 20 21 21 22 23 23 24 25 26 26 27 27 28 29
57 57 56 55 53 52 52 53 50 46 46 45 44 41 40 38 36 34 32 32 31 30 29 27 26 25 24 24 24 23 22 21 21 21 21 21 22 23 23 24 24 25 26 27 27 28 28 29 30
59 60 59 56 55 54 56 54 50 49 48 48 46 44 43 41 38 37 35 34 33 32 30 29 27 26 26 25 24 24 23 23 23 23 23 23 23 24 24 25 25 26 27 27 28 29 29 30 31
61 62 61 58 57 56 57 56 52 52 51 49 48 47 45 43 41 39 37 36 35 34 32 31 29 28 27 27 26 25 24 24 24 24 24 24 24 25 26 26 27 27 28 29 29 30 30 31 32
59 61 61 60 58 58 58 56 54 53 53 51 50 49 48 46 43 41 40 38 37 36 34 33 32 30 29 28 28 27 26 26 26 26 26 25 26 26 27 27 28 29 29 30 31 31 32 32 33
58 59 60 59 58 59 59 58 56 55 55 54 53 52 51 48 46 45 43 41 39 38 36 34 33 32 31 30 29 29 28 28 28 27 27 27 28 28 28 29 29 30 31 31 32 32 33 33 34
59 58 59 59 59 60 61 61 59 58 57 56 55 53 52 51 49 48 46 44 41 39 38 36 35 34 33 32 31 31 31 30 29 29 29 29 29 29 29 30 31 31 32 32 33 33 33 34 34
62 59 57 58 58 60 62 64 63 60 58 58 57 55 54 53 51 49 48 45 43 42 40 38 37 36 35 34 34 33 32 31 31 31 31 31 31 31 31 32 32 33 33 33 34 34 34 34 35
63 59 56 57 58 60 62 66 65 62 60 58 57 56 55 53 52 51 49 47 45 43 41 40 39 38 37 37 36 35 33 32 32 33 33 33 33 32 33 33 33 34 34 34 34 35 35 35 35
60 58 58 57 57 58 61 66 67 64 62 59 57 56 55 54 53 51 51 49 47 45 43 41 40 40 39 38 37 36 35 34 34 35 35 34 34 34 34 34 34 34 35 35 35 36 36 36 36
57 57 57 58 58 61 61 64 68 65 62 58 56 55 55 54 53 52 51 50 49 47 45 43 42 41 40 39 39 37 36 35 36 36 36 35 35 35 35 35 35 35 35 36 36 36 36 36 37
57 57 57 58 60 62 60 63 68 64 61 58 56 55 54 54 54 52 51 50 49 48 46 44 43 42 41 40 39 38 37 37 37 37 37 36 36 35 36 35 35 35 36 36 37 36 36 36 37
57 57 58 57 58 59 59 62 64 60 58 57 55 54 54 54 53 52 51 50 49 48 47 46 45 43 42 41 40 39 38 38 37 37 37 37 37 37 37 36 36 36 36 36 37 36 36 37 37
55 57 55 53 53 54 57 59 61 58 56 56 56 54 54 53 53 52 51 50 49 48 47 46 45 43 42 41 40 40 39 39 38 37 37 37 37 37 37 36 36 36 36 36 37 36 36 37 37
54 54 54 55 52 53 55 56 58 55 53 52 53 54 53 52 52 52 51 50 49 48 47 46 45 44 43 42 41 40 40 39 38 38 38 38 38 37 37 37 36 36 36 37 37 37 37 37 38
51 55 55 55 54 51 50 51 52 50 49 49 50 51 52 51 51 50 50 49 49 48 47 46 45 44 43 42 41 41 40 39 39 39 38 38 38 38 37 37 36 36 36 37 36 37 37 38 38
47 52 56 56 55 52 48 46 47 45 44 45 47 49 50 50 50 49 49 48 48 48 47 46 45 44 43 42 41 41 40 39 39 38 38 38 38 38 37 36 36 36 36 37 37 37 38 38 39

GEFSSGP_500_meanwind_138.txt.gz
Wind_Speed
33 33 33 33 34 33 29 26 26 26 26 27 27 29 29 30 31 32 29 27 27 27 27 26 24 23 21 20 19 18 17 16 15 14 14 13 12 12 11 11 11 11 11 12 12 13 13 14 14
35 35 36 36 35 33 29 27 28 27 28 28 28 28 29 31 31 31 29 28 28 28 27 27 25 24 22 21 20 19 18 17 16 15 14 13 13 12 12 12 12 12 12 13 13 13 14 14 15
38 38 38 38 36 33 29 29 30 29 30 29 28 28 30 31 31 31 30 29 28 28 28 27 26 25 23 22 21 20 19 18 16 16 15 14 14 13 13 13 13 13 13 13 13 14 15 15 15
40 40 41 40 36 33 31 31 33 31 31 30 29 29 30 30 30 30 30 29 29 29 28 28 27 26 24 23 22 20 20 19 18 17 16 15 14 14 14 13 13 13 13 14 14 15 15 15 16
43 43 43 41 37 34 34 33 35 33 32 31 31 30 30 30 30 30 30 30 30 29 29 28 27 26 25 24 23 22 21 20 19 18 16 15 15 15 14 13 13 13 14 14 15 15 15 16 16
46 45 45 42 38 36 36 35 36 34 33 32 32 32 30 30 30 31 31 31 30 30 29 29 27 26 25 24 23 22 21 20 19 18 17 16 16 15 14 14 14 14 15 15 15 15 16 16 17
47 47 46 43 41 38 37 37 37 36 35 34 33 33 31 30 30 31 31 31 31 30 29 29 27 26 25 24 23 22 21 20 19 18 18 17 16 16 15 15 15 15 15 15 16 16 17 18 19
49 50 49 45 43 40 39 39 39 38 36 36 36 36 33 31 31 31 32 31 31 30 29 29 28 27 26 25 24 23 22 20 19 19 18 17 17 16 16 16 16 16 16 17 17 17 18 19 20
51 53 51 45 43 41 41 41 41 40 39 39 38 37 35 32 32 32 32 32 31 30 30 29 29 28 27 26 25 24 22 21 20 19 19 18 17 17 17 17 17 17 17 18 18 19 20 20 21
54 54 49 45 44 44 43 44 43 42 41 40 40 39 35 33 33 33 32 32 31 31 31 30 29 29 28 27 26 24 23 21 21 20 19 19 18 18 18 18 18 18 18 18 19 19 20 21 22
55 53 49 48 47 47 46 46 46 44 43 41 41 40 37 35 35 34 33 33 32 33 32 31 30 29 29 28 27 25 23 22 22 21 20 19 19 19 19 19 19 19 19 19 19 20 21 22 23
55 53 52 50 49 49 49 48 48 47 44 43 43 42 41 39 37 36 35 34 34 34 33 32 31 29 29 28 27 25 24 23 22 21 21 20 20 20 19 19 19 19 19 19 20 21 22 23 24
55 54 54 53 52 51 52 51 50 49 46 45 46 46 44 41 39 38 37 36 35 34 34 33 31 30 29 28 27 25 24 23 22 21 21 20 20 20 19 19 20 20 20 20 21 22 23 24 24
54 54 55 56 55 53 54 53 53 50 49 48 48 48 45 43 41 40 39 38 36 35 34 33 32 31 30 28 27 26 24 23 22 22 21 21 20 20 20 20 20 20 21 21 22 23 24 24 25
55 56 57 57 56 54 55 57 54 51 51 51 50 49 47 45 43 42 41 39 37 36 35 34 33 31 30 29 28 27 25 24 23 22 21 21 21 20 20 20 20 21 22 23 23 24 24 25 26
55 57 58 55 55 54 56 57 53 52 53 52 52 50 49 48 46 44 42 41 40 38 37 35 34 32 31 30 28 27 26 25 23 23 21 21 21 21 21 21 21 22 23 24 24 25 25 26 27
55 56 57 55 54 55 57 57 54 53 54 54 53 52 50 50 48 46 44 43 42 40 38 37 35 33 32 31 29 28 27 26 24 24 23 22 22 22 22 22 22 23 24 25 25 26 26 27 28
53 54 55 55 54 55 57 58 55 55 55 55 54 53 52 51 50 48 46 45 44 42 40 38 37 35 34 32 30 29 28 27 26 25 24 24 23 23 23 24 24 25 25 26 27 27 28 29 30
51 53 54 54 53 55 56 57 57 56 57 57 56 55 54 52 51 50 49 47 46 45 43 40 38 37 35 33 31 30 29 28 27 26 26 25 25 25 25 26 26 26 27 27 27 28 29 30 31
52 53 54 54 53 54 57 59 59 58 58 58 57 56 55 54 53 52 50 50 48 47 44 42 40 38 36 34 33 32 31 29 28 27 26 26 26 26 26 27 27 28 28 28 29 30 30 31 32
52 53 52 52 54 56 57 60 60 60 59 59 59 58 56 55 54 53 52 51 50 48 46 44 42 40 38 36 35 34 32 31 29 28 28 28 28 28 28 28 29 29 29 30 30 31 31 32 33
50 51 52 52 53 56 57 61 61 60 61 61 60 60 58 56 55 55 53 52 51 50 48 46 44 42 40 39 37 35 34 32 31 30 30 30 30 30 30 30 30 30 31 31 32 32 33 33 34
47 49 51 52 53 55 57 61 63 60 62 61 60 60 59 58 57 56 54 53 52 51 50 48 46 45 42 41 39 37 35 34 33 32 32 31 31 31 31 31 31 31 31 32 33 33 33 34 35
45 47 50 51 53 57 56 59 64 61 60 60 60 60 60 59 58 57 56 55 54 52 51 51 49 47 45 43 41 39 37 36 35 34 34 33 33 32 32 32 32 32 32 33 34 34 34 35 35
44 47 48 50 53 57 54 59 63 57 56 58 59 59 59 59 59 59 57 56 55 54 52 52 51 49 47 45 43 41 39 38 37 36 35 35 34 34 34 33 33 34 34 34 34 34 34 35 36
40 45 48 49 50 53 53 58 59 54 53 54 57 58 59 60 60 60 58 57 56 55 53 52 51 50 48 46 44 42 41 40 39 38 37 36 35 35 35 35 35 34 34 34 35 35 35 36 36
39 43 44 45 47 49 53 54 54 53 53 52 54 56 57 58 58 58 58 57 56 56 54 52 51 50 49 48 46 44 43 42 40 39 38 38 37 36 36 36 35 35 35 35 35 35 35 36 37
39 40 41 43 45 47 49 50 52 52 51 51 50 51 53 57 58 58 57 57 56 55 54 53 52 51 50 49 48 46 44 42 42 41 40 39 38 38 37 37 36 36 35 35 35 35 36 37 37
38 42 42 43 44 45 47 48 46 47 48 49 49 49 50 53 55 56 56 56 56 54 54 54 53 51 50 49 48 46 45 44 43 42 41 40 39 38 37 37 36 36 36 35 35 36 37 37 38
34 39 42 45 46 45 44 43 40 42 44 46 45 46 47 49 52 54 54 55 55 54 53 53 53 52 50 49 48 47 45 45 43 42 41 40 39 38 38 37 37 37 36 36 36 37 37 38 38

GEFSSGP_500_meanwind_144.txt.gz
Wind_Speed
39 39 38 38 39 38 34 30 30 31 31 31 31 31 31 30 31 31 29 27 27 27 28 27 26 25 23 22 21 20 19 17 16 15 14 13 12 12 11 11 11 11 10 10 11 11 11 11 11
42 42 42 42 42 39 34 31 32 32 33 33 34 33 33 31 30 30 29 28 28 28 28 28 27 26 25 24 23 21 20 19 17 16 15 14 14 13 13 12 12 12 11 11 12 12 12 12 13
45 45 45 45 44 39 34 32 34 35 35 35 35 35 34 33 31 30 29 29 29 29 28 29 29 28 27 25 24 23 22 20 19 18 17 15 15 14 14 13 13 13 13 13 12 12 12 13 13
48 48 49 49 45 39 36 36 37 37 38 37 36 36 35 34 32 31 30 30 30 30 29 29 30 29 28 27 25 24 23 21 20 19 18 16 16 15 15 14 14 14 13 13 13 13 13 14 14
50 52 53 51 45 40 38 38 40 40 39 38 38 37 36 35 34 32 31 31 31 31 31 30 30 30 29 28 27 26 24 22 21 20 19 18 17 16 16 15 15 14 14 14 14 14 14 15 15
53 54 55 52 46 42 41 41 42 42 42 41 40 39 37 36 35 33 33 32 33 32 32 31 30 30 30 29 28 27 25 24 22 21 20 19 18 17 17 16 16 15 15 15 15 15 15 15 16
54 55 55 52 48 45 43 43 44 44 44 43 42 41 39 37 36 35 34 33 33 33 33 32 31 31 30 29 29 28 27 25 24 22 21 20 19 19 18 17 16 16 16 16 16 16 16 16 16
55 57 57 53 50 46 44 46 46 46 46 45 44 42 40 38 37 37 36 35 34 34 33 33 32 31 31 30 30 29 28 26 25 24 22 21 20 20 19 18 17 17 17 16 16 16 16 16 17
56 59 57 52 49 46 46 48 48 48 48 47 46 44 41 41 39 38 37 36 35 34 33 33 32 32 31 31 30 30 29 27 26 24 23 22 21 20 19 19 18 17 17 17 17 17 17 17 18
57 59 53 50 49 48 49 50 50 50 50 48 47 46 44 42 41 39 38 36 35 35 34 33 33 32 32 32 31 30 29 27 26 25 24 22 21 21 20 19 19 18 18 18 17 17 17 18 18
57 55 51 51 51 51 51 52 52 52 51 49 48 47 46 44 43 41 39 37 37 36 35 34 34 33 32 32 32 31 29 28 27 26 24 23 22 21 21 20 20 19 19 18 18 18 18 18 19
56 54 53 52 53 53 53 54 54 54 52 51 50 49 49 47 44 43 41 39 38 37 36 35 34 34 33 32 32 31 30 29 28 27 25 24 23 22 22 21 20 20 20 19 19 19 19 19 20
54 53 53 53 54 54 54 55 55 55 53 52 52 51 50 48 46 44 43 42 40 38 37 35 35 35 34 33 32 31 31 30 29 28 26 25 24 24 23 22 21 21 20 19 20 20 20 20 20
51 51 53 53 54 54 55 56 56 54 53 54 54 53 51 50 48 46 45 43 41 39 37 36 36 36 35 34 33 32 31 31 30 29 27 25 25 25 24 23 22 21 20 20 21 21 21 20 21
48 50 52 53 53 53 55 58 56 53 54 55 55 54 52 51 50 48 46 44 42 40 39 38 37 37 36 36 35 33 32 31 31 30 28 27 26 25 24 23 23 22 21 21 21 21 21 21 22
46 48 50 50 53 53 56 57 53 53 55 55 55 55 54 53 51 49 47 46 44 42 40 39 38 37 37 36 35 34 33 32 32 30 29 28 27 26 25 24 23 23 22 22 22 22 22 22 22
44 46 47 47 50 53 56 56 53 54 55 56 55 56 55 54 52 51 49 48 46 44 42 40 39 38 38 37 36 35 34 33 32 31 30 29 27 26 25 24 24 23 23 23 23 22 23 23 23
42 44 46 46 48 52 55 55 54 54 56 57 56 56 56 55 54 52 50 49 48 46 44 42 41 40 39 38 37 36 35 34 32 31 30 29 28 27 25 24 24 24 23 23 23 23 23 23 24
41 44 45 45 47 51 54 55 55 55 55 57 58 58 57 56 55 53 52 51 50 48 46 44 42 41 40 39 37 36 35 34 32 31 31 29 28 27 26 25 25 24 24 23 24 24 24 25 25
40 43 45 45 46 50 54 56 55 57 56 56 58 59 58 57 57 56 53 52 51 50 48 46 45 42 41 39 38 37 36 35 34 33 31 30 29 28 28 27 26 25 25 24 25 25 26 26 27
40 41 43 45 46 49 52 56 55 56 57 57 58 59 59 58 58 57 55 54 52 51 50 48 46 44 42 41 40 39 38 36 34 33 32 31 30 30 29 28 27 26 26 26 26 27 27 28 29
39 39 42 44 47 49 50 55 54 54 56 56 57 58 59 58 58 57 56 55 53 52 51 49 47 45 44 43 42 40 38 36 34 34 33 32 31 30 30 29 28 27 27 27 28 29 29 29 29
36 38 41 43 45 49 50 54 53 52 55 55 55 56 58 58 58 57 57 55 54 53 52 51 49 47 46 45 43 41 39 37 36 35 34 33 32 31 30 30 29 29 29 29 29 29 30 30 30
35 36 40 42 44 49 47 51 54 51 51 52 54 55 56 58 58 57 57 57 55 54 53 52 51 49 48 46 44 43 40 39 38 36 35 34 33 32 31 31 30 29 29 30 30 30 30 31 32
35 35 38 41 44 47 44 49 51 48 47 49 51 53 55 56 58 58 58 58 57 55 54 53 52 51 49 47 46 44 42 41 39 38 37 35 34 33 32 32 31 30 30 31 31 31 31 32 32
33 35 36 39 42 44 44 47 47 46 46 48 49 52 55 56 58 59 58 58 58 56 54 54 53 51 49 48 46 44 43 42 41 39 38 36 35 34 34 33 32 31 31 31 31 31 32 33 33
31 32 33 36 39 41 44 45 44 43 45 46 49 51 54 56 57 58 59 59 59 58 56 54 53 52 50 48 47 46 44 43 41 40 39 38 37 36 35 34 34 33 32 32 32 32 33 33 34
30 30 32 34 37 39 42 43 42 41 42 44 47 49 51 54 56 57 58 59 59 58 57 55 54 52 50 49 48 47 45 44 42 41 40 39 38 37 36 36 35 34 33 33 33 33 34 34 34
28 30 31 33 36 38 41 42 38 37 39 42 44 47 49 52 55 56 56 56 58 58 57 56 55 53 51 50 48 47 45 44 43 42 40 39 39 38 37 37 35 35 34 34 34 34 35 35 35
29 30 31 32 34 37 39 40 36 35 36 38 41 44 47 50 53 54 55 56 57 58 57 56 55 54 52 51 49 48 46 45 44 43 42 40 39 39 38 38 37 36 35 35 35 35 35 36 36

GEFSSGP_500_meanwind_150.txt.gz
Wind_Speed
38 39 40 40 41 42 38 34 30 29 31 33 35 35 34 34 34 33 31 29 29 29 29 29 28 27 27 25 24 22 21 19 18 16 15 14 13 12 11 10 9 8 8 9 9 9 10 10 11
41 42 43 44 45 43 38 34 32 32 35 36 37 36 36 36 35 34 33 30 30 30 30 30 29 29 28 27 26 24 23 21 20 18 17 16 15 14 13 11 10 10 10 10 10 11 11 11 11
44 45 46 47 47 44 38 35 35 37 39 39 39 38 38 36 36 35 34 33 31 31 31 31 30 30 29 29 28 26 25 23 22 20 19 17 16 15 14 13 12 12 12 12 11 12 12 12 12
46 48 50 51 49 43 39 38 39 41 42 42 42 41 40 38 37 36 36 35 34 33 33 32 31 31 31 30 29 28 27 25 23 22 20 19 18 17 16 15 14 13 13 13 12 12 12 13 13
49 51 53 53 49 44 41 40 42 44 45 45 45 44 42 40 39 38 38 37 36 35 34 34 33 32 32 31 30 29 28 27 25 23 22 21 19 18 17 16 15 14 14 14 13 13 13 14 14
52 54 55 54 49 46 44 43 44 45 46 47 47 46 44 42 41 40 40 39 38 37 36 35 34 34 33 33 32 31 30 28 26 25 24 22 21 19 18 17 16 16 15 14 14 14 14 14 14
54 56 57 54 50 47 45 45 46 47 47 48 49 49 47 45 44 42 41 40 39 38 37 36 35 35 34 34 33 33 31 30 28 27 25 24 22 21 20 18 18 17 16 15 15 15 15 15 15
55 57 58 55 51 48 46 48 48 50 49 50 51 51 49 48 46 45 43 42 41 40 39 38 36 36 36 35 35 34 33 31 30 28 27 25 24 22 21 20 19 18 17 16 16 16 16 16 16
55 58 58 54 51 49 48 50 51 52 53 52 53 53 52 50 49 47 45 44 42 41 40 39 38 37 37 36 35 35 34 33 31 30 28 26 25 23 22 21 20 19 18 17 17 17 17 17 17
55 58 55 52 52 51 51 52 52 53 54 54 53 53 54 52 50 49 47 45 44 42 41 40 39 38 38 37 36 35 35 34 32 31 30 28 26 25 23 22 21 20 19 18 18 18 18 18 17
55 56 53 53 53 53 52 53 53 54 54 54 54 54 55 54 52 51 49 47 45 44 42 41 40 39 39 38 37 36 36 35 33 32 31 30 28 26 25 23 22 21 20 19 19 19 18 18 18
54 53 52 52 52 54 54 54 55 55 54 55 56 56 56 55 54 52 51 49 47 46 44 42 41 40 39 38 38 37 37 36 35 33 32 31 30 28 26 24 23 22 21 20 19 19 19 19 19
52 52 51 51 51 53 54 55 56 55 54 56 57 57 57 56 55 54 53 51 49 47 46 44 42 41 40 39 39 38 37 37 36 34 33 32 31 29 27 25 24 23 22 21 20 20 19 19 20
49 50 50 50 50 51 54 54 55 53 54 57 57 58 57 57 56 56 54 52 50 48 47 45 43 41 40 40 39 39 38 37 36 35 34 33 32 30 28 26 25 24 23 22 21 20 20 20 20
46 47 47 47 48 49 53 55 52 50 55 56 57 58 58 58 57 56 55 53 50 49 48 47 45 43 42 41 40 40 39 38 37 36 34 33 32 31 29 27 26 24 23 22 22 21 21 21 21
42 44 44 43 46 48 52 54 49 50 54 56 57 58 58 58 57 56 56 54 52 50 49 47 47 45 43 42 41 40 40 39 37 36 35 34 33 31 29 28 26 25 24 23 22 22 22 22 22
40 41 41 41 44 48 51 51 48 50 52 55 56 58 59 59 58 57 56 55 53 51 50 49 47 46 45 44 43 42 41 39 38 36 35 34 34 32 30 29 28 26 25 24 23 23 23 23 23
39 41 40 39 41 46 49 50 47 49 51 53 55 57 58 59 58 57 56 56 55 53 51 50 49 48 47 46 44 43 42 40 39 37 36 35 34 32 31 30 29 27 26 25 24 24 24 24 24
38 40 40 38 40 43 45 48 47 48 50 51 54 56 58 58 59 59 58 57 56 55 53 51 50 49 48 47 45 43 42 41 40 38 37 36 34 33 32 31 29 28 27 26 26 25 25 25 25
38 39 38 37 39 42 43 45 45 46 48 49 51 54 57 58 59 60 59 58 57 56 54 52 51 51 49 47 46 45 44 43 41 40 39 37 36 34 33 31 30 29 28 27 27 26 26 26 26
37 38 37 38 39 40 42 44 44 45 47 49 51 52 55 58 59 60 61 59 58 57 55 54 52 51 50 48 47 46 45 44 42 40 39 38 37 36 34 32 31 30 29 28 27 27 27 27 27
35 35 37 38 39 38 39 43 43 43 46 49 51 52 53 56 58 60 61 60 58 57 56 55 54 53 51 49 47 46 45 43 42 41 40 39 38 37 35 33 32 32 31 30 29 28 28 28 28
35 34 36 37 38 39 37 42 42 42 43 46 49 51 53 56 58 60 61 61 59 58 57 57 56 54 52 51 48 47 46 44 43 42 41 40 39 37 36 34 33 33 32 30 30 29 29 29 29
33 34 35 36 38 40 37 41 41 40 40 42 46 49 52 55 57 59 61 62 61 60 59 58 57 56 54 52 50 48 46 45 43 42 41 40 39 37 36 35 34 33 32 31 30 30 30 30 29
32 33 34 35 37 38 35 39 38 35 38 40 42 47 51 54 55 58 60 62 62 61 60 59 57 57 56 54 52 50 47 46 44 42 41 40 39 37 36 36 34 34 33 32 32 31 30 30 30
30 31 33 35 36 36 35 37 36 34 35 39 40 45 49 53 55 57 59 60 62 62 61 60 58 58 57 55 53 50 48 47 46 44 42 41 40 38 38 37 36 35 34 34 33 32 31 31 31
28 28 30 32 33 35 35 35 34 34 34 37 39 43 47 52 54 56 59 59 60 61 62 61 59 58 57 56 54 52 50 49 47 45 44 42 41 40 39 38 37 36 35 34 33 32 32 32 32
29 27 27 30 31 32 33 32 32 32 34 36 38 40 44 49 53 55 57 58 59 60 61 62 61 60 58 56 55 52 51 50 48 46 45 43 42 41 40 39 38 36 35 35 34 33 33 33 33
29 28 28 29 30 31 31 29 29 30 31 34 38 40 42 46 52 54 55 56 58 60 61 61 61 60 58 57 55 54 52 51 49 47 45 43 43 41 40 39 38 37 36 35 35 34 34 33 33
28 28 29 31 31 31 32 29 27 28 29 31 36 39 42 45 50 54 55 56 58 60 60 61 61 60 59 57 56 54 53 52 51 49 47 44 43 42 40 40 39 38 36 36 35 35 35 34 34

GEFSSGP_500_meanwind_156.txt.gz
Wind_Speed
30 30 32 33 34 34 32 30 28 28 30 32 34 35 34 34 33 33 32 31 31 31 31 30 29 29 29 28 28 27 26 25 24 23 22 21 20 19 17 16 15 14 13 12 10 9 8 8 8
32 33 34 35 37 36 34 32 31 31 34 35 37 37 37 36 35 34 33 32 33 33 33 32 32 31 30 30 30 29 28 28 27 25 24 23 21 20 19 18 17 15 14 13 12 11 10 9 9
35 36 37 39 39 38 37 36 35 35 37 38 39 40 40 38 37 36 36 35 35 35 35 34 34 33 32 32 31 31 30 30 29 27 26 25 23 22 21 19 18 16 15 14 13 12 11 11 10
38 40 41 42 41 39 39 39 38 39 40 41 43 43 42 41 40 39 39 38 37 37 37 36 35 35 35 34 33 33 32 31 30 29 28 27 25 24 23 21 20 18 17 16 14 14 13 12 12
41 42 44 44 43 41 41 42 41 42 43 44 45 46 45 44 43 41 41 41 40 40 39 38 37 37 37 36 36 35 34 33 32 31 30 28 27 26 24 23 21 20 18 17 16 15 14 13 13
44 44 46 46 44 43 44 44 45 45 46 46 47 48 47 46 45 44 44 43 43 42 42 41 39 38 38 38 38 37 36 35 34 33 32 30 29 27 26 24 23 21 20 19 18 17 16 15 14
46 47 47 48 47 46 46 47 48 48 49 48 50 51 49 48 48 47 46 46 45 45 44 43 42 41 40 40 39 39 38 37 36 34 33 32 31 29 27 26 24 23 21 20 19 18 17 16 15
47 49 49 48 49 48 48 49 50 50 51 51 52 53 51 50 50 49 49 48 47 47 46 45 45 44 43 42 41 41 40 39 38 36 35 34 32 31 29 27 26 24 23 21 20 19 18 17 16
48 51 51 49 50 49 50 52 51 51 52 53 54 54 54 53 52 51 51 50 49 49 48 47 46 46 45 44 43 43 42 41 39 38 37 35 34 32 31 29 27 26 24 23 21 20 19 18 17
49 52 51 51 52 51 51 53 53 53 53 54 55 56 56 55 54 53 52 52 51 50 50 49 48 48 47 46 45 44 44 43 41 40 39 37 35 33 32 30 29 27 25 24 23 21 20 19 18
48 50 50 51 52 53 52 53 54 55 54 54 56 57 57 57 56 55 54 54 53 52 51 51 50 50 49 48 47 46 45 44 43 41 40 38 37 35 33 31 30 29 27 25 24 23 21 20 19
48 48 49 50 52 53 54 53 53 55 54 55 57 58 58 58 57 57 56 56 56 55 53 53 52 52 51 50 49 48 46 45 44 43 41 40 38 36 35 33 31 30 28 26 25 24 23 22 20
47 47 49 50 51 52 54 53 53 53 54 55 56 57 58 59 58 58 58 58 58 57 56 55 54 54 53 52 50 49 47 46 45 44 42 41 39 38 36 34 33 31 29 28 26 25 24 23 22
45 46 48 48 49 50 52 51 51 50 51 54 55 56 57 58 58 59 59 59 59 59 58 57 56 55 54 53 52 50 48 47 46 45 44 42 41 39 38 36 34 32 30 29 28 26 25 24 23
45 46 46 45 46 46 50 50 48 47 49 51 53 54 55 57 58 59 59 60 60 61 60 58 58 57 55 54 53 52 50 48 47 46 45 44 42 40 39 38 36 34 32 30 29 27 26 25 24
44 45 45 42 43 43 47 47 44 45 47 49 50 52 53 54 56 58 59 60 61 62 61 59 58 57 56 55 54 53 51 49 48 47 45 44 43 41 40 39 37 35 33 31 30 28 27 26 24
44 44 43 41 40 42 45 44 41 43 45 47 48 50 52 53 55 57 58 60 61 62 61 60 59 58 57 56 55 53 52 50 49 48 46 44 43 42 40 39 38 36 34 32 31 29 28 27 26
42 42 41 40 39 41 43 42 39 41 43 44 46 48 51 52 53 56 57 59 61 63 62 60 60 58 58 57 56 54 53 51 50 48 47 45 44 43 42 40 38 36 35 33 32 30 29 28 26
41 41 40 38 39 41 41 40 39 39 41 42 44 46 49 50 52 56 57 59 60 62 62 61 60 59 58 58 56 55 53 52 51 50 48 46 45 44 42 40 39 37 35 34 33 31 30 28 27
39 39 39 37 37 40 40 38 37 37 39 41 42 44 46 48 51 55 57 58 60 61 62 62 60 60 59 57 56 55 54 53 52 51 49 47 46 45 43 41 39 38 36 35 33 32 30 29 28
38 38 38 37 36 37 39 37 35 35 36 38 40 41 43 46 49 53 55 57 59 61 62 62 60 60 59 57 56 55 55 54 53 52 50 48 46 45 44 42 41 39 37 36 34 33 32 30 30
37 37 36 36 37 37 36 37 33 33 35 36 37 39 42 45 47 50 53 57 59 60 62 62 61 60 59 57 56 55 55 53 52 51 50 49 48 46 45 44 42 40 38 36 35 35 33 32 31
37 37 35 34 36 36 34 37 30 30 32 34 36 37 40 43 46 48 50 55 59 60 62 62 61 61 59 58 56 55 54 53 53 52 51 50 48 47 46 44 43 41 39 38 36 35 34 33 32
36 36 35 34 34 34 32 34 31 27 29 31 34 35 38 42 45 47 49 54 59 61 61 63 62 60 60 58 57 55 54 53 53 52 52 50 49 48 47 45 44 42 40 39 38 36 35 34 34
33 33 34 34 33 33 31 33 29 26 26 28 31 34 37 40 44 46 49 53 58 61 61 63 61 60 60 58 57 55 54 54 54 53 52 51 49 48 47 45 44 43 41 40 39 38 37 36 35
32 30 31 32 32 32 32 32 28 25 25 26 29 33 36 39 43 45 49 52 57 60 61 62 63 61 60 58 57 56 55 55 54 53 52 51 49 48 47 46 45 44 43 41 40 39 38 37 36
33 30 29 31 31 31 31 30 26 23 25 26 28 31 35 38 41 44 48 52 56 59 61 61 62 61 60 60 58 56 54 54 54 53 52 50 50 49 48 47 46 45 44 41 40 39 38 37 36
32 31 30 30 31 31 29 28 26 23 23 26 28 30 33 36 39 43 48 52 57 59 61 61 62 61 59 60 59 56 54 53 52 53 52 50 50 48 48 47 46 45 44 42 40 40 39 38 37
32 31 30 31 30 31 31 29 24 22 23 25 27 29 32 35 37 41 46 52 56 59 60 61 62 61 61 60 59 58 56 55 53 53 52 50 50 48 48 47 47 45 44 43 41 40 39 38 37
32 30 30 31 31 32 33 30 24 23 23 25 27 30 32 34 37 40 44 50 54 57 60 61 61 62 62 61 60 58 56 56 55 54 52 51 50 48 47 47 46 45 44 43 41 40 40 39 38

GEFSSGP_500_meanwind_162.txt.gz
Wind_Speed
25 26 27 28 28 28 27 27 27 27 28 28 28 29 30 30 31 33 32 30 29 29 29 30 30 30 30 30 29 28 28 27 27 26 25 24 22 21 21 19 19 18 17 15 14 14 13 12 12
28 28 30 30 31 31 29 29 30 30 30 31 31 32 32 32 33 35 33 32 31 31 32 32 32 32 32 32 31 31 30 29 29 28 27 26 25 24 23 22 21 20 19 17 16 15 15 14 13
31 32 33 33 33 33 32 32 33 33 33 33 34 34 35 35 36 38 36 34 34 34 34 35 35 35 34 34 33 33 33 32 31 30 29 28 27 26 25 24 23 22 21 19 18 17 16 15 15
34 35 36 36 35 35 35 35 36 36 36 36 37 37 37 38 39 40 38 37 37 37 36 37 37 37 37 36 35 35 35 34 33 32 31 30 29 28 27 26 25 24 22 21 20 19 18 17 16
36 38 39 39 38 38 38 39 40 40 40 39 40 40 40 41 42 42 41 40 40 39 39 39 40 40 39 38 37 37 37 36 35 34 33 32 31 30 29 28 27 26 24 23 22 21 20 19 18
39 40 41 41 41 41 41 42 43 44 44 43 43 43 43 44 45 44 43 44 43 42 42 42 42 42 41 41 40 39 39 38 38 36 36 34 33 32 31 30 29 28 26 25 24 23 21 21 20
41 42 43 43 43 43 43 44 46 46 47 46 46 46 45 47 47 46 46 46 46 45 45 45 44 44 44 43 42 42 41 40 39 39 38 37 36 34 33 32 31 30 28 27 25 24 23 22 21
42 43 44 45 46 45 45 46 47 48 49 48 48 48 48 49 49 49 49 48 48 47 47 47 47 46 46 45 45 44 43 43 42 41 40 39 38 37 35 34 33 32 30 28 27 26 25 23 23
42 44 45 46 47 46 46 48 48 49 50 50 50 50 51 52 52 51 51 51 50 49 49 49 48 48 48 48 47 46 46 45 44 43 42 41 40 39 37 36 35 33 32 30 29 27 26 25 24
43 45 45 46 47 47 46 48 49 50 51 51 52 52 53 54 54 53 53 53 52 52 51 51 50 50 50 50 49 48 48 47 46 45 44 43 42 40 39 38 36 35 33 32 30 29 27 26 25
44 44 44 44 46 47 48 49 51 52 52 53 53 53 55 55 54 54 55 55 55 54 53 53 53 52 52 51 51 50 50 49 48 47 46 45 43 42 41 39 37 36 35 33 31 30 29 27 26
43 43 43 43 44 46 47 49 51 52 52 54 54 54 55 56 56 56 56 57 57 56 55 55 55 54 54 53 52 51 51 51 50 49 48 47 45 44 42 40 39 37 36 34 33 31 30 29 27
41 41 43 44 45 46 48 49 51 51 52 54 55 55 55 55 56 56 57 58 58 58 57 57 57 56 55 55 54 53 53 52 51 50 50 48 47 45 44 42 41 39 37 36 34 32 31 30 28
39 41 42 43 45 46 48 49 51 50 51 52 54 54 54 55 56 56 57 58 59 59 58 59 59 58 57 56 56 55 54 53 52 51 51 50 48 47 45 44 42 41 39 37 35 34 32 31 30
40 41 42 42 44 46 48 48 48 48 50 51 52 52 52 53 54 55 56 57 58 59 59 59 59 59 59 58 57 57 56 54 54 53 52 52 50 48 47 45 43 42 40 38 37 35 33 32 30
40 42 42 42 44 45 47 47 46 47 49 50 51 51 51 51 52 53 54 55 57 58 59 59 60 60 60 60 59 59 58 56 55 53 53 53 52 49 47 46 44 43 42 40 38 36 35 33 31
42 43 43 43 44 45 47 46 44 46 48 48 49 49 50 49 49 51 52 53 53 55 57 58 58 60 61 61 61 60 59 58 55 54 53 53 52 50 49 47 45 44 43 41 39 37 36 34 32
43 44 44 44 44 46 47 47 45 44 45 46 47 47 47 47 47 48 50 51 51 52 54 57 58 60 61 62 62 61 61 59 56 56 55 54 53 52 51 48 46 45 44 42 40 39 37 35 33
44 44 44 44 43 46 47 47 45 44 44 43 44 44 44 44 44 46 48 50 49 50 53 54 57 59 61 62 63 62 61 59 56 56 55 54 54 52 51 49 47 46 44 43 41 40 39 37 35
45 45 45 45 44 45 46 45 44 42 42 42 41 40 41 41 42 44 47 49 49 49 52 52 55 58 61 62 62 62 61 60 57 56 55 53 53 51 50 50 48 46 45 43 41 40 39 38 37
44 44 46 46 45 44 46 45 41 40 39 39 39 38 38 40 40 40 43 46 47 48 50 52 54 56 59 62 64 63 61 60 58 55 55 55 53 52 50 50 49 47 46 44 42 40 39 38 37
43 43 45 45 45 44 44 47 40 38 38 37 36 36 36 37 39 41 41 44 46 47 49 52 54 55 58 61 63 63 62 60 58 56 54 53 54 52 51 51 49 48 47 45 43 41 39 39 38
44 44 44 45 44 44 41 44 40 37 36 34 33 34 35 35 37 39 41 42 45 46 49 51 53 54 56 59 63 63 61 60 59 56 54 54 55 53 52 51 50 49 48 46 45 43 41 39 39
44 44 44 44 43 43 38 41 41 36 35 34 33 33 34 35 36 38 39 41 43 44 47 49 51 53 55 57 62 62 62 60 60 57 55 55 56 54 53 51 50 49 48 47 46 45 42 40 39
43 44 44 44 43 41 38 39 39 37 36 34 33 33 32 33 34 35 36 38 40 43 45 47 50 51 54 56 59 60 61 60 59 58 56 54 54 54 52 51 50 49 48 48 46 45 44 41 39
42 42 42 44 44 43 39 38 36 35 34 33 32 31 31 31 32 33 34 35 37 40 43 46 50 51 53 56 59 60 61 59 58 57 55 53 52 52 52 51 50 49 47 47 46 45 43 42 41
41 41 41 43 45 44 40 37 35 33 32 31 30 29 30 30 30 31 32 33 34 37 40 44 49 51 52 55 58 59 59 59 57 55 53 51 50 50 51 51 49 50 48 47 46 44 43 43 42
41 41 41 41 43 43 41 37 34 32 30 30 29 28 29 30 30 30 31 32 33 35 39 42 47 50 52 54 57 56 57 58 58 56 54 52 49 49 50 50 51 50 48 47 46 45 43 42 41
42 41 41 41 41 41 42 36 32 32 31 31 29 28 28 28 28 29 30 31 32 35 39 41 44 48 51 54 56 55 55 57 57 56 54 53 50 48 48 49 49 48 47 47 46 44 43 42 41
42 40 40 41 41 41 43 40 32 31 31 31 30 29 28 28 28 28 29 32 33 34 38 41 43 46 50 52 55 55 55 57 56 53 53 52 51 50 49 48 47 46 45 45 44 43 42 41 40

GEFSSGP_500_meanwind_168.txt.gz
Wind_Speed
21 21 21 22 22 22 21 22 22 22 22 22 22 23 24 25 25 26 24 22 22 22 23 23 24 24 24 24 25 25 25 25 25 25 25 24 24 23 22 21 20 19 19 17 16 15 15 14 13
23 23 23 24 24 24 23 23 24 24 25 25 25 25 26 27 27 27 26 25 25 24 25 25 25 26 26 26 26 27 27 27 27 27 27 26 26 26 25 24 23 22 21 20 19 18 17 16 15
25 25 26 26 25 25 25 25 26 26 27 28 28 27 28 29 29 29 28 28 27 27 27 27 28 28 28 28 28 28 29 29 29 29 29 28 28 28 27 26 25 24 23 22 21 20 19 18 17
26 27 28 28 27 27 28 28 29 29 30 30 31 31 30 31 32 32 32 31 30 29 29 30 30 30 31 31 31 30 30 31 31 31 31 30 30 30 29 29 28 27 25 24 23 22 21 20 19
28 29 29 30 29 30 31 32 32 32 32 33 33 33 33 34 34 35 34 34 33 32 32 32 32 33 33 33 33 33 33 33 33 33 33 32 32 32 31 31 30 29 28 26 25 24 23 22 21
29 30 31 31 31 32 33 34 34 34 35 36 36 36 36 37 37 37 37 36 36 35 35 35 35 35 36 36 36 36 36 35 35 35 35 34 34 34 33 33 32 31 30 29 27 26 25 24 23
30 31 32 32 33 34 35 35 36 36 37 38 39 39 39 39 40 40 40 39 39 38 38 38 38 38 38 38 39 39 39 39 38 37 37 37 36 36 36 35 34 33 31 30 29 28 27 25 25
31 32 33 34 35 36 37 38 38 39 39 39 41 41 41 41 42 42 42 42 41 41 41 40 40 40 40 41 41 41 41 41 40 40 39 38 38 38 38 37 36 35 33 32 31 29 28 27 26
32 34 35 36 37 38 38 39 39 40 41 41 43 44 44 44 44 45 45 45 45 45 45 44 44 43 42 43 44 43 43 44 43 43 42 41 40 40 40 39 38 37 35 34 33 31 30 29 28
34 35 36 37 39 40 40 41 40 41 42 43 44 46 46 47 47 47 47 47 47 47 48 48 47 46 45 45 46 46 45 45 46 46 45 44 43 42 41 41 40 39 37 36 34 33 32 30 29
35 36 37 38 40 40 40 41 41 42 42 44 45 46 47 48 49 49 49 50 50 49 50 51 51 50 49 48 48 48 47 47 47 48 47 47 45 44 43 42 41 40 39 37 36 35 33 32 31
35 36 37 38 40 40 40 41 41 42 43 44 46 47 49 49 50 50 51 51 52 52 53 54 53 53 52 51 51 51 50 49 49 50 49 49 48 46 45 43 42 41 40 39 38 36 35 34 32
35 35 37 38 39 40 40 41 41 41 43 45 46 48 48 49 50 52 53 53 53 54 55 56 56 55 55 54 54 53 53 52 51 52 51 51 50 49 48 46 44 43 42 40 39 38 37 36 34
35 35 36 37 38 39 40 40 41 42 43 44 46 47 48 49 50 51 53 55 54 54 55 56 56 57 57 57 56 55 54 54 54 53 54 53 52 50 49 48 46 45 43 42 41 39 38 37 36
36 36 36 36 37 38 40 39 41 42 44 45 45 46 47 48 49 51 52 53 54 53 53 56 57 57 58 58 57 57 56 56 56 55 56 55 55 53 50 49 49 47 45 44 42 41 39 38 37
35 36 36 36 37 38 40 39 40 42 44 44 44 45 46 47 48 50 51 52 53 53 53 55 57 57 58 59 59 58 57 58 58 58 57 57 56 55 52 51 50 49 48 46 44 42 41 39 38
35 35 36 36 37 39 41 41 39 42 45 45 45 45 46 46 46 48 49 50 51 52 52 54 56 57 58 60 60 59 58 59 59 59 59 58 57 56 55 53 50 50 50 47 46 44 42 41 39
35 36 36 37 38 40 42 42 40 41 44 45 45 44 45 45 45 47 48 49 49 50 52 52 53 55 56 58 59 59 59 59 60 60 60 59 59 57 56 54 51 51 50 49 48 46 44 42 41
37 36 37 37 39 41 42 41 40 41 43 44 44 44 44 44 45 47 47 47 48 49 51 51 52 54 55 56 57 59 59 59 60 61 62 61 60 59 58 56 54 53 51 50 50 48 46 44 43
37 37 38 38 39 42 42 41 39 40 42 43 44 44 44 44 44 45 46 46 46 47 48 50 50 51 53 54 55 57 58 58 59 61 62 62 61 60 59 57 56 54 51 51 51 50 48 46 44
36 38 39 40 41 41 43 41 38 39 40 43 44 44 45 44 43 44 44 44 43 44 45 46 48 49 51 53 54 56 58 59 59 61 62 63 63 61 60 58 56 55 52 51 52 51 49 48 45
37 39 41 41 42 42 44 45 39 40 41 42 43 44 44 42 41 41 41 41 41 42 43 44 46 47 49 51 53 54 56 57 58 60 62 62 63 62 60 58 57 55 53 52 52 51 50 49 47
39 40 42 43 43 44 43 46 42 41 41 41 41 41 41 40 40 39 38 39 40 40 40 42 43 44 46 48 50 51 53 54 55 58 59 60 61 63 61 59 57 56 54 53 53 53 51 49 47
40 41 43 44 44 45 44 45 43 41 41 40 40 39 39 38 38 37 36 37 38 38 39 40 42 44 44 47 48 51 52 53 55 56 57 57 59 61 60 58 56 55 54 54 54 53 51 48 47
40 41 44 46 46 45 44 45 43 41 41 40 38 37 37 37 37 36 36 36 35 36 37 38 39 41 43 46 47 48 50 52 53 55 56 56 57 58 59 58 56 54 54 54 54 53 51 48 46
42 42 43 46 47 46 44 44 42 41 40 38 37 36 35 36 36 35 35 34 34 35 36 37 39 40 41 43 46 46 48 50 51 53 53 55 57 58 56 57 55 54 54 54 54 53 51 49 46
42 42 43 46 47 47 45 43 42 40 39 38 36 35 34 35 35 35 34 33 34 34 34 35 37 39 40 42 45 45 47 49 50 52 52 53 56 57 53 55 55 53 51 52 53 51 50 49 47
42 43 44 44 47 48 47 44 42 40 39 37 36 36 36 35 35 34 33 31 32 33 34 34 36 38 39 41 43 44 45 47 49 49 50 52 55 55 55 54 52 50 50 50 49 49 49 47 45
43 43 43 45 46 48 49 45 42 40 39 37 36 36 36 35 35 34 32 32 32 32 33 34 34 36 37 39 40 41 43 46 47 47 47 51 54 54 53 53 50 49 49 48 48 48 48 47 44
43 43 43 44 46 47 49 46 40 40 39 38 38 37 35 35 34 34 33 32 31 31 31 32 33 35 37 38 39 40 42 44 47 48 47 50 52 53 53 48 47 48 48 47 46 45 46 46 44

GEFSSGP_500_meanwind_174.txt.gz
Wind_Speed
19 19 20 21 21 21 21 20 20 20 21 21 21 22 21 22 21 22 21 20 21 21 21 21 22 22 22 22 22 22 22 22 22 21 21 21 21 20 20 20 19 18 17 17 16 16 15 14 13
20 21 22 22 23 22 22 22 22 22 22 23 23 23 24 24 23 23 23 22 22 23 23 23 23 24 24 24 24 24 24 24 24 23 23 23 22 22 22 22 22 21 20 19 19 18 17 16 15
21 22 23 23 24 24 24 24 24 24 24 25 26 26 26 25 26 25 25 25 24 24 25 25 25 26 26 26 25 25 25 25 25 25 25 25 24 24 24 24 24 23 23 22 21 20 20 19 18
23 23 24 25 25 25 25 26 26 26 26 27 27 28 28 28 28 28 28 28 27 27 27 27 27 28 28 29 28 28 27 27 27 27 27 26 26 26 26 25 25 25 25 24 23 23 22 21 20
24 25 25 25 26 26 27 27 27 28 28 29 29 30 30 30 30 30 30 30 30 30 30 30 30 31 31 31 31 30 30 30 29 29 29 28 28 28 27 27 27 26 26 26 25 25 24 23 22
25 26 26 26 26 27 28 28 29 29 30 31 32 32 33 33 33 33 33 33 33 32 33 33 33 33 34 34 34 33 33 32 32 31 31 30 30 29 29 29 28 28 28 27 27 26 26 25 24
27 27 27 27 28 29 29 30 30 31 32 33 34 35 34 35 36 36 36 36 36 36 36 36 35 35 36 36 36 36 36 36 35 34 33 33 32 32 31 31 31 30 30 30 29 28 27 26 25
27 28 28 29 29 30 31 32 33 33 34 35 36 37 36 37 38 38 39 39 39 39 39 39 39 38 38 38 38 38 38 38 38 37 37 36 35 34 34 33 33 32 32 32 31 30 29 28 27
26 28 28 30 31 32 33 34 35 35 36 37 38 39 39 39 40 40 41 41 42 42 42 41 41 41 41 41 41 41 41 40 40 40 40 39 38 37 37 36 36 35 35 34 33 33 32 31 29
27 28 29 31 32 33 34 35 36 37 37 39 40 40 41 41 41 42 42 43 43 44 44 44 44 44 44 44 44 44 44 43 43 42 43 43 42 41 40 39 39 38 38 37 35 34 33 33 31
28 29 30 32 33 34 35 36 37 38 39 40 40 41 42 42 42 43 43 44 45 46 46 46 47 46 47 47 47 47 47 47 46 45 45 45 45 45 44 43 42 41 41 39 38 37 35 34 34
28 30 31 33 34 35 36 38 38 39 40 41 41 42 42 43 44 44 44 45 46 47 48 48 49 49 49 50 50 50 49 50 49 48 48 47 47 47 47 46 45 44 43 42 40 39 38 37 36
29 30 31 33 34 36 37 38 39 40 41 41 42 43 43 44 45 46 46 47 48 49 49 50 51 51 52 52 52 53 52 52 52 51 51 50 49 49 49 49 48 46 46 45 43 42 41 39 38
30 31 32 33 35 36 37 38 39 40 41 42 42 43 45 45 46 47 48 48 49 49 50 51 52 52 53 54 54 54 54 54 54 54 54 53 52 52 52 51 50 49 48 47 46 44 43 42 40
30 31 32 34 36 37 38 38 39 40 40 41 42 43 45 45 46 48 48 49 50 50 51 51 52 53 54 55 56 56 56 56 56 57 56 55 54 54 54 54 53 52 51 50 48 47 46 44 43
31 32 33 34 36 37 38 37 38 39 40 40 41 42 44 45 46 48 49 50 51 51 52 52 53 54 55 56 57 57 58 58 58 59 59 57 56 56 56 56 55 55 54 52 50 49 48 46 45
30 32 32 33 35 36 36 35 36 38 39 40 41 42 44 45 47 48 49 50 52 52 52 53 54 55 56 56 57 58 58 59 59 61 61 60 58 58 58 58 57 57 56 54 52 51 50 48 46
32 33 33 33 35 36 35 35 35 38 40 41 42 43 44 46 47 49 50 50 51 52 52 52 54 55 56 57 58 59 59 59 60 62 62 61 61 60 61 60 59 60 59 57 54 52 51 50 49
34 35 35 35 36 37 36 35 35 38 41 43 44 45 46 47 48 49 50 51 51 52 52 51 54 55 56 57 58 59 59 58 60 61 63 62 62 61 62 62 61 62 61 59 56 53 53 52 51
35 36 36 36 38 39 37 35 36 38 41 43 44 45 47 47 48 49 49 50 51 51 51 51 51 52 55 57 58 58 59 58 59 60 62 63 63 62 61 62 62 63 62 60 58 56 54 53 51
36 37 37 38 38 39 39 36 36 38 40 42 44 46 47 48 49 50 50 49 50 50 50 51 51 52 53 54 56 57 58 58 58 59 61 62 62 62 62 62 63 63 63 62 61 58 55 54 53
37 38 39 39 40 39 40 41 37 39 39 42 44 46 48 49 50 50 50 49 49 50 51 50 50 51 51 52 53 54 55 55 56 57 59 61 62 62 62 62 64 63 63 64 62 59 56 55 54
39 39 40 41 41 41 41 43 40 40 42 44 46 47 48 49 49 49 50 50 49 50 51 50 49 49 50 50 51 50 50 51 53 54 56 59 60 61 61 61 61 61 61 62 62 60 58 56 55
41 41 42 42 42 43 43 44 44 43 45 46 47 48 49 49 49 48 48 49 49 49 48 48 48 47 47 47 48 49 48 48 49 50 53 56 57 59 59 59 59 60 60 61 62 61 60 58 56
42 42 44 45 45 45 45 47 45 45 46 47 47 48 49 49 49 48 48 47 48 47 47 46 46 45 45 45 46 46 46 46 47 47 50 53 54 56 57 55 57 60 61 61 61 60 60 58 56
42 43 44 46 48 47 47 48 46 45 46 47 47 48 48 48 48 47 46 46 46 46 45 45 44 44 45 45 45 45 44 44 45 46 47 50 51 52 53 53 55 58 60 60 60 58 59 57 55
43 43 44 46 49 50 49 49 47 46 46 47 48 48 48 48 48 47 46 45 44 43 43 44 43 43 43 43 43 43 42 41 42 44 45 46 49 51 51 52 52 55 56 56 58 58 58 56 55
43 44 45 46 49 52 51 50 49 47 46 47 48 48 48 47 47 46 45 44 43 43 43 43 43 42 41 41 41 41 40 40 41 43 43 44 46 48 50 50 51 53 54 53 56 57 57 56 55
44 45 46 47 49 51 53 51 49 47 47 47 47 47 48 47 46 45 44 43 42 42 42 42 40 40 39 40 39 38 39 39 41 43 43 43 44 45 46 47 48 50 51 51 53 55 55 54 54
46 46 47 48 49 50 54 53 48 47 46 46 46 47 47 47 45 44 43 42 41 41 41 40 39 38 37 36 36 36 36 37 40 42 42 42 43 44 43 43 45 47 48 49 50 51 52 52 51

GEFSSGP_500_meanwind_180.txt.gz
Wind_Speed
19 19 19 20 20 20 19 19 20 20 21 21 21 21 21 21 21 21 20 19 19 20 20 20 20 20 21 21 21 21 22 22 22 22 22 22 22 22 21 21 21 20 19 18 18 17 17 16 15
20 20 20 20 21 21 21 21 21 21 22 22 22 22 22 22 22 22 21 21 21 21 21 21 21 21 22 22 23 23 23 24 24 24 24 24 23 23 23 23 23 22 21 21 20 19 19 18 17
20 20 21 21 21 21 22 22 22 23 23 23 23 24 24 23 24 24 23 23 23 23 23 23 23 24 24 24 24 24 24 25 25 25 25 25 25 25 25 25 24 24 23 23 22 22 21 21 20
21 21 22 22 22 22 23 24 24 24 25 25 26 25 25 25 25 25 25 26 26 26 26 25 26 26 26 26 26 26 26 26 26 27 27 27 26 27 27 27 26 26 26 25 24 24 23 23 22
22 23 23 23 24 24 24 25 25 26 26 27 28 28 27 28 27 27 27 27 28 28 28 28 28 28 28 28 29 29 29 29 29 29 29 29 28 28 27 28 27 27 27 27 26 26 25 24 24
23 24 24 24 25 25 25 25 26 27 27 28 28 29 29 29 29 29 29 30 30 30 31 31 31 31 31 31 31 31 32 32 32 31 31 31 31 30 29 29 29 29 29 28 28 28 27 26 26
23 24 24 25 25 26 26 26 26 27 28 28 29 30 30 30 31 31 31 32 32 32 32 33 33 33 33 33 33 34 34 34 34 34 34 34 34 33 32 31 31 31 30 30 30 29 28 28 28
22 23 24 25 25 26 26 27 28 28 29 30 30 31 31 32 32 33 33 34 34 35 35 35 36 36 36 36 36 36 36 37 37 37 37 37 37 36 35 34 34 34 33 32 32 31 30 30 30
22 23 24 25 26 26 27 28 29 29 30 30 31 32 32 33 34 35 36 36 37 37 38 38 38 39 39 39 39 39 39 39 39 39 40 39 39 39 39 37 37 36 35 35 34 34 33 33 31
22 23 23 25 26 27 28 29 30 30 31 32 33 34 34 34 35 36 37 38 39 39 40 40 40 40 41 41 42 41 41 42 42 42 42 42 42 42 42 41 40 39 38 38 37 36 36 35 34
22 23 24 25 26 27 28 29 31 32 33 34 34 35 35 36 36 37 38 39 40 41 41 42 42 42 42 43 43 43 43 44 44 45 45 45 45 45 44 44 43 41 41 41 40 40 38 37 37
22 23 25 26 26 27 28 30 31 33 34 35 36 36 37 37 37 37 38 39 40 41 42 43 43 44 44 44 44 45 45 46 46 46 47 47 48 48 47 47 47 44 44 43 43 42 42 40 40
22 22 24 25 26 27 28 29 30 32 33 35 36 37 37 38 38 38 39 40 40 41 42 43 43 44 45 45 46 47 47 48 48 49 49 50 50 50 50 50 50 49 47 46 46 45 45 44 43
22 23 24 25 26 27 29 30 31 32 34 36 37 37 38 39 39 40 40 40 41 42 43 44 45 45 46 47 47 48 48 50 51 51 52 52 52 53 53 52 52 51 50 49 49 48 48 48 46
23 24 24 25 27 28 30 31 33 34 35 36 37 38 38 39 39 40 40 41 42 43 44 45 46 47 48 49 49 50 50 51 52 53 54 54 55 55 55 54 54 54 53 52 51 51 51 51 50
22 24 25 26 27 29 30 31 33 34 35 36 37 37 38 39 39 40 40 42 43 44 45 46 47 48 50 50 51 52 52 53 54 55 56 56 57 57 57 57 56 56 55 54 54 54 54 54 52
22 24 25 26 28 29 30 30 33 34 35 36 37 38 39 40 40 40 41 42 43 45 45 46 48 49 50 52 52 53 53 54 55 56 57 58 59 60 59 59 59 58 58 57 56 56 55 56 54
24 25 26 27 28 29 30 29 32 33 33 34 36 37 39 40 41 41 41 43 44 45 46 47 48 50 51 53 54 54 55 56 56 57 58 60 61 62 62 62 61 60 59 59 59 58 58 58 56
26 27 27 28 29 29 29 29 31 33 34 34 36 37 39 40 41 42 43 44 45 45 47 48 49 51 52 53 54 54 55 56 57 58 59 61 63 63 64 63 62 62 61 61 60 59 59 60 59
28 29 29 30 30 31 30 30 31 32 34 34 35 37 39 40 41 42 43 45 46 46 48 49 50 51 52 53 54 55 56 57 58 59 60 61 63 64 65 64 64 63 63 62 61 61 61 61 61
31 32 32 33 33 33 33 31 31 32 33 33 34 37 39 40 41 43 44 46 47 48 49 50 50 51 53 55 55 56 58 58 59 60 60 61 62 64 65 64 64 64 64 63 63 62 62 61 61
33 34 35 35 35 35 35 35 33 33 33 35 36 37 38 39 41 43 45 46 47 48 50 51 51 52 54 55 56 56 57 58 59 59 59 61 61 63 64 64 65 64 64 63 63 63 62 61 61
35 36 37 37 37 37 36 37 35 35 35 36 38 39 40 41 42 44 45 46 48 49 50 51 52 53 55 55 56 56 56 58 58 58 57 59 59 61 61 62 64 64 63 63 64 64 62 61 61
37 37 38 39 39 39 38 38 37 36 37 37 39 40 41 42 43 45 46 47 48 50 50 51 53 54 54 55 55 55 55 56 57 57 56 56 57 58 59 60 61 61 62 63 63 63 62 61 61
38 38 40 41 41 41 40 40 39 39 39 39 41 43 44 45 46 46 47 48 49 50 51 51 52 53 54 54 53 53 53 53 54 54 53 53 53 54 55 56 57 58 59 61 61 61 61 60 60
39 39 40 42 43 44 42 42 40 40 40 41 43 45 46 46 47 48 50 50 50 51 51 52 51 52 52 52 51 50 51 50 51 52 52 51 50 50 51 53 54 55 56 58 59 59 59 59 58
40 40 40 42 44 45 44 44 41 41 42 42 43 45 47 49 49 50 51 51 51 51 51 51 51 50 49 49 49 48 48 47 48 49 48 48 47 47 48 49 50 51 52 55 57 57 57 57 57
42 41 41 42 44 46 46 45 43 42 42 44 45 47 49 50 51 51 51 51 51 51 50 50 50 48 47 46 47 47 46 45 46 45 45 45 44 45 45 45 47 48 50 52 54 54 54 55 54
42 42 42 43 44 46 48 47 45 44 45 46 47 49 50 50 51 51 51 51 50 49 48 48 47 47 46 46 45 45 44 45 44 43 43 43 43 44 44 43 44 46 47 50 50 50 50 50 51
43 42 42 43 45 47 49 49 46 45 46 47 48 49 51 51 52 52 51 50 49 48 47 46 46 46 45 45 44 43 43 42 42 42 42 42 41 41 42 41 41 43 45 47 48 48 49 48 48

GEFSSGP_500_meanwind_186.txt.gz
Wind_Speed
19 19 20 20 21 21 20 21 21 21 21 20 21 22 23 23 23 23 22 21 21 21 21 22 22 22 22 22 21 21 21 21 21 21 21 21 21 20 20 21 21 21 21 21 20 20 20 19 20
20 20 21 21 22 21 22 22 22 22 22 22 22 23 23 23 23 23 22 22 22 22 22 23 23 23 23 23 23 23 22 22 22 22 22 22 22 22 22 22 22 22 22 22 22 22 22 22 22
21 22 22 22 22 22 23 22 23 22 23 24 24 24 24 24 24 24 24 24 24 23 24 24 24 24 24 24 24 24 24 24 24 24 24 24 24 24 24 24 24 24 24 24 24 24 24 24 24
22 22 23 23 23 23 24 23 23 24 24 25 26 26 25 25 25 26 26 26 26 25 25 25 26 26 26 26 26 26 26 26 26 26 26 26 26 26 26 26 26 26 26 26 26 26 26 26 26
23 23 24 24 23 24 25 24 24 25 25 26 27 27 26 27 27 27 27 27 27 27 27 28 28 28 28 28 28 29 29 28 28 28 28 28 28 28 28 28 28 28 27 27 28 28 27 27 27
24 24 24 24 25 25 25 25 25 27 27 27 28 29 27 28 28 28 29 29 29 29 29 29 30 30 30 30 30 30 31 31 31 30 30 31 30 30 30 30 30 30 30 29 29 29 30 29 29
24 24 24 24 25 26 26 26 27 27 28 28 28 30 29 28 29 30 30 30 30 30 30 30 31 31 32 32 32 33 33 33 33 33 33 33 33 32 32 32 32 32 32 32 32 32 31 31 31
24 25 25 25 26 27 25 26 28 28 28 28 29 31 29 28 29 30 31 31 32 32 32 32 33 33 34 35 35 35 36 36 36 36 36 35 35 35 35 35 35 35 35 35 35 35 34 33 32
24 25 25 26 27 27 26 27 28 29 29 29 30 31 30 30 31 32 32 32 33 33 34 34 35 35 36 37 37 38 38 38 38 38 38 38 38 38 38 38 38 38 37 37 37 37 36 36 35
22 23 24 25 26 26 26 27 27 28 29 30 31 32 32 32 33 33 33 34 34 35 36 36 36 37 37 38 39 39 40 40 40 41 41 41 41 41 41 41 41 40 40 40 39 39 38 38 38
20 21 23 23 24 25 26 27 27 28 29 30 31 31 32 33 34 34 35 35 36 36 37 37 38 38 39 39 40 41 41 42 43 43 43 43 43 43 43 43 43 43 43 43 43 42 41 41 41
19 20 21 22 24 25 26 26 27 28 29 30 30 31 32 32 34 35 36 36 37 37 38 39 40 40 41 41 42 42 43 43 44 44 44 45 45 45 45 45 45 45 45 45 44 44 44 43 43
19 19 20 22 23 24 25 26 26 27 28 29 30 32 32 33 34 35 36 37 37 38 38 39 40 41 42 43 43 43 44 45 46 46 46 46 47 47 47 47 47 47 47 47 47 46 46 45 45
19 19 20 21 22 24 25 26 26 27 29 29 30 31 32 33 34 35 36 37 38 38 39 40 41 42 43 43 44 44 44 45 46 47 48 48 49 50 50 50 50 50 49 49 49 49 49 48 47
20 20 20 21 22 23 25 25 26 27 29 29 30 31 32 33 34 35 36 37 38 39 39 40 41 43 44 44 44 44 45 45 47 48 49 49 51 51 52 52 52 53 52 52 52 52 52 51 50
21 21 22 22 23 23 25 25 26 27 29 30 31 32 33 34 35 36 37 37 38 39 39 40 41 42 43 44 45 46 46 47 48 49 51 52 52 53 54 54 54 54 54 54 54 54 54 53 52
23 23 24 24 23 25 25 26 27 28 29 30 32 33 34 35 36 37 37 38 38 39 40 41 41 42 43 44 46 47 48 49 50 51 53 54 55 56 56 56 56 57 56 56 56 56 56 55 55
25 25 25 26 25 26 26 27 28 29 30 31 32 33 34 34 36 37 38 38 39 40 41 42 42 43 45 46 47 48 50 51 52 53 54 55 56 57 58 58 58 58 58 58 58 58 58 58 57
27 27 27 28 28 28 28 28 28 30 31 31 33 34 35 35 36 37 38 39 40 40 42 43 44 45 46 47 49 50 51 51 53 54 55 56 57 58 59 59 59 60 61 61 61 61 61 61 60
28 28 29 30 30 30 30 30 30 30 31 33 33 34 35 36 38 38 39 40 41 42 43 44 46 47 48 49 50 51 52 52 54 55 56 57 58 58 59 61 62 62 63 63 63 63 63 62 61
31 31 31 32 32 32 33 32 31 31 32 33 34 35 35 37 38 39 40 41 42 43 44 46 47 48 49 50 51 52 53 54 55 56 57 58 59 59 60 62 63 63 64 64 64 64 63 62 62
33 33 33 34 34 35 35 36 32 33 33 34 35 36 36 37 39 40 40 42 44 45 46 47 48 49 51 52 53 54 55 55 56 57 58 59 60 60 61 62 63 64 65 64 63 63 63 63 63
35 35 35 36 37 38 37 38 35 35 34 34 35 36 37 38 40 41 41 43 44 45 46 48 49 50 51 53 54 55 56 57 57 58 59 60 61 61 61 62 63 63 64 64 63 63 63 63 63
37 37 38 39 39 40 38 39 38 37 36 36 36 37 38 40 41 42 43 43 44 46 48 49 50 51 52 54 56 57 58 58 59 59 60 61 61 62 61 62 62 62 62 62 62 62 61 60 61
38 39 40 41 42 42 41 41 40 39 38 39 39 39 40 41 43 43 44 44 46 47 48 50 51 52 54 55 57 58 59 59 59 60 60 61 61 61 61 61 61 61 61 61 61 60 59 58 58
40 40 41 42 44 44 44 44 42 41 41 41 41 42 42 44 45 45 46 47 48 49 50 51 52 53 54 55 56 57 58 59 59 59 59 60 59 58 59 59 58 58 58 58 58 57 56 56 56
41 41 41 43 45 46 45 45 45 44 43 43 43 44 45 46 47 48 49 50 51 52 52 53 54 54 55 56 57 57 57 58 58 57 57 57 56 57 56 55 54 54 55 55 54 54 54 54 53
43 43 43 43 45 46 47 46 46 46 45 46 46 46 47 48 49 50 51 52 53 53 54 54 55 55 56 57 57 56 57 56 56 56 55 55 54 54 52 51 50 49 49 50 50 50 51 50 50
44 45 45 46 46 47 48 48 47 48 47 48 48 49 49 50 51 52 53 53 54 54 55 55 55 55 55 56 56 55 56 55 54 53 53 53 52 51 49 47 46 45 45 46 47 47 48 47 46
47 46 46 46 47 48 49 51 47 47 48 48 49 49 50 51 52 54 54 54 55 55 56 56 56 55 54 55 55 55 55 53 52 52 52 51 49 48 47 45 44 43 43 43 43 44 45 46 45

GEFSSGP_500_meanwind_192.txt.gz
Wind_Speed
22 22 22 22 22 22 22 21 21 21 21 21 21 21 22 22 21 20 19 19 19 19 20 20 20 20 20 20 20 19 19 19 19 19 19 20 20 20 20 20 20 20 19 19 20 19 19 19 19
22 22 22 23 23 22 21 21 21 21 21 22 22 22 22 22 22 20 19 20 20 20 20 21 21 21 21 21 21 21 21 21 21 21 21 21 21 21 22 22 22 22 22 21 21 21 21 21 21
21 22 23 23 23 22 21 21 21 21 21 22 22 22 22 22 22 22 21 21 21 21 22 22 22 22 22 23 23 23 23 23 23 23 23 23 23 23 23 23 23 23 23 23 23 23 23 23 22
22 22 23 23 23 23 23 23 24 23 23 23 23 23 23 23 23 24 23 23 23 23 23 23 23 23 24 24 24 24 25 25 25 25 25 25 25 25 25 25 25 25 25 26 25 25 25 25 24
23 23 23 22 22 23 24 25 25 24 24 25 25 24 24 24 25 25 25 24 24 24 24 24 24 25 25 25 25 25 26 26 26 26 26 27 27 27 27 27 27 27 27 27 27 27 27 26 26
24 24 24 23 23 24 25 25 26 25 25 26 25 25 24 25 25 26 26 26 26 26 26 26 27 27 27 27 27 27 28 28 28 28 28 28 28 28 29 29 29 28 28 28 29 29 29 28 28
24 24 24 24 24 24 25 25 26 26 26 26 26 25 25 25 26 27 27 28 27 28 28 29 29 29 29 30 30 30 30 30 30 30 30 30 30 30 30 31 31 31 31 31 30 30 30 30 30
23 24 24 24 24 25 25 25 25 26 26 26 26 25 25 26 27 28 28 28 28 29 29 30 30 31 31 31 32 32 32 32 32 32 32 32 33 32 32 33 33 34 34 33 33 33 33 33 33
22 23 24 24 24 25 25 25 26 26 26 26 26 26 26 27 28 28 29 29 29 29 29 30 31 31 32 33 33 34 34 34 34 34 34 35 35 35 35 35 36 36 36 36 36 36 36 36 36
20 21 22 23 23 24 25 25 25 26 26 25 25 26 26 27 28 28 29 29 30 30 30 31 32 33 33 34 34 35 36 36 36 36 36 36 37 37 37 37 38 38 38 38 38 39 39 39 38
18 19 20 21 22 23 24 24 24 25 25 26 26 26 27 27 28 28 29 29 30 30 31 32 33 33 34 35 35 36 36 37 38 38 38 39 39 39 39 39 39 40 40 40 40 41 40 41 40
18 18 19 20 21 21 22 23 23 23 25 26 26 26 26 27 27 28 28 29 29 30 31 32 33 34 35 36 36 37 37 38 38 39 39 40 40 40 41 41 41 42 42 42 43 43 43 43 43
18 18 18 19 20 21 21 20 21 22 24 24 25 25 25 26 27 28 28 29 30 30 31 32 33 34 35 36 37 38 39 39 40 41 41 41 42 43 43 44 44 44 44 45 45 45 45 45 45
19 19 19 19 20 20 20 20 20 21 23 23 23 24 25 26 27 28 29 30 30 31 32 33 34 35 36 37 38 38 39 40 41 42 43 44 44 45 45 46 46 46 47 47 48 48 48 49 48
20 20 20 20 21 21 21 21 21 22 22 23 23 25 26 27 27 28 29 30 30 31 32 33 34 35 36 38 39 39 40 41 42 43 44 45 45 46 47 47 47 48 49 49 50 50 50 50 50
22 21 21 21 22 22 22 21 22 23 23 24 24 25 26 27 28 29 29 30 31 32 33 34 35 36 37 38 39 40 41 42 42 44 45 46 47 47 48 48 49 49 50 51 52 52 53 53 53
23 22 22 22 23 23 23 23 24 25 25 25 26 26 27 28 29 30 31 31 32 33 34 35 36 37 37 38 39 40 41 42 43 44 46 47 48 48 49 50 50 51 52 53 54 54 54 55 55
24 24 23 24 24 25 25 24 26 26 26 27 27 28 28 28 30 31 32 32 33 34 35 36 36 37 38 38 39 40 41 42 43 44 45 47 48 49 50 51 51 52 53 54 55 55 56 57 57
27 26 26 25 26 26 25 25 26 27 27 27 27 28 28 29 30 31 33 34 34 35 36 36 37 37 38 39 40 41 42 43 44 46 47 48 49 50 51 52 53 54 55 56 57 57 57 58 59
29 28 28 28 28 28 27 26 26 26 27 28 28 29 29 30 31 31 33 34 35 36 37 38 38 39 39 40 41 42 44 45 46 48 49 50 51 52 52 54 55 56 56 57 58 59 59 59 60
31 31 30 30 30 30 30 29 27 27 28 28 29 30 30 31 31 32 34 35 36 37 38 39 40 40 41 42 43 44 46 47 48 49 50 52 53 54 55 56 57 58 59 59 60 61 61 61 61
34 33 33 33 32 32 32 32 29 29 29 30 30 31 31 32 33 34 35 36 38 39 40 41 41 42 44 45 46 47 48 49 51 51 52 53 55 56 57 58 59 60 61 61 61 62 62 62 62
35 35 35 35 35 35 34 35 33 31 31 31 32 32 33 33 34 36 37 37 38 40 41 42 43 44 45 47 49 50 51 52 52 53 54 56 57 58 59 60 60 61 62 62 62 63 63 63 63
37 37 37 37 37 38 36 37 36 34 33 33 34 35 35 35 36 37 38 38 39 41 42 43 44 45 47 48 50 51 53 54 54 55 56 58 59 60 61 61 61 62 63 63 63 63 64 64 64
38 37 38 39 40 40 38 39 39 37 36 36 36 37 37 38 38 39 39 40 41 43 44 45 46 47 48 50 52 53 54 55 56 57 58 59 61 61 62 62 62 62 63 63 63 64 64 64 63
38 38 39 41 42 41 41 41 40 40 39 38 39 39 39 39 40 41 41 42 43 44 45 47 48 49 50 51 53 55 56 57 58 59 60 61 62 62 63 63 62 62 62 62 62 62 62 61 61
40 40 40 42 44 44 44 44 42 41 41 41 41 41 41 41 42 42 43 44 45 46 47 48 49 50 51 53 55 56 57 58 60 60 61 61 61 62 62 62 61 61 61 61 60 60 59 58 56
42 41 41 42 44 45 46 45 44 43 42 42 43 43 43 43 44 44 45 46 47 48 48 50 50 51 53 54 56 57 58 58 59 59 60 61 61 61 61 60 59 59 59 59 58 56 55 55 54
43 43 43 44 45 46 47 46 45 44 44 44 44 44 44 44 45 46 47 48 49 49 50 51 52 53 54 55 57 57 58 58 58 59 60 60 60 59 59 58 57 57 57 56 54 53 53 52 51
45 45 45 46 46 47 48 47 45 45 45 45 45 45 46 46 47 48 48 48 49 50 51 52 53 55 55 56 57 57 57 58 58 59 59 59 58 57 57 56 55 54 53 52 51 50 49 49 47

GEFSSGP_500_meanwind_198.txt.gz
Wind_Speed
25 25 26 26 26 26 24 23 23 23 24 24 24 24 23 22 22 22 21 21 20 20 20 19 19 19 18 18 18 18 17 17 17 16 16 16 16 16 16 16 16 16 16 16 16 16 16 17 17
25 26 26 27 26 25 23 23 24 24 24 24 24 24 24 23 23 22 22 22 21 21 21 21 20 20 20 19 19 19 19 19 19 18 18 18 18 17 17 18 18 18 18 18 18 18 18 18 18
25 25 26 26 26 24 23 23 24 24 24 24 24 24 23 23 23 23 23 23 22 22 22 22 22 22 21 21 21 21 21 21 21 20 20 20 20 20 19 19 20 20 20 20 20 20 20 20 20
25 25 26 26 24 24 24 24 24 24 24 24 24 23 23 23 23 23 23 23 23 23 23 23 23 22 22 22 22 22 22 22 22 22 22 22 22 21 22 22 22 22 22 22 22 22 22 22 22
25 25 25 24 23 24 25 26 25 25 24 24 24 24 24 24 24 23 23 23 23 24 24 24 24 23 23 23 23 23 24 24 24 24 24 24 24 23 23 23 23 23 23 23 24 23 23 23 23
25 25 25 23 23 24 25 25 26 26 26 26 25 25 25 25 24 24 24 24 25 25 25 25 25 25 25 25 25 26 26 26 26 26 26 26 26 25 25 25 25 25 25 25 25 25 26 26 26
25 26 25 25 25 25 25 26 26 26 27 27 27 27 26 26 26 26 26 26 26 26 26 27 27 27 27 27 27 27 27 27 27 27 28 28 28 28 27 27 27 27 27 27 28 28 28 28 28
25 26 26 25 25 26 26 26 26 26 27 27 28 27 28 28 28 28 28 27 27 28 28 28 28 29 28 29 29 29 28 29 29 29 29 29 29 29 29 29 29 30 30 30 30 30 30 30 31
25 25 25 24 25 26 26 27 27 27 27 27 28 28 29 29 29 29 29 28 28 29 29 29 29 29 29 29 29 30 30 30 30 30 30 31 31 31 31 31 31 31 32 32 32 32 32 32 33
24 24 24 24 25 26 27 28 28 28 27 27 28 28 29 29 29 29 29 29 29 29 29 29 28 29 29 30 30 30 31 31 31 31 31 32 32 32 33 33 33 33 33 33 33 33 34 34 34
23 23 23 23 24 25 26 27 28 28 28 28 28 28 28 29 29 29 29 29 29 29 28 28 28 29 30 30 31 31 32 32 32 33 33 33 33 33 34 34 35 35 35 36 35 36 36 36 36
23 22 23 23 24 25 25 26 27 27 27 28 28 28 28 27 27 28 28 28 28 28 28 29 29 29 30 31 31 32 32 33 34 34 35 35 35 35 36 36 37 37 37 38 38 38 38 38 39
24 23 24 24 24 24 24 24 24 24 26 27 27 26 26 26 27 27 28 28 29 29 29 29 29 30 30 31 32 33 34 34 35 35 36 36 37 37 38 38 38 39 39 39 40 40 40 41 41
25 25 24 24 24 23 23 23 23 23 25 25 25 25 25 25 26 27 27 28 28 28 29 30 30 30 31 32 32 34 35 36 36 36 37 37 38 38 39 39 39 40 40 41 41 42 43 43 43
26 26 25 24 24 23 24 24 23 24 24 24 24 25 25 25 26 26 27 28 28 29 29 30 31 31 32 32 33 34 35 35 36 37 38 38 39 39 40 40 41 41 42 43 43 44 45 46 46
27 27 25 24 25 24 25 23 24 24 25 24 24 25 25 25 26 26 27 28 29 29 30 31 32 32 32 33 34 35 36 36 37 37 38 39 39 40 41 42 42 43 44 45 46 46 47 48 49
28 27 26 25 26 25 25 23 24 24 24 24 25 25 26 26 26 27 27 28 29 30 30 32 32 33 34 34 35 35 36 37 37 38 39 40 41 42 43 44 45 46 47 47 48 49 49 50 51
29 29 28 27 27 27 26 25 25 25 25 25 26 26 26 27 27 28 28 29 30 31 32 32 33 34 35 36 36 37 38 38 39 40 41 42 42 43 44 46 47 48 49 50 50 51 51 52 52
32 31 30 29 29 29 28 27 27 26 26 26 26 27 27 28 28 29 29 30 31 32 33 33 34 35 36 37 38 39 39 40 41 42 43 43 44 45 46 47 48 49 51 51 52 52 53 54 55
34 33 32 32 32 31 31 29 29 28 27 27 28 28 28 29 29 30 30 31 32 33 34 34 35 35 36 38 39 40 41 42 43 44 44 45 45 46 47 48 49 51 52 53 54 55 56 56 57
36 35 34 34 34 34 33 32 30 29 29 29 29 29 29 30 31 31 32 32 33 34 35 36 37 38 39 41 41 42 43 44 44 45 46 47 47 48 49 50 52 52 53 54 56 57 58 58 59
38 37 36 36 37 36 36 35 32 31 31 30 30 30 31 31 32 33 34 34 35 35 37 38 39 40 42 43 44 44 45 46 46 47 48 48 50 51 52 52 53 54 55 56 58 59 60 62 62
40 39 39 39 39 39 38 39 34 33 32 32 32 32 32 33 33 34 35 36 36 37 38 40 41 43 44 45 46 47 47 48 48 49 49 50 51 53 54 55 55 56 57 59 60 62 63 64 65
42 41 41 42 42 43 40 40 38 35 34 33 34 34 34 34 35 35 36 37 38 39 40 41 43 44 46 47 48 48 49 50 50 51 51 52 53 55 56 57 58 60 61 62 63 63 64 65 65
43 43 43 44 45 44 42 42 40 37 36 35 35 35 36 36 36 37 37 38 39 40 41 42 44 46 47 48 49 49 50 51 52 52 53 54 55 57 58 59 61 62 62 64 64 65 65 65 65
44 44 44 45 46 45 44 44 41 39 38 37 37 37 37 37 38 38 39 40 41 42 43 44 45 46 48 49 50 51 52 52 53 54 55 56 57 58 60 61 62 63 64 64 65 65 65 65 65
45 45 44 45 46 46 46 44 42 41 39 38 38 38 38 39 39 40 41 42 43 44 44 45 46 48 48 49 50 51 53 54 55 56 57 58 59 60 62 62 63 63 64 65 65 65 65 65 64
45 44 43 44 46 46 47 45 43 41 40 40 39 39 39 40 41 42 43 43 44 45 46 47 48 48 49 50 51 52 54 55 57 58 59 60 60 61 62 63 64 64 65 65 65 64 64 64 62
45 45 45 46 47 47 47 46 44 42 42 41 41 41 41 41 42 42 43 45 46 47 48 48 49 49 50 51 52 53 55 56 58 59 60 61 61 62 63 63 64 65 65 64 63 63 62 61 59
46 46 46 46 47 47 47 47 45 44 43 43 43 42 43 43 43 44 45 46 47 48 49 49 50 51 51 52 53 55 56 58 59 59 60 60 61 62 63 64 64 64 63 62 62 61 59 57 56

GEFSSGP_500_meanwind_204.txt.gz
Wind_Speed
27 27 27 28 28 28 26 25 25 25 25 24 24 23 22 22 22 22 21 21 20 20 19 19 19 18 18 17 17 17 16 16 16 15 15 15 15 15 15 15 15 15 15 14 14 15 14 14 14
26 27 27 28 28 27 26 25 25 26 25 25 24 24 24 23 23 23 22 22 22 21 21 21 20 20 19 19 18 18 18 18 18 17 17 17 17 16 16 16 17 17 16 17 17 17 17 17 17
27 27 28 28 28 27 26 26 26 26 26 26 25 25 24 24 23 23 23 23 23 22 22 22 22 21 21 20 20 20 20 20 19 19 19 19 19 19 18 18 18 19 19 19 19 19 19 19 19
27 28 28 28 27 27 27 27 27 26 26 26 25 25 25 24 24 24 24 23 23 23 23 22 22 22 22 22 21 21 21 21 21 21 21 21 21 21 21 21 21 21 21 21 21 21 21 21 21
27 28 28 27 26 26 27 27 27 26 26 25 25 25 25 25 25 24 24 24 23 23 23 22 22 22 22 22 22 22 22 22 22 22 22 23 23 23 23 23 23 23 23 23 23 23 23 23 23
27 27 27 26 26 26 27 27 27 27 26 26 25 25 24 25 25 25 24 24 24 23 23 22 22 22 22 23 23 23 23 23 23 23 24 24 24 24 24 24 24 25 25 25 24 25 25 25 25
28 28 27 26 26 26 26 27 27 27 27 26 26 25 25 25 25 25 25 25 24 24 24 23 23 23 23 24 24 24 24 24 24 24 25 25 25 25 25 25 25 25 26 26 26 26 26 27 27
28 28 27 27 27 27 27 27 27 27 27 27 26 26 26 26 26 26 26 25 25 25 25 25 25 25 25 25 25 25 25 25 25 25 25 26 26 26 26 26 26 27 27 27 28 28 28 28 28
28 28 27 26 27 27 28 28 28 28 27 27 27 27 27 28 28 27 27 27 26 26 26 26 26 26 26 26 26 26 26 25 26 26 26 26 27 27 27 27 28 28 28 29 29 30 30 30 30
28 27 26 27 27 28 28 29 29 28 28 28 27 27 27 28 28 29 29 28 28 28 27 28 27 27 27 27 27 27 26 27 27 27 27 27 28 28 29 29 30 30 30 30 31 31 32 32 32
28 27 26 27 27 28 29 29 29 29 28 28 28 28 27 27 28 29 29 29 29 28 28 28 28 28 28 28 28 28 28 28 28 28 29 29 29 30 30 31 31 31 32 32 33 33 34 34 34
28 27 26 26 27 27 28 29 29 28 28 28 28 28 28 28 28 28 29 29 29 29 29 29 29 29 29 29 29 29 29 29 29 30 30 30 30 31 31 32 32 33 33 34 34 35 35 35 35
29 28 28 27 27 27 28 28 28 28 28 28 28 28 28 28 28 28 28 28 29 29 29 29 30 30 30 30 29 30 30 30 30 30 31 31 31 31 31 32 33 34 35 35 35 36 37 37 37
30 29 29 29 28 28 27 28 28 27 27 27 27 27 27 27 28 28 28 28 29 29 29 29 29 29 29 29 29 29 30 30 30 30 31 31 32 32 32 34 35 35 36 36 37 37 38 39 39
31 31 30 29 28 28 28 28 27 27 28 27 27 27 26 26 27 27 28 28 28 28 28 28 29 29 29 29 29 29 30 30 30 31 31 32 32 33 34 35 36 36 37 38 39 39 40 41 42
32 32 31 29 29 29 29 27 28 28 28 27 27 27 26 26 26 27 28 28 29 29 29 29 29 29 30 30 30 30 31 31 31 32 32 33 34 35 36 37 38 38 38 39 40 41 42 42 43
33 32 31 30 30 30 30 28 28 28 28 28 27 27 27 27 27 27 28 28 29 29 29 29 29 30 30 30 31 31 31 31 32 33 33 35 36 37 38 39 39 40 40 41 42 43 44 44 45
33 32 32 32 31 31 30 29 30 29 29 28 28 28 28 27 27 28 28 28 29 29 29 29 30 31 31 31 31 32 32 33 34 34 35 37 38 39 40 40 41 42 43 44 45 46 47 48 48
35 35 34 33 33 32 32 31 31 31 30 29 29 28 28 28 29 29 28 29 29 29 30 30 31 31 32 33 33 33 34 35 36 36 37 38 40 41 42 42 43 44 45 46 47 48 49 50 51
37 36 35 35 34 34 33 32 32 31 30 30 29 29 29 29 29 29 29 29 29 29 30 31 32 32 33 34 34 35 35 36 37 38 39 41 42 42 43 44 45 45 47 47 49 49 50 52 53
38 37 36 36 36 36 35 34 33 32 31 31 30 30 30 30 30 30 29 30 30 30 31 32 32 33 34 35 36 36 37 38 39 40 41 43 44 45 45 46 47 48 48 49 50 51 53 54 56
40 38 38 38 38 38 37 36 34 33 32 31 31 31 30 31 31 31 31 31 31 32 32 33 33 34 35 36 37 38 39 40 41 42 43 44 45 46 47 48 49 49 50 51 53 55 56 57 58
42 40 40 40 40 40 39 39 35 35 34 32 32 32 31 32 32 32 32 32 33 34 34 34 35 35 36 37 38 40 41 41 43 44 45 46 47 47 48 50 51 52 53 54 55 57 58 59 59
43 42 42 42 42 43 40 40 38 36 34 33 33 33 33 33 33 33 34 34 35 35 35 36 36 37 37 38 40 41 42 43 45 46 47 48 48 49 50 52 53 54 56 57 58 59 59 60 60
45 44 43 44 45 45 41 42 40 37 35 35 35 35 35 35 35 35 34 35 35 36 36 37 37 38 39 40 41 43 44 45 47 48 49 50 51 51 53 54 56 57 58 59 60 60 60 60 61
45 45 45 45 46 45 44 43 41 39 37 36 36 36 36 36 36 36 36 36 36 37 38 38 39 39 41 42 43 44 45 46 48 50 51 52 53 54 55 56 58 59 60 60 61 61 61 62 62
47 47 46 46 46 46 46 44 42 40 38 38 37 37 37 37 37 37 37 38 38 39 39 39 40 41 41 42 44 45 46 48 49 51 53 54 54 55 56 58 59 60 60 61 61 61 62 63 63
48 46 46 46 47 46 47 45 43 41 39 39 38 39 39 39 39 39 39 39 39 40 41 41 42 42 43 44 45 46 47 49 51 52 54 54 55 57 58 59 59 60 61 61 61 62 62 62 62
46 47 47 47 48 47 47 46 43 42 41 40 40 40 39 39 39 39 40 40 41 41 42 43 43 44 45 46 47 48 49 51 52 53 55 56 57 58 59 59 60 60 61 61 61 61 61 61 61
45 46 47 47 47 47 47 47 44 43 42 41 40 40 40 40 41 41 41 41 41 42 43 44 45 45 47 48 49 50 52 53 53 54 55 57 58 59 59 59 59 60 60 60 60 59 59 59 58

GEFSSGP_500_meanwind_210.txt.gz
Wind_Speed
29 29 29 30 30 30 28 27 28 27 26 25 25 24 24 26 25 24 22 20 20 20 20 18 18 18 17 17 17 16 16 16 16 15 15 15 15 15 15 15 15 15 15 15 15 15 15 15 15
29 30 30 30 31 29 28 28 29 28 27 26 26 26 26 27 25 24 23 22 22 21 20 20 19 19 19 19 18 18 18 18 18 17 17 17 17 17 17 17 17 17 17 17 18 18 18 18 17
30 31 31 31 30 29 28 30 30 29 28 28 28 28 28 26 24 25 24 24 23 22 21 21 20 20 20 20 20 19 19 19 19 19 19 19 19 19 19 19 19 19 19 19 20 20 20 20 20
31 31 31 31 29 29 30 30 29 28 28 28 29 29 28 26 26 26 26 25 24 23 22 22 22 21 21 21 21 21 21 21 20 20 20 20 20 20 20 20 20 20 20 21 21 21 21 22 22
32 32 32 31 29 30 30 29 28 28 29 29 29 29 28 28 28 28 27 26 25 24 23 23 23 22 22 22 22 22 21 21 21 21 21 21 21 21 21 21 22 22 22 22 22 22 22 23 23
32 32 32 30 29 30 30 29 29 29 30 30 30 29 28 28 28 28 28 27 26 25 24 24 23 23 23 23 23 22 22 21 21 21 21 22 22 22 23 23 23 23 24 24 24 24 24 24 24
32 32 32 31 31 30 30 30 30 30 30 30 30 30 29 28 28 28 28 27 26 26 25 24 24 24 23 23 23 22 22 22 22 22 22 22 22 23 23 24 24 24 24 24 25 25 25 25 25
33 33 32 31 31 31 31 30 30 30 30 30 30 30 28 27 28 28 28 27 26 26 25 25 24 24 24 23 23 23 23 23 23 23 23 23 24 24 24 25 25 25 25 25 26 26 26 26 27
34 33 31 30 32 32 31 30 31 30 30 30 30 29 28 27 28 28 27 27 27 26 26 25 25 25 25 24 24 24 24 24 24 24 24 24 25 25 25 26 26 26 27 27 27 28 28 28 29
34 33 31 32 32 32 31 30 31 31 30 31 30 30 29 28 28 28 27 28 27 27 27 26 26 26 26 26 26 26 25 25 26 26 26 26 26 26 27 27 28 28 29 29 30 30 30 30 31
34 33 32 32 32 32 31 31 31 32 31 31 31 30 29 29 29 29 28 28 28 28 28 27 27 27 27 27 27 27 27 27 27 27 27 27 27 28 28 29 29 30 30 30 31 31 31 31 32
35 34 33 33 32 32 32 32 32 32 32 32 31 31 30 30 30 29 29 29 29 29 29 28 28 28 28 28 29 28 28 29 29 29 29 29 28 29 29 29 30 30 30 31 31 31 32 32 33
36 35 35 34 33 32 32 32 32 31 31 31 31 31 30 30 30 30 29 29 29 29 29 29 29 29 29 29 29 30 30 30 30 30 30 29 29 29 30 30 31 31 31 32 32 32 33 33 34
37 36 35 35 34 33 33 32 32 31 31 31 31 31 31 30 30 30 29 29 29 29 29 30 30 30 30 30 30 30 30 30 30 30 30 30 30 30 30 30 31 32 32 33 34 34 35 35 36
37 37 36 35 34 34 34 33 31 31 31 31 31 31 31 31 30 29 29 29 29 29 29 29 29 30 29 29 29 30 30 30 30 30 30 30 30 30 31 31 32 32 33 34 35 36 37 37 38
38 38 37 35 35 34 34 32 31 31 31 31 31 31 31 31 31 30 30 29 29 29 29 29 29 29 29 29 29 29 29 30 30 30 30 31 31 32 33 33 33 34 35 36 37 38 39 40 41
39 38 37 36 36 35 35 33 32 32 31 31 31 31 31 31 31 31 30 30 30 29 29 30 30 30 30 30 30 30 30 30 31 31 32 33 33 33 34 34 35 36 37 38 40 40 42 43 44
38 38 38 38 37 36 36 35 34 33 33 32 32 31 31 31 31 31 31 30 30 30 29 30 30 31 31 31 31 31 32 32 32 33 34 34 35 35 36 37 38 39 40 41 42 43 45 45 46
39 39 38 39 38 38 37 37 36 35 34 34 33 32 32 32 32 31 31 31 30 30 30 30 30 31 31 32 32 32 33 33 34 34 35 35 36 37 38 39 40 41 42 43 44 45 46 47 48
41 40 39 40 39 38 38 38 37 36 35 35 34 33 32 32 33 32 32 31 31 31 31 31 31 31 32 32 33 33 34 34 35 36 36 37 38 39 40 41 42 43 44 45 46 47 48 48 50
42 40 39 40 40 40 39 39 38 37 36 36 35 34 34 34 33 33 33 33 32 32 32 32 32 32 32 33 33 34 34 35 36 37 38 39 40 41 43 44 44 45 46 47 48 49 50 51 52
42 41 41 41 41 40 41 41 38 37 37 36 35 35 35 34 34 34 34 34 33 33 33 33 33 33 33 33 34 34 35 36 37 38 39 41 42 43 44 45 46 47 48 49 50 51 52 53 54
43 42 42 42 42 43 42 42 40 38 37 36 35 36 35 35 35 35 34 34 35 34 34 34 34 34 34 35 35 36 37 37 38 40 41 42 43 44 45 46 47 48 50 51 51 53 54 55 56
44 43 43 43 44 45 42 43 42 39 38 36 35 36 36 36 36 36 35 35 36 35 35 35 35 35 36 36 37 37 38 39 40 41 42 43 44 45 46 47 48 50 51 52 53 55 56 56 57
45 45 44 45 46 46 43 44 44 40 38 37 36 37 37 37 37 37 36 36 36 36 36 36 36 37 37 38 38 39 39 40 41 42 43 44 45 46 47 48 50 51 53 54 55 56 57 58 58
45 45 44 44 45 46 44 45 44 41 40 39 38 38 38 38 38 38 37 37 37 37 37 38 38 38 39 39 40 41 41 42 43 44 45 45 46 47 49 50 52 53 54 55 57 58 58 58 58
45 45 44 44 45 46 46 46 44 42 41 40 40 39 39 39 39 39 38 38 38 38 38 39 39 40 41 41 42 43 44 44 45 46 46 47 48 49 51 52 53 55 56 57 58 59 59 59 59
45 44 44 45 45 45 46 45 45 43 42 41 40 40 40 40 39 39 39 39 39 39 40 40 40 41 42 43 44 44 45 46 47 48 48 49 50 51 52 54 55 56 57 57 58 59 59 58 58
44 45 45 45 46 45 44 45 45 44 43 42 41 41 40 40 40 40 40 40 40 40 41 41 42 43 43 44 45 45 46 47 48 49 50 51 52 53 54 55 56 57 57 57 58 58 57 56 56
44 45 45 46 46 45 44 45 43 42 42 42 42 41 41 41 41 40 41 41 41 41 42 43 43 44 45 46 46 47 47 48 49 50 51 52 53 54 55 56 56 57 57 56 56 56 55 55 54

GEFSSGP_500_meanwind_216.txt.gz
Wind_Speed
33 33 33 32 32 31 29 28 28 27 27 26 26 25 25 24 22 21 19 18 18 17 17 17 16 16 15 15 15 14 14 14 14 14 14 15 15 15 16 16 16 16 16 16 16 16 16 16 16
34 34 34 34 33 32 29 29 29 28 28 27 27 26 26 25 22 21 20 19 19 19 19 19 18 17 17 17 16 16 15 15 16 16 16 17 17 17 17 17 17 17 17 17 17 18 18 18 19
35 35 35 34 33 31 30 30 29 29 29 28 28 27 26 25 23 22 21 21 20 20 20 20 19 18 18 18 18 18 17 17 17 17 17 18 18 18 18 18 18 18 19 19 19 20 20 20 20
36 36 36 35 33 31 31 30 30 29 29 29 29 28 27 26 25 24 23 22 22 22 21 21 20 20 20 19 19 19 19 19 19 19 19 19 19 19 19 19 19 19 20 20 21 21 21 22 22
37 37 37 35 33 32 32 31 31 30 29 29 29 29 28 27 26 25 24 24 23 23 22 22 22 22 21 21 20 20 20 20 20 20 20 20 20 20 20 20 20 21 21 22 22 23 23 23 23
38 37 36 34 33 33 33 32 31 31 30 30 30 29 28 28 27 26 26 25 25 24 24 23 23 23 23 22 22 21 21 21 21 21 21 21 21 21 21 21 22 22 23 23 23 24 24 24 24
38 37 36 34 34 34 33 33 32 32 31 30 30 29 28 28 28 27 27 27 26 25 25 24 24 24 23 23 23 22 22 22 22 22 22 22 22 22 22 22 23 23 23 23 24 24 24 25 25
38 38 36 35 34 34 33 33 33 33 32 31 30 29 28 29 28 28 27 27 26 26 25 25 25 24 24 23 23 23 23 22 22 22 22 22 22 22 23 23 23 24 24 24 24 25 25 25 26
39 38 36 34 35 34 35 34 34 33 33 32 31 30 29 29 28 27 27 27 27 26 26 25 25 25 24 24 24 24 23 23 23 23 23 23 23 24 24 24 24 25 25 25 26 26 27 27 27
39 38 35 35 35 35 35 35 34 34 33 32 31 30 30 29 28 27 27 27 27 26 26 26 26 25 25 24 24 24 24 24 24 24 24 25 25 25 26 26 26 26 27 27 27 28 28 28 28
39 37 35 36 35 35 35 35 34 34 33 32 31 31 30 29 28 28 27 27 27 26 26 26 26 26 26 25 25 25 25 25 25 25 25 26 26 27 27 27 27 28 28 28 28 28 28 28 29
40 38 37 37 36 35 35 35 34 33 32 32 31 31 30 29 29 28 28 28 27 27 26 26 27 27 27 26 26 26 26 26 26 27 27 27 27 28 28 28 28 28 28 28 28 28 29 29 30
40 39 39 38 38 36 36 35 34 33 33 32 32 31 30 30 29 29 29 29 28 28 27 27 28 28 27 27 27 27 27 27 27 28 28 28 29 29 29 29 29 28 28 28 29 30 31 32 32
40 40 40 40 39 38 37 36 35 33 33 33 32 31 30 30 29 29 29 29 29 29 28 27 27 27 28 28 28 28 28 28 28 29 29 30 30 30 29 29 29 29 30 30 31 32 32 33 34
41 41 41 40 39 39 38 37 35 33 34 33 32 32 31 30 30 29 29 28 28 28 27 28 28 27 27 27 28 29 29 29 29 30 30 30 30 29 29 29 30 30 31 32 32 33 34 35 36
42 42 42 40 40 39 40 37 35 35 35 33 33 32 31 30 29 29 29 28 27 27 27 27 27 27 27 28 28 28 29 29 30 30 30 30 30 30 29 30 31 32 33 33 34 35 36 37 37
45 43 42 40 41 40 40 37 36 36 35 34 34 33 32 31 30 29 29 29 28 28 28 27 27 27 27 28 28 29 29 30 30 31 31 30 31 31 31 32 32 33 34 35 36 37 38 39 39
43 41 41 41 41 41 40 38 37 37 36 35 34 34 33 32 31 30 30 30 29 29 29 29 29 29 28 28 29 29 30 30 30 30 31 31 32 32 33 34 34 35 36 37 38 38 39 40 41
43 42 42 42 42 42 41 40 39 39 37 36 35 34 33 32 32 32 31 31 30 30 30 30 30 30 29 30 30 30 30 30 31 31 32 32 33 33 34 35 36 37 37 38 39 40 41 42 43
43 44 43 43 43 42 42 42 41 41 39 38 37 36 35 34 33 32 32 31 31 30 30 31 31 31 30 30 31 31 31 31 32 33 33 33 34 35 35 36 37 38 39 40 41 42 43 44 46
43 43 43 42 43 43 43 44 43 42 40 39 38 37 36 35 34 33 32 32 31 31 31 31 32 32 32 32 32 32 32 33 33 34 35 35 36 36 37 37 39 40 41 42 43 44 45 46 47
42 41 42 43 44 44 44 45 43 42 41 40 39 37 36 36 35 34 33 32 32 32 32 32 33 33 33 33 33 33 33 34 35 35 36 36 37 38 38 39 40 41 42 43 44 46 47 49 50
41 40 41 43 44 46 45 46 43 42 41 40 39 38 37 36 36 35 34 33 33 33 33 33 33 34 34 34 34 34 35 35 36 36 37 38 38 39 40 41 41 42 44 45 46 48 49 51 52
42 41 42 43 44 47 46 46 45 43 40 39 38 38 37 37 36 36 35 34 34 34 34 34 34 34 35 35 35 35 36 36 37 37 38 39 40 40 41 42 43 44 45 46 48 49 51 53 54
44 43 43 44 46 47 45 46 45 43 40 38 38 38 37 37 37 36 35 35 34 34 34 34 35 35 35 35 36 36 37 37 38 38 39 40 40 42 43 44 45 46 47 48 49 51 53 54 54
44 44 44 45 46 45 45 46 45 42 40 38 38 38 38 37 37 36 35 35 34 35 35 35 35 36 36 36 37 37 38 38 39 40 41 41 42 43 44 45 46 47 49 50 51 52 53 54 54
44 44 43 44 45 44 45 45 44 42 40 39 38 38 37 37 37 37 36 35 35 35 35 36 36 37 37 37 38 39 39 40 40 41 42 42 43 43 45 46 47 48 50 52 53 54 54 53 53
43 42 43 45 45 45 44 44 42 40 39 39 38 38 37 37 37 37 36 36 35 36 36 37 38 38 38 39 39 39 40 41 42 42 42 43 44 45 46 47 49 50 52 53 53 53 53 52 52
44 44 44 44 45 45 45 43 42 40 39 38 37 37 37 38 38 38 37 37 37 37 37 38 38 39 39 39 40 40 41 42 42 43 43 44 45 46 47 49 50 51 52 53 53 53 52 52 52
44 44 43 44 45 45 44 43 42 41 39 39 38 38 38 38 38 38 38 38 38 38 38 39 39 39 40 40 41 41 42 42 43 44 44 45 46 48 49 50 51 52 52 52 52 52 52 52 51

GEFSSGP_500_meanwind_222.txt.gz
Wind_Speed
34 34 34 34 34 33 30 27 26 25 25 24 24 23 22 21 20 20 18 17 17 17 17 17 16 15 14 14 14 13 13 12 12 11 11 12 12 12 13 13 13 14 14 14 15 15 15 16 16
37 36 36 36 36 33 30 28 27 27 26 25 25 24 23 23 22 21 20 19 18 18 18 18 17 16 16 15 15 15 14 14 14 13 13 13 13 14 14 14 15 15 15 15 16 16 17 17 18
38 38 38 38 36 33 31 29 29 28 27 26 26 26 25 24 23 22 21 21 20 19 19 19 19 18 18 17 16 16 15 15 15 15 15 14 15 15 15 15 16 16 16 17 17 17 18 19 19
40 40 40 39 36 33 32 31 31 30 29 28 27 27 26 25 24 23 23 22 22 21 20 20 20 19 19 18 18 17 17 17 16 16 16 16 16 16 16 16 16 17 17 18 18 19 20 20 20
41 41 41 39 36 34 33 33 32 31 30 29 28 27 26 25 25 25 24 23 23 22 21 21 21 21 20 20 19 19 18 18 17 17 17 17 17 17 17 17 17 18 18 19 19 20 20 21 21
42 42 41 38 35 34 34 34 33 32 31 30 30 29 27 26 26 25 25 24 24 23 23 23 22 22 21 21 20 20 19 19 19 18 19 19 18 18 18 18 19 19 19 20 20 20 21 21 22
42 42 41 38 36 35 35 35 34 33 32 32 31 30 28 28 27 26 26 25 25 24 24 23 23 23 23 22 21 21 20 20 20 20 20 20 20 20 20 20 20 20 21 21 21 21 22 22 23
43 43 42 39 37 35 36 36 36 35 34 33 32 31 29 29 28 27 27 26 26 25 25 24 24 24 23 23 22 22 22 22 22 22 21 21 21 21 21 21 21 21 22 22 22 22 23 23 24
43 43 41 38 37 36 37 38 37 36 35 34 33 31 31 30 29 28 28 27 27 26 26 25 25 25 24 24 23 23 23 23 23 23 22 23 22 22 22 22 23 23 23 23 23 24 24 25 25
44 43 40 38 37 38 38 39 38 37 36 35 34 33 32 31 30 29 29 28 28 27 26 26 25 25 25 24 24 24 24 24 24 24 24 24 23 23 23 23 24 24 24 24 24 24 25 26 26
44 42 40 39 38 39 40 40 39 38 37 35 35 34 33 32 31 30 30 30 29 28 27 26 26 26 25 25 25 25 25 25 25 24 24 24 24 24 24 24 24 25 25 25 25 25 26 26 27
43 42 41 40 40 40 41 41 40 39 37 36 36 35 34 33 32 32 31 30 29 28 28 27 27 27 26 26 26 26 26 25 25 25 25 25 25 25 25 25 25 25 26 26 26 26 27 28 28
43 42 41 41 41 41 41 42 41 39 38 38 37 36 35 34 34 33 32 31 30 29 29 28 28 27 26 26 26 26 26 26 26 26 26 26 26 26 26 26 26 26 26 26 27 28 29 29 29
43 42 41 42 42 42 42 42 42 39 38 38 37 36 35 35 34 33 32 31 31 30 30 29 29 28 27 27 26 26 26 26 26 26 26 26 27 27 27 27 27 27 27 28 28 29 29 30 31
44 43 43 43 42 42 43 43 41 39 39 38 37 36 36 36 35 34 33 32 32 31 31 31 30 30 29 28 28 27 27 27 26 27 27 27 28 28 28 28 28 28 29 29 29 30 31 31 32
45 46 45 43 43 43 44 42 40 40 39 38 37 37 37 36 35 34 34 33 32 32 31 31 30 30 29 29 28 28 28 28 28 28 28 28 28 28 28 28 29 30 30 30 31 32 33 33 34
48 47 45 44 44 44 45 42 41 41 40 39 38 37 37 37 36 35 34 33 32 32 31 30 30 30 29 29 29 29 29 28 28 28 29 28 28 29 29 30 30 31 31 32 33 34 35 35 36
47 46 44 43 43 44 45 43 42 41 41 40 39 38 38 37 36 35 35 34 33 32 31 31 31 30 30 29 29 29 29 29 29 29 29 29 29 30 30 31 31 32 33 34 34 36 37 37 38
46 45 44 43 44 45 45 44 43 43 42 41 40 39 38 38 37 36 35 35 34 33 32 32 32 32 31 30 30 30 30 30 30 31 30 30 30 31 31 32 33 33 34 35 36 37 38 39 40
46 46 45 44 44 45 46 45 44 44 42 40 40 39 38 38 38 37 36 35 34 33 33 33 33 33 33 32 32 32 32 32 31 31 31 31 32 32 33 33 34 35 36 37 38 39 39 40 42
47 45 44 44 44 45 46 46 45 44 43 42 41 40 39 38 38 37 36 35 35 34 34 34 34 34 34 34 34 33 33 33 33 33 33 33 33 34 34 35 36 37 37 38 39 40 41 41 43
46 44 44 45 45 46 46 46 45 45 44 43 42 40 39 39 38 38 37 36 36 35 35 35 35 35 35 34 34 34 34 34 34 34 34 35 35 35 36 37 38 38 39 39 40 41 42 43 44
44 44 44 45 46 46 46 47 45 45 44 43 42 41 40 40 39 39 38 37 37 37 37 36 36 36 35 35 35 35 35 35 35 36 36 36 37 37 38 38 39 39 40 40 41 42 44 45 46
45 44 45 45 46 48 46 47 46 44 43 42 42 42 41 41 40 40 39 39 38 38 38 37 37 36 36 36 36 36 36 36 36 37 38 38 38 39 39 40 40 41 41 42 43 44 45 47 48
47 46 46 46 48 49 46 47 46 43 42 42 41 41 42 42 41 41 40 40 39 39 38 38 37 37 37 37 37 36 37 37 37 38 38 39 40 40 41 41 42 42 43 44 45 46 47 48 49
46 46 47 47 48 48 46 47 45 44 43 42 42 41 41 41 41 41 40 40 39 39 38 38 38 38 37 37 37 37 38 38 38 39 39 40 40 41 42 42 43 44 45 46 47 47 48 49 49
45 45 45 46 47 47 47 46 45 43 43 42 42 42 41 41 41 41 41 40 39 39 39 39 38 38 38 38 39 39 39 39 39 40 40 41 41 42 43 43 44 44 46 47 47 48 49 49 50
45 44 44 45 46 46 46 46 44 41 41 41 42 42 42 42 42 41 41 41 40 40 40 40 40 40 39 39 39 39 40 40 40 41 42 42 43 44 44 44 44 45 46 47 48 48 49 49 50
45 45 45 44 45 45 45 44 42 40 40 40 40 41 42 42 42 42 41 41 41 41 41 41 41 40 40 40 40 40 41 41 41 42 43 43 44 44 44 44 45 46 46 47 48 48 49 50 51
45 45 45 45 45 44 44 43 41 39 38 38 39 40 41 41 41 41 41 41 41 41 41 41 42 41 41 41 41 42 42 42 43 43 44 44 44 45 45 45 46 46 47 48 48 49 50 51 51

GEFSSGP_500_meanwind_228.txt.gz
Wind_Speed
37 37 36 36 36 35 32 28 26 26 25 24 23 22 21 20 19 19 18 17 16 16 15 14 14 13 13 13 12 12 12 12 12 12 11 11 11 11 11 11 11 11 12 12 12 12 13 13 13
39 38 38 38 38 36 32 29 28 27 26 25 24 23 22 21 20 20 19 18 18 17 16 16 15 15 14 14 14 14 13 13 13 13 13 13 12 12 13 12 13 13 13 13 13 14 14 14 15
41 40 40 40 39 35 32 30 30 29 28 27 25 25 24 22 22 21 20 20 19 18 18 17 17 16 16 15 15 15 15 15 14 14 14 14 14 14 14 14 14 14 14 14 14 15 15 16 16
43 43 43 42 39 35 33 31 31 30 29 28 27 26 25 24 23 23 22 21 20 19 19 18 18 18 17 17 17 16 16 16 16 15 15 15 15 15 15 15 15 15 15 15 16 16 16 17 17
44 44 45 43 39 36 34 33 32 31 31 30 29 28 26 25 24 24 23 22 21 21 20 20 19 19 19 18 18 17 17 17 17 17 17 17 16 17 16 16 16 16 16 16 16 17 17 17 17
45 46 45 43 39 37 35 35 34 33 32 31 30 29 28 27 26 25 24 24 23 22 22 21 20 20 20 19 19 18 18 18 18 18 17 17 17 17 17 17 17 17 17 17 17 17 18 18 18
45 45 45 43 40 38 37 36 35 34 34 33 32 31 30 28 27 26 25 25 24 24 23 22 22 21 21 21 20 19 19 19 19 19 18 18 18 18 18 18 18 18 18 18 18 18 19 19 20
45 45 45 43 40 39 38 38 37 36 35 34 34 32 31 30 29 28 27 26 25 25 24 23 23 22 22 22 21 21 21 20 20 19 20 20 19 19 19 19 19 19 20 20 20 20 20 20 20
46 46 45 42 40 39 39 39 38 38 37 36 35 34 32 31 30 29 28 27 27 26 25 24 24 23 23 23 22 22 22 22 21 21 21 21 20 20 20 20 20 21 21 21 21 21 21 21 21
48 47 44 42 41 40 40 40 40 39 38 38 37 36 34 33 31 30 29 29 28 27 26 26 25 25 24 24 23 23 23 23 22 22 22 22 22 22 22 22 22 22 22 22 22 22 22 23 23
48 47 44 43 42 41 41 41 41 41 40 39 38 36 35 34 33 32 31 30 29 28 28 27 27 26 25 25 24 24 24 23 24 23 23 23 23 23 23 23 23 23 23 23 23 23 24 24 24
47 46 45 44 43 42 42 43 42 42 41 40 39 37 37 35 34 34 33 32 30 29 29 28 27 27 26 26 25 25 25 24 25 25 24 23 23 23 23 23 23 23 24 24 24 24 25 25 25
47 46 45 45 44 44 44 44 43 42 41 41 40 39 38 37 36 36 34 33 32 31 30 29 29 28 28 27 27 26 26 26 25 25 24 24 24 24 24 24 24 24 24 24 25 25 26 26 27
47 46 46 45 45 45 45 45 44 42 42 42 41 40 39 38 37 36 35 34 33 33 32 31 31 30 30 29 28 27 27 27 26 26 25 25 25 25 25 25 25 25 25 25 26 26 27 28 29
48 47 47 46 46 45 46 45 44 43 42 42 41 41 40 39 38 37 36 36 35 34 33 33 32 32 31 31 30 29 28 28 27 27 26 25 25 25 26 26 26 26 26 27 27 28 29 29 30
48 48 48 47 46 45 46 45 44 44 43 42 42 41 40 39 38 37 37 37 36 35 34 34 33 33 32 31 31 30 30 29 28 27 27 27 27 27 27 27 27 28 28 28 29 29 30 30 31
50 49 48 47 47 46 46 45 44 44 44 43 42 41 40 40 39 38 38 37 37 36 36 35 34 33 33 32 31 30 30 29 29 28 28 28 28 28 28 29 29 29 30 30 30 31 31 32 32
49 49 48 46 47 46 46 45 44 44 44 43 43 42 41 40 40 39 39 38 38 37 36 35 34 34 33 32 31 30 30 30 29 29 29 29 29 30 30 30 30 30 30 31 31 32 33 34 34
47 47 46 45 46 46 46 45 45 45 44 44 43 42 42 41 41 40 40 39 38 38 36 35 34 34 33 32 31 31 31 30 30 30 30 30 30 30 31 31 31 31 31 32 33 33 34 35 36
47 47 47 46 45 46 47 46 45 45 44 44 43 43 42 42 41 41 40 40 39 38 37 36 36 35 34 33 32 32 32 31 31 31 31 31 31 31 32 32 32 32 33 33 34 35 36 37 38
48 46 45 46 45 46 47 47 46 45 45 44 43 43 42 41 41 41 41 40 39 38 38 37 37 36 35 34 34 33 33 32 32 32 32 32 32 33 33 33 34 34 34 35 36 37 38 38 39
47 45 45 45 45 46 47 48 47 46 45 44 43 43 42 42 41 41 41 40 39 39 38 38 37 37 36 35 35 34 34 34 34 34 34 34 34 34 34 35 35 35 36 37 38 39 39 40 40
45 44 44 45 45 46 47 48 47 46 45 44 43 42 42 42 41 41 41 40 40 39 39 39 38 37 37 36 36 35 35 35 35 36 36 35 36 36 36 36 36 37 38 39 40 40 40 41 42
44 44 43 44 46 48 47 47 47 45 44 43 43 42 42 42 42 41 41 41 40 40 40 39 39 38 37 37 37 37 36 36 36 37 37 37 37 37 37 37 38 39 40 40 41 41 42 43 44
44 45 45 45 47 49 47 47 46 44 43 42 42 42 42 42 42 42 41 41 41 41 40 40 40 39 39 38 38 38 37 37 37 37 38 38 38 38 38 39 40 40 41 41 42 43 44 45 46
43 45 45 46 47 47 47 47 45 43 42 42 42 42 42 42 42 42 42 42 42 42 41 41 40 40 39 39 39 39 39 39 38 38 38 38 38 39 39 40 41 41 42 42 43 44 45 47 47
42 43 43 44 45 46 46 45 44 43 42 42 42 42 42 42 43 42 42 42 42 42 42 41 41 41 40 40 40 40 39 39 39 39 39 39 40 40 40 41 42 42 43 44 45 46 47 47 47
43 42 42 43 44 44 45 44 42 41 40 40 41 41 41 41 42 42 42 43 43 43 43 43 42 42 41 41 41 41 40 41 41 40 40 41 41 41 42 42 43 44 45 46 46 46 46 46 46
42 42 43 43 43 43 44 44 42 40 40 39 39 40 41 41 42 42 42 43 43 44 44 44 43 43 43 42 42 42 41 41 41 41 41 41 42 42 43 44 44 45 46 46 47 46 46 46 46
40 41 41 42 42 43 43 42 40 39 39 38 38 39 40 41 42 42 42 42 43 44 44 45 44 44 43 43 43 42 42 42 42 41 42 42 43 44 44 45 46 46 46 47 47 46 46 46 47

GEFSSGP_500_meanwind_234.txt.gz
Wind_Speed
39 38 38 38 38 38 34 31 30 28 27 26 24 24 24 23 23 22 19 17 16 16 15 14 14 13 13 12 12 11 11 11 11 11 11 11 11 11 11 11 11 12 12 12 12 12 13 13 14
40 40 40 40 40 39 34 32 32 30 28 27 26 25 25 25 24 22 20 19 18 17 16 15 15 14 14 13 13 13 12 12 12 12 12 12 12 12 12 12 13 13 13 13 14 14 14 14 15
42 42 42 42 41 38 34 34 34 31 30 29 28 27 27 26 24 23 22 21 19 18 18 17 16 15 15 15 14 14 14 14 13 13 13 13 13 13 13 14 14 14 14 14 15 15 15 15 15
43 44 44 44 42 38 37 37 35 33 31 30 30 29 29 26 25 25 24 23 21 20 19 19 18 17 16 16 16 15 15 15 14 14 14 14 14 14 15 15 15 15 15 15 15 15 15 15 15
45 45 46 45 41 39 38 38 36 34 33 32 31 30 30 28 27 27 26 25 23 22 21 20 19 18 17 17 17 17 16 16 15 15 15 15 15 15 16 16 15 16 16 16 16 16 16 16 16
46 47 47 45 42 40 39 38 37 36 34 33 33 32 31 29 29 29 27 26 25 24 23 22 20 20 19 18 18 18 18 17 16 16 16 16 16 17 17 17 16 16 16 16 16 16 17 17 17
47 47 47 45 43 42 41 39 38 37 36 36 34 34 33 31 31 30 29 28 26 25 24 23 22 21 20 20 19 19 19 18 18 17 17 17 17 18 17 17 17 17 17 18 18 18 18 19 19
47 48 48 46 45 43 42 41 39 38 37 37 37 36 34 32 32 31 30 29 28 27 26 24 23 22 22 21 21 20 20 19 19 19 18 18 18 18 18 18 18 18 19 19 19 19 20 20 20
49 50 48 46 45 43 42 41 41 40 38 39 39 38 36 34 34 33 32 30 29 28 27 26 25 24 23 22 22 21 21 21 20 20 20 19 19 19 19 19 19 19 20 20 20 20 21 21 21
49 50 47 46 46 45 43 42 41 41 41 40 39 38 37 36 35 34 33 31 30 29 28 27 26 26 25 24 23 22 22 22 21 21 21 21 20 20 20 20 20 20 21 21 21 21 22 22 22
49 49 48 48 47 45 44 43 43 42 43 42 40 39 38 37 36 35 34 33 32 31 30 29 28 27 26 25 24 23 23 22 22 22 22 22 22 21 21 21 21 22 22 22 22 22 22 23 24
49 49 49 49 47 46 45 44 44 44 43 43 42 41 39 38 37 36 36 34 33 32 31 30 29 28 27 26 25 25 24 23 23 23 23 23 23 23 23 22 23 23 23 23 23 23 24 25 25
50 50 50 50 49 48 46 44 45 45 45 43 42 41 40 40 39 38 37 36 35 33 32 31 30 29 28 28 27 26 25 25 24 24 24 24 24 24 24 24 24 24 23 23 23 24 25 25 26
50 50 50 50 50 49 47 46 46 45 45 44 43 42 41 41 40 39 38 37 36 35 34 32 32 31 30 29 28 27 27 26 26 26 25 25 25 25 25 25 24 24 24 24 24 25 25 26 26
50 50 50 51 50 49 49 48 47 46 45 45 44 44 42 42 41 40 39 38 37 36 35 34 33 32 31 30 29 29 28 27 27 26 26 26 26 26 26 25 25 25 25 26 26 26 27 27 28
49 50 50 50 50 50 50 48 47 47 46 46 45 45 43 42 42 41 40 40 38 37 36 35 35 34 32 32 31 30 29 28 28 27 27 27 27 27 26 26 26 26 26 26 27 28 28 29 30
50 50 49 48 49 49 50 48 47 47 46 46 46 45 44 43 43 42 41 40 39 38 37 37 36 35 34 33 33 32 30 30 29 29 28 28 28 28 28 27 28 28 27 28 28 29 30 31 32
49 49 48 48 48 49 49 48 47 47 47 46 46 45 44 44 43 43 42 41 40 39 38 38 37 36 35 34 34 33 32 31 31 30 29 30 29 29 29 29 29 28 29 29 30 31 32 32 33
47 48 48 47 47 48 48 48 47 47 47 47 46 45 45 44 44 43 43 42 41 40 39 39 38 37 36 36 35 34 33 32 31 30 30 30 30 30 30 30 30 30 31 31 32 33 33 33 33
46 47 47 47 47 47 48 48 48 47 47 47 47 46 46 45 44 44 43 42 42 41 40 40 39 38 37 37 36 35 34 33 32 31 30 30 30 30 30 31 31 32 33 33 33 34 34 34 35
46 47 47 46 47 47 47 48 48 47 47 47 47 46 46 45 44 43 42 42 42 41 41 40 40 39 38 37 37 36 35 34 33 32 31 31 30 30 31 32 32 33 34 34 35 35 35 36 36
44 45 46 46 47 47 47 48 48 47 47 47 46 45 45 45 44 43 42 42 42 42 41 41 41 40 39 38 37 36 35 34 33 33 33 32 32 32 32 33 34 34 35 35 36 36 37 37 38
43 44 45 46 46 47 47 48 48 47 47 46 45 45 44 44 44 43 43 43 43 42 41 41 41 40 39 39 37 37 36 35 35 35 34 34 33 34 34 34 35 35 36 37 37 37 38 39 40
41 42 43 44 45 47 47 48 48 47 46 45 45 44 44 44 43 43 43 43 42 42 41 41 41 40 40 39 38 38 37 36 36 36 36 36 35 35 36 36 36 36 37 37 38 38 39 40 41
41 41 41 42 44 47 46 47 48 46 46 45 44 44 44 44 43 42 42 42 41 41 41 42 41 41 40 39 39 38 37 37 37 37 37 37 37 37 37 37 37 38 38 38 39 40 40 41 42
40 40 41 41 43 44 44 46 47 46 45 45 44 44 44 44 43 42 42 42 41 41 42 42 42 41 41 40 39 39 38 38 38 38 38 38 38 38 38 38 38 38 38 39 40 40 41 42 43
40 40 39 39 40 41 42 43 44 45 45 44 43 43 43 43 43 43 43 42 42 42 42 43 43 42 42 41 41 40 40 40 39 39 39 39 39 39 39 39 39 40 40 40 41 41 42 43 44
39 37 38 38 38 40 41 42 42 42 43 43 43 43 43 43 43 43 43 43 43 43 43 44 43 43 43 42 42 42 41 41 40 40 40 40 40 40 40 40 41 41 41 42 42 43 44 45 45
39 39 39 39 38 38 40 41 40 41 41 42 42 42 42 42 43 43 43 42 43 43 43 44 44 44 43 43 43 43 42 42 41 41 41 40 41 41 41 41 42 42 42 43 43 44 45 45 45
38 39 38 38 39 39 39 39 39 39 39 39 40 40 40 41 41 41 41 42 42 43 44 44 45 45 45 44 44 44 44 43 43 42 42 42 42 42 42 42 42 43 43 44 44 45 45 45 46